[[{"header":{"parameterUnit":"m.s-1","parameterCategory":1,"la1":30.6,"la2":29.2853,"lo1":-89.7004,"lo2":-87.6739,"dy":0.0162,"dx":0.0183,"nx":112,"ny":82,"refTime":"2024-04-29T18:00:00:Z","depth":0,"parameterNumber":2,"parameterNumberName":"U-component_of_WINDS"},"data":[0.0,0.0,0.0,0.0,0.0,0.0,0.0,0.0,0.0,0.0,0.0,0.0,0.0,0.0,0.0,0.0,0.0,0.0,0.0,0.0,0.0,0.0,0.0,0.0,0.0,0.0,0.0,0.0,0.0,0.0,0.0,0.0,0.0,0.0,0.0,0.0,0.0,0.0,0.0,0.0,0.0,0.0,0.0,0.0,0.0,0.0,0.0,0.0,0.0,0.0,0.0,0.0,0.0,0.0,0.0,0.0,0.0,0.0,0.0,0.0,0.0,0.0,0.0,0.0,0.0,0.0,0.0,0.0,0.0,0.0,0.0,0.0,0.0,0.0,0.0,0.0,0.0,0.0,0.0,0.0,0.0,0.0,0.0,0.0,0.0,0.0,0.0,0.0,0.0,0.0,-5.1252,-5.139,-5.1394,-5.1394,-5.1394,-5.1394,-5.1398,-5.1408,0.0,0.0,0.0,0.0,0.0,0.0,0.0,0.0,0.0,0.0,0.0,0.0,0.0,0.0,0.0,0.0,0.0,0.0,0.0,0.0,0.0,0.0,0.0,0.0,0.0,0.0,0.0,0.0,0.0,0.0,0.0,0.0,0.0,0.0,0.0,0.0,0.0,0.0,0.0,0.0,0.0,0.0,0.0,0.0,0.0,0.0,0.0,0.0,0.0,0.0,0.0,0.0,0.0,0.0,0.0,0.0,0.0,0.0,0.0,0.0,0.0,0.0,0.0,0.0,0.0,0.0,0.0,0.0,0.0,0.0,0.0,0.0,0.0,0.0,0.0,0.0,0.0,0.0,0.0,0.0,0.0,0.0,0.0,0.0,0.0,0.0,0.0,0.0,0.0,0.0,0.0,0.0,0.0,0.0,0.0,0.0,0.0,0.0,0.0,0.0,0.0,0.0,0.0,0.0,-5.1252,-5.139,-5.1394,-5.1394,-5.1394,-5.1394,-5.1398,-5.1408,0.0,0.0,0.0,0.0,0.0,0.0,0.0,0.0,0.0,0.0,0.0,0.0,0.0,0.0,0.0,0.0,0.0,0.0,0.0,0.0,0.0,0.0,0.0,0.0,0.0,0.0,0.0,0.0,0.0,0.0,0.0,0.0,0.0,0.0,0.0,0.0,0.0,0.0,0.0,0.0,0.0,0.0,0.0,0.0,0.0,0.0,0.0,0.0,0.0,0.0,0.0,0.0,0.0,0.0,0.0,0.0,0.0,0.0,0.0,0.0,0.0,0.0,0.0,0.0,0.0,0.0,0.0,0.0,0.0,0.0,0.0,0.0,0.0,0.0,0.0,0.0,0.0,0.0,0.0,0.0,0.0,0.0,0.0,0.0,0.0,0.0,0.0,0.0,0.0,0.0,0.0,0.0,0.0,0.0,0.0,0.0,0.0,0.0,0.0,0.0,0.0,0.0,0.0,-5.1113,-5.1214,-5.1288,-5.136,-5.1394,-5.1394,-5.1394,-5.1396,-5.1402,-5.1402,0.0,0.0,0.0,0.0,0.0,0.0,0.0,0.0,0.0,0.0,0.0,0.0,0.0,0.0,0.0,0.0,0.0,0.0,0.0,0.0,0.0,0.0,0.0,0.0,0.0,0.0,0.0,0.0,0.0,0.0,0.0,0.0,0.0,0.0,0.0,0.0,0.0,0.0,0.0,0.0,0.0,0.0,0.0,0.0,0.0,0.0,0.0,0.0,0.0,0.0,0.0,0.0,0.0,0.0,0.0,0.0,0.0,0.0,0.0,0.0,0.0,0.0,0.0,0.0,0.0,0.0,0.0,0.0,0.0,0.0,0.0,0.0,0.0,0.0,0.0,0.0,0.0,0.0,0.0,0.0,0.0,0.0,0.0,0.0,0.0,0.0,0.0,0.0,0.0,0.0,0.0,0.0,0.0,0.0,0.0,0.0,0.0,0.0,0.0,0.0,0.0,0.0,-5.1041,-5.1141,-5.1141,-5.1245,-5.1319,-5.1319,-5.1319,-5.1325,-5.1357,-5.1357,0.0,0.0,0.0,0.0,0.0,0.0,0.0,0.0,0.0,0.0,0.0,0.0,0.0,0.0,0.0,0.0,0.0,0.0,0.0,0.0,0.0,0.0,0.0,0.0,0.0,0.0,0.0,0.0,0.0,0.0,0.0,0.0,0.0,0.0,0.0,0.0,0.0,0.0,0.0,0.0,0.0,0.0,0.0,0.0,0.0,0.0,0.0,0.0,0.0,0.0,0.0,0.0,0.0,0.0,0.0,0.0,0.0,0.0,0.0,0.0,0.0,0.0,0.0,0.0,0.0,0.0,0.0,0.0,0.0,0.0,0.0,0.0,0.0,0.0,0.0,0.0,0.0,0.0,0.0,0.0,0.0,0.0,0.0,0.0,0.0,0.0,0.0,0.0,0.0,0.0,0.0,0.0,0.0,0.0,0.0,0.0,0.0,0.0,0.0,0.0,0.0,0.0,-5.0884,-5.1017,-5.1017,-5.1027,-5.1031,-5.1031,-5.1031,-5.1074,-5.1207,-5.1211,0.0,0.0,0.0,0.0,0.0,0.0,0.0,0.0,0.0,0.0,0.0,0.0,0.0,0.0,0.0,0.0,0.0,0.0,0.0,0.0,0.0,0.0,0.0,0.0,0.0,0.0,0.0,0.0,0.0,0.0,0.0,0.0,0.0,0.0,0.0,0.0,0.0,0.0,0.0,0.0,0.0,0.0,0.0,0.0,0.0,0.0,0.0,0.0,0.0,0.0,0.0,0.0,0.0,0.0,0.0,0.0,0.0,0.0,0.0,0.0,0.0,0.0,0.0,0.0,0.0,0.0,0.0,0.0,0.0,0.0,0.0,0.0,0.0,0.0,0.0,0.0,0.0,0.0,0.0,0.0,0.0,0.0,0.0,0.0,0.0,0.0,0.0,0.0,0.0,0.0,0.0,0.0,0.0,0.0,0.0,0.0,0.0,0.0,0.0,0.0,0.0,0.0,-5.0705,-5.0801,0.0,-5.0926,-5.0997,-5.0997,-5.0996,-5.1025,-5.1069,0.0,0.0,0.0,0.0,0.0,0.0,0.0,0.0,0.0,0.0,0.0,0.0,0.0,0.0,0.0,0.0,0.0,0.0,0.0,0.0,0.0,0.0,0.0,0.0,0.0,0.0,0.0,0.0,0.0,0.0,0.0,0.0,0.0,0.0,0.0,0.0,0.0,0.0,0.0,0.0,0.0,0.0,0.0,0.0,0.0,0.0,0.0,0.0,0.0,0.0,0.0,0.0,0.0,0.0,0.0,0.0,0.0,0.0,0.0,0.0,0.0,0.0,0.0,0.0,0.0,0.0,0.0,0.0,0.0,0.0,0.0,0.0,0.0,0.0,0.0,0.0,0.0,0.0,0.0,0.0,0.0,0.0,0.0,0.0,0.0,0.0,0.0,0.0,0.0,0.0,0.0,0.0,0.0,0.0,0.0,0.0,0.0,0.0,0.0,0.0,0.0,0.0,-5.0416,-5.0536,-5.0596,0.0,-5.0739,-5.0836,-5.0836,-5.0855,-5.0891,-5.092,0.0,0.0,0.0,0.0,0.0,0.0,0.0,0.0,0.0,0.0,0.0,0.0,0.0,0.0,0.0,0.0,0.0,0.0,0.0,0.0,0.0,0.0,0.0,0.0,0.0,0.0,0.0,0.0,0.0,0.0,0.0,0.0,0.0,0.0,0.0,0.0,0.0,0.0,0.0,0.0,0.0,0.0,0.0,0.0,0.0,0.0,0.0,0.0,0.0,0.0,0.0,0.0,0.0,0.0,0.0,0.0,0.0,0.0,0.0,0.0,0.0,0.0,0.0,0.0,0.0,0.0,0.0,0.0,0.0,0.0,0.0,0.0,0.0,0.0,0.0,0.0,0.0,0.0,0.0,0.0,0.0,0.0,0.0,0.0,0.0,0.0,0.0,0.0,0.0,0.0,0.0,0.0,0.0,0.0,0.0,0.0,0.0,0.0,0.0,0.0,0.0,0.0,-5.0302,-5.0367,-5.0401,-5.0401,-5.0457,-5.05,-5.05,-5.0572,-5.0654,0.0,0.0,0.0,0.0,0.0,0.0,0.0,0.0,0.0,0.0,0.0,0.0,0.0,0.0,0.0,0.0,0.0,0.0,0.0,0.0,0.0,0.0,0.0,0.0,0.0,0.0,0.0,0.0,0.0,0.0,0.0,0.0,0.0,0.0,0.0,0.0,0.0,0.0,0.0,0.0,0.0,0.0,0.0,0.0,0.0,0.0,0.0,0.0,0.0,0.0,0.0,0.0,0.0,0.0,0.0,0.0,0.0,0.0,0.0,0.0,0.0,0.0,0.0,0.0,0.0,0.0,0.0,0.0,0.0,0.0,0.0,0.0,0.0,0.0,0.0,0.0,0.0,0.0,0.0,0.0,0.0,0.0,0.0,0.0,0.0,0.0,0.0,0.0,0.0,0.0,0.0,0.0,0.0,0.0,0.0,0.0,0.0,0.0,0.0,0.0,0.0,0.0,0.0,-5.0302,-5.0314,-5.0325,-5.0325,-5.0401,-5.0435,-5.0435,-5.0489,-5.0573,-5.0644,0.0,0.0,0.0,0.0,0.0,0.0,0.0,0.0,0.0,0.0,0.0,0.0,0.0,0.0,0.0,0.0,0.0,0.0,0.0,0.0,0.0,0.0,0.0,0.0,0.0,0.0,0.0,0.0,0.0,0.0,0.0,0.0,0.0,0.0,0.0,0.0,0.0,0.0,0.0,0.0,0.0,0.0,0.0,0.0,0.0,0.0,0.0,0.0,0.0,0.0,0.0,0.0,0.0,0.0,0.0,0.0,0.0,0.0,0.0,0.0,0.0,0.0,0.0,0.0,0.0,0.0,0.0,0.0,0.0,0.0,0.0,0.0,0.0,0.0,0.0,0.0,0.0,0.0,0.0,0.0,0.0,0.0,0.0,0.0,0.0,0.0,0.0,0.0,0.0,0.0,0.0,0.0,0.0,0.0,0.0,0.0,0.0,0.0,0.0,0.0,0.0,0.0,-5.0302,-5.0302,-5.0302,-5.0302,-5.0344,-5.0348,-5.0348,-5.0424,-5.0478,-5.053,0.0,0.0,0.0,0.0,0.0,0.0,0.0,0.0,0.0,0.0,0.0,0.0,0.0,0.0,0.0,0.0,0.0,0.0,0.0,0.0,0.0,0.0,0.0,0.0,0.0,0.0,0.0,0.0,0.0,0.0,0.0,0.0,0.0,0.0,0.0,0.0,0.0,0.0,0.0,0.0,0.0,0.0,0.0,0.0,0.0,0.0,0.0,0.0,0.0,0.0,0.0,0.0,0.0,0.0,0.0,0.0,0.0,0.0,0.0,0.0,0.0,0.0,0.0,0.0,0.0,0.0,0.0,0.0,0.0,0.0,0.0,0.0,0.0,0.0,0.0,0.0,0.0,0.0,0.0,0.0,0.0,0.0,0.0,0.0,0.0,0.0,0.0,0.0,0.0,0.0,0.0,0.0,0.0,0.0,0.0,0.0,0.0,0.0,0.0,0.0,0.0,0.0,-5.0212,-5.0212,-5.0212,-5.0212,-5.0212,-5.0212,-5.0212,-5.0283,-5.0348,-5.0348,0.0,0.0,0.0,0.0,0.0,0.0,0.0,0.0,0.0,0.0,0.0,0.0,0.0,0.0,0.0,0.0,0.0,0.0,0.0,0.0,0.0,0.0,0.0,0.0,0.0,0.0,0.0,0.0,0.0,0.0,0.0,0.0,0.0,0.0,0.0,0.0,0.0,0.0,0.0,0.0,0.0,0.0,0.0,0.0,0.0,0.0,0.0,0.0,0.0,0.0,0.0,0.0,0.0,0.0,0.0,0.0,0.0,0.0,0.0,0.0,-5.2084,0.0,0.0,0.0,0.0,0.0,0.0,0.0,0.0,0.0,0.0,0.0,0.0,0.0,0.0,0.0,0.0,0.0,0.0,0.0,0.0,0.0,0.0,0.0,0.0,0.0,0.0,0.0,0.0,0.0,0.0,0.0,0.0,0.0,0.0,0.0,0.0,0.0,0.0,0.0,0.0,0.0,-4.9541,-4.9512,-4.9512,-4.9512,-4.9512,-4.9512,-4.9512,-4.9757,-4.9955,-5.0006,-5.0271,0.0,0.0,0.0,0.0,0.0,0.0,0.0,0.0,0.0,0.0,0.0,0.0,0.0,0.0,0.0,0.0,0.0,0.0,0.0,0.0,0.0,0.0,0.0,0.0,0.0,0.0,0.0,0.0,0.0,0.0,0.0,0.0,0.0,0.0,0.0,0.0,0.0,0.0,0.0,0.0,0.0,0.0,0.0,0.0,0.0,0.0,0.0,0.0,0.0,0.0,0.0,0.0,0.0,0.0,0.0,0.0,0.0,0.0,0.0,0.0,-5.1938,0.0,0.0,0.0,0.0,0.0,0.0,0.0,0.0,0.0,0.0,0.0,0.0,0.0,0.0,0.0,0.0,0.0,0.0,0.0,0.0,0.0,0.0,0.0,0.0,0.0,0.0,0.0,0.0,0.0,0.0,0.0,0.0,0.0,0.0,0.0,0.0,0.0,0.0,0.0,0.0,-4.9271,-4.924,-4.924,-4.924,-4.9287,-4.9299,-4.9299,-4.9468,-4.957,-4.9613,-4.9771,0.0,0.0,0.0,0.0,0.0,0.0,0.0,0.0,0.0,0.0,0.0,0.0,0.0,0.0,0.0,0.0,0.0,0.0,0.0,0.0,0.0,0.0,0.0,0.0,0.0,0.0,0.0,0.0,0.0,0.0,0.0,0.0,0.0,0.0,0.0,0.0,0.0,0.0,0.0,0.0,0.0,0.0,0.0,0.0,0.0,0.0,0.0,0.0,0.0,0.0,0.0,0.0,0.0,-4.9711,-4.9653,-4.967,-4.9769,-4.9827,-4.9855,-5.0497,-5.1166,-5.1736,-5.1853,0.0,0.0,0.0,0.0,0.0,0.0,0.0,0.0,0.0,0.0,0.0,0.0,0.0,0.0,0.0,0.0,0.0,0.0,0.0,0.0,0.0,0.0,0.0,0.0,-4.6993,-4.6551,-4.6741,0.0,0.0,0.0,0.0,0.0,0.0,0.0,0.0,0.0,0.0,0.0,-4.9001,-4.8984,-4.8984,-4.8984,-4.9048,-4.9078,-4.9078,-4.9126,-4.9158,-4.9158,-4.9221,-4.9252,0.0,0.0,0.0,0.0,0.0,0.0,0.0,0.0,0.0,0.0,0.0,0.0,0.0,0.0,0.0,0.0,0.0,0.0,0.0,0.0,0.0,0.0,0.0,0.0,0.0,0.0,0.0,0.0,0.0,0.0,0.0,0.0,-5.1335,-4.9449,0.0,0.0,0.0,0.0,0.0,0.0,0.0,0.0,0.0,0.0,0.0,0.0,0.0,-4.9304,-4.9861,-4.8793,-4.8528,-4.905,-4.8497,-4.8243,-4.8243,-4.8275,-4.856,-4.905,-4.9141,0.0,-5.0279,-5.0307,0.0,0.0,0.0,0.0,0.0,0.0,0.0,0.0,0.0,0.0,0.0,0.0,0.0,0.0,0.0,0.0,0.0,0.0,0.0,0.0,0.0,0.0,-4.7515,-4.683,-4.6576,-4.6325,0.0,-4.6408,-4.7292,-4.7575,-4.8235,0.0,0.0,0.0,0.0,0.0,0.0,0.0,-4.8192,-4.8172,-4.8172,-4.8172,-4.8173,-4.8173,-4.8173,-4.844,-4.8603,-4.8603,-4.8878,-4.9094,-4.9211,-4.9262,0.0,0.0,0.0,0.0,0.0,0.0,0.0,0.0,0.0,0.0,0.0,0.0,0.0,0.0,0.0,0.0,0.0,0.0,0.0,0.0,0.0,0.0,0.0,0.0,0.0,0.0,0.0,0.0,0.0,-5.1924,-5.087,-4.9198,-4.9212,-4.9273,0.0,0.0,0.0,0.0,0.0,0.0,0.0,0.0,0.0,-4.8386,-4.8386,-4.8528,-4.8793,-4.826,-4.813,-4.8386,-4.8115,-4.8001,-4.8001,-4.8001,-4.813,-4.837,-4.7952,-4.7953,-4.8382,-4.9916,-5.0505,-5.0502,0.0,0.0,0.0,0.0,-5.0507,-5.0421,-4.9669,-4.9438,-4.9347,-4.8894,0.0,0.0,0.0,0.0,0.0,0.0,0.0,0.0,0.0,0.0,-4.683,-4.6015,-4.549,-4.5291,-4.5852,-4.6048,-4.6273,0.0,-4.7662,-4.8073,-4.7762,0.0,0.0,0.0,0.0,-4.8111,-4.7968,-4.7927,-4.7927,-4.7927,-4.797,-4.7992,-4.7992,-4.8134,-4.8212,-4.8212,-4.8365,-4.8458,-4.8513,-4.871,-4.883,0.0,0.0,0.0,0.0,0.0,0.0,0.0,0.0,0.0,0.0,0.0,0.0,0.0,0.0,0.0,0.0,0.0,0.0,0.0,0.0,0.0,0.0,0.0,0.0,0.0,0.0,0.0,0.0,-5.0896,-5.0236,-4.9137,-4.897,-4.8956,0.0,0.0,0.0,0.0,0.0,0.0,-4.8001,-4.8082,-4.8115,-4.8001,-4.8001,-4.8001,-4.8001,-4.8001,-4.8001,-4.8001,-4.8001,-4.8001,-4.8001,-4.8001,-4.8001,-4.7968,-4.7421,-4.7173,-4.7301,-4.8982,-4.9425,-4.9117,-4.9824,-4.9847,-4.95,-4.9527,-4.9546,-4.9438,-4.8728,-4.8479,-4.8388,-4.7774,-4.7615,-4.7615,-4.7636,0.0,0.0,0.0,0.0,-4.7265,-4.6667,-4.6359,-4.5997,-4.5182,-4.453,-4.4476,-4.5888,-4.5725,-4.5599,0.0,-4.7301,-4.7717,-4.7717,0.0,0.0,0.0,0.0,-4.784,-4.784,-4.784,-4.784,-4.784,-4.7886,-4.7911,-4.7911,-4.7911,-4.7911,-4.7911,-4.7911,-4.7949,-4.797,-4.8212,-4.8346,-4.8365,0.0,0.0,0.0,0.0,0.0,0.0,0.0,0.0,0.0,0.0,0.0,0.0,0.0,0.0,0.0,0.0,0.0,0.0,0.0,0.0,0.0,0.0,0.0,0.0,0.0,0.0,0.0,0.0,0.0,-4.9018,-4.8894,0.0,0.0,0.0,0.0,-4.8227,-4.8082,-4.8001,-4.8001,-4.8001,-4.8001,-4.8001,-4.8001,-4.8001,-4.8001,-4.8001,-4.8001,-4.8001,-4.8001,-4.8001,-4.8001,-4.8001,-4.8001,-4.8001,-4.7968,-4.7934,-4.7835,-4.657,-4.6441,-4.7102,-4.7734,-4.8355,-4.8921,-4.8652,-4.856,-4.8452,-4.7643,-4.7395,-4.7356,-4.732,-4.7302,-4.7323,-4.7468,-4.7511,0.0,0.0,-4.7156,-4.6558,-4.6504,-4.5924,-4.5164,-4.4349,-4.4132,-4.4331,-4.5182,-4.5327,-4.5761,0.0,-4.7681,-4.7717,-4.7717,0.0,-4.7717,-4.7717,-4.7717,-4.7717,-4.7717,-4.7717,-4.7717,-4.7717,-4.7699,-4.7717,-4.7717,-4.7717,-4.7717,-4.7717,-4.7717,-4.778,-4.7902,-4.7922,-4.7947,-4.8014,-4.8034,0.0,0.0,0.0,0.0,0.0,0.0,0.0,0.0,0.0,0.0,0.0,0.0,0.0,0.0,0.0,0.0,0.0,0.0,0.0,0.0,0.0,0.0,0.0,0.0,0.0,0.0,0.0,0.0,-4.8931,-4.8721,0.0,-4.8595,-4.8356,-4.8195,-4.8195,-4.8099,-4.8001,-4.8001,-4.8001,-4.8001,-4.8001,-4.8001,-4.8001,-4.8001,-4.8001,-4.8001,-4.8001,-4.8001,-4.8001,-4.8001,-4.8001,-4.8001,-4.7968,-4.7504,-4.7289,-4.7206,-4.6195,-4.6179,-4.6779,-4.6918,-4.6794,-4.6585,-4.6558,-4.6569,-4.6534,-4.6326,-4.6286,-4.6286,-4.6286,-4.6286,-4.6286,-4.6334,-4.6334,-4.6358,-4.6406,-4.6212,-4.5876,-4.5341,-4.5075,-4.4567,-4.3191,-4.2935,-4.3296,-4.4357,-4.4661,-4.5293,-4.7204,-4.7636,-4.7717,-4.7717,-4.7717,-4.7717,-4.7717,-4.7717,-4.7717,-4.7717,-4.7717,-4.7717,-4.7717,-4.7717,-4.7717,-4.7717,-4.7717,-4.7717,-4.7717,-4.7717,-4.7482,-4.7016,-4.7508,-4.7526,-4.7044,-4.7552,-4.7824,0.0,0.0,0.0,0.0,0.0,0.0,0.0,0.0,0.0,0.0,0.0,0.0,0.0,0.0,0.0,0.0,0.0,0.0,0.0,0.0,0.0,0.0,0.0,0.0,0.0,0.0,-4.9342,-4.8868,-4.8627,-4.8483,-4.842,-4.8227,-4.813,-4.813,-4.8066,-4.7886,-4.7588,-4.7605,-4.7488,-4.7252,-4.7202,-4.7354,-4.7588,-4.7605,-4.7737,-4.8001,-4.8001,-4.8001,-4.8001,-4.8001,-4.8001,-4.7968,-4.7487,-4.7272,-4.7206,-4.6477,-4.6396,-4.6754,-4.6618,-4.6073,-4.5432,-4.5682,-4.5658,-4.5459,-4.552,-4.5563,-4.5563,-4.5563,-4.5563,-4.5571,-4.5622,-4.5622,-4.5622,-4.5691,-4.5482,-4.5169,-4.464,-4.4359,-4.3955,-4.2832,-4.2451,-4.2632,-4.3698,-4.3989,-4.4536,-4.6203,-4.7144,-4.7717,-4.7717,-4.7717,-4.7717,-4.7717,-4.7717,-4.7717,-4.7717,-4.7717,-4.7636,-4.745,-4.7428,-4.7363,-4.7191,-4.709,-4.7032,-4.7032,-4.678,-4.6504,-4.6124,-4.6449,-4.6612,-4.6504,-4.6865,-4.6845,-4.6424,0.0,0.0,0.0,0.0,0.0,0.0,0.0,0.0,0.0,0.0,0.0,0.0,0.0,0.0,0.0,0.0,0.0,0.0,0.0,0.0,0.0,0.0,0.0,-4.9813,-4.9287,-4.8707,-4.8707,-4.8532,-4.8339,-4.8163,-4.8017,-4.7935,-4.7935,-4.7935,-4.7588,-4.6811,-4.6777,-4.6429,-4.5733,-4.5733,-4.6092,-4.6777,-4.6811,-4.722,-4.8001,-4.8001,-4.8001,-4.8001,-4.8001,-4.8001,-4.8001,-4.8001,-4.8001,-4.7934,-4.7222,-4.6924,-4.6922,-4.6723,-4.6237,-4.5652,-4.6176,-4.5878,-4.525,-4.525,-4.525,-4.525,-4.525,-4.525,-4.5276,-4.5407,-4.5459,-4.5485,-4.5614,-4.5058,-4.446,-4.446,-4.3905,-4.3308,-4.3291,-4.2725,-4.2408,-4.3179,-4.3343,-4.3593,-4.4418,-4.6224,-4.76,-4.7636,-4.7636,-4.7636,-4.7636,-4.7636,0.0,-4.7636,-4.7636,-4.7468,-4.6954,-4.6886,-4.6683,-4.6189,-4.5881,-4.5704,-4.5668,-4.4995,-4.4799,-4.5194,-4.4806,-4.5161,-4.6409,-4.5975,-4.5143,-4.3921,0.0,0.0,0.0,0.0,0.0,0.0,0.0,0.0,0.0,0.0,0.0,0.0,0.0,0.0,0.0,0.0,0.0,0.0,0.0,0.0,0.0,-4.8164,-4.7496,-4.8181,-4.7509,-4.6932,-4.6932,-4.6657,-4.6499,-4.6585,-4.6445,-4.634,-4.634,-4.634,-4.6234,-4.6005,-4.6005,-4.5913,-4.5697,-4.6218,-4.6604,-4.6811,-4.7371,-4.777,-4.8001,-4.8001,-4.8001,-4.8001,-4.8001,-4.8001,-4.8001,-4.8001,-4.8001,-4.7984,-4.7785,-4.7703,-4.7602,-4.6466,-4.5927,-4.5693,-4.5306,-4.4696,-4.4076,-4.4076,-4.4076,-4.4076,-4.4076,-4.4076,-4.4076,-4.4117,-4.4117,-4.4117,-4.4174,-4.4023,-4.3843,-4.3843,-4.3794,-4.3564,-4.2881,-4.2274,-4.1972,-4.25,-4.2244,-4.2446,-4.4116,-4.4994,-4.5664,-4.6294,-4.6382,-4.6382,-4.6382,-4.6382,0.0,-4.6382,-4.6478,-4.6637,-4.6886,-4.6548,-4.643,-4.666,-4.6259,-4.5746,-4.5223,-4.4994,-4.4445,-4.3452,-4.3837,-4.4243,-4.4609,-4.4478,-4.4518,0.0,0.0,0.0,0.0,0.0,0.0,0.0,0.0,0.0,0.0,0.0,0.0,0.0,0.0,0.0,0.0,0.0,0.0,0.0,0.0,0.0,0.0,-4.6559,-4.5784,-4.5933,-4.6011,-4.6115,-4.6186,-4.5953,-4.5789,-4.5877,-4.5769,-4.5697,-4.5697,-4.5697,-4.5551,-4.5221,-4.5184,-4.5036,-4.4699,-4.5116,-4.552,-4.5845,-4.6288,-4.6878,-4.7488,-4.7488,-4.7671,-4.8001,-4.8001,-4.8001,-4.8001,-4.8001,-4.8001,-4.8001,-4.8001,-4.8001,0.0,0.0,0.0,0.0,0.0,-4.4241,-4.3598,-4.3598,-4.3598,-4.3598,-4.3598,-4.3598,-4.3598,-4.3598,-4.3598,-4.3598,-4.3598,-4.3598,-4.3598,-4.3598,-4.3687,-4.3634,-4.3081,-4.2244,-4.1649,-4.1864,-4.1439,-4.1338,-4.2499,-4.3338,0.0,-4.4515,-4.5278,-4.5817,-4.5817,-4.5817,-4.5817,-4.5817,-4.5875,-4.5992,-4.6123,-4.5868,-4.5742,-4.591,-4.5521,0.0,0.0,0.0,-4.3166,-4.1945,-4.2875,0.0,0.0,0.0,-4.3506,-4.34,0.0,0.0,0.0,-4.5434,-4.617,0.0,0.0,0.0,0.0,0.0,0.0,0.0,0.0,0.0,0.0,0.0,0.0,0.0,0.0,0.0,0.0,-4.4818,-4.3871,-4.3729,-4.4812,-4.5685,-4.5901,-4.5722,-4.5577,-4.5478,-4.5442,-4.5442,-4.5442,-4.5442,-4.511,-4.4396,0.0,0.0,0.0,0.0,-4.3771,-4.4472,-4.4586,-4.5374,-4.6811,-4.6811,-4.722,-4.8001,-4.8001,-4.8001,-4.8001,-4.8001,-4.8001,-4.8001,-4.8001,-4.8001,-4.7984,-4.7918,-4.7421,-4.6609,-4.5202,-4.4241,-4.3598,-4.3598,0.0,0.0,-4.3598,-4.3598,-4.3598,-4.3598,-4.3598,-4.3598,-4.3598,-4.3598,-4.3598,-4.3598,-4.3598,-4.3598,-4.3598,-4.2456,-4.1409,-4.1409,-4.0812,-4.031,-4.0393,-4.1566,-4.2565,-4.262,-4.4238,-4.5511,-4.5511,-4.5511,-4.5511,-4.5511,-4.5511,-4.5407,-4.5108,0.0,0.0,-4.4665,-4.4338,-4.3795,-4.3082,-4.2265,-4.1481,-4.0741,-4.1888,-4.1981,-4.0885,-4.2287,-4.2483,-4.1431,-4.2074,-4.2784,-4.3527,-4.5138,-4.593,0.0,0.0,0.0,0.0,0.0,0.0,0.0,0.0,0.0,0.0,0.0,0.0,0.0,0.0,0.0,-4.5065,-4.4122,-4.3503,-4.369,-4.3762,-4.3888,-4.4135,-4.3966,-4.3888,-4.4073,-4.3903,-4.3771,-4.3771,-4.3771,-4.3708,-4.3551,-4.3512,-4.3448,-4.329,-4.3927,-4.4335,-4.451,-4.5147,-4.5897,-4.6811,0.0,0.0,-4.8001,-4.8001,-4.8001,-4.8001,-4.8001,-4.8001,-4.8001,-4.8001,-4.8001,-4.7934,-4.7355,-4.6659,-4.5897,-4.5003,-4.4241,-4.3598,-4.3598,-4.3598,-4.3598,-4.3598,-4.3598,-4.3598,-4.3598,-4.3598,0.0,-4.3598,-4.3598,-4.3598,-4.3598,-4.3598,-4.3598,-4.3598,-4.2456,-4.1409,-4.1409,-4.0398,-3.9696,-4.0293,-4.0652,-4.1034,-4.1569,-4.3108,-4.4253,-4.4253,-4.4253,-4.4253,-4.4253,-4.435,-4.4558,-4.491,-4.4558,-4.4491,-4.4964,-4.4561,-4.3988,-4.3369,-4.1967,-4.0883,-4.0263,-4.0943,-4.1265,-4.1138,-4.2013,-4.2577,-4.2823,-4.2957,-4.3356,-4.3977,-4.4386,-4.4888,0.0,0.0,0.0,0.0,0.0,0.0,0.0,0.0,0.0,0.0,0.0,-4.693,-4.6252,0.0,-4.4764,-4.4118,-4.3594,-4.3344,-4.3463,-4.3384,-4.3384,-4.369,-4.3463,-4.3344,-4.3503,-4.3384,-4.329,-4.329,-4.329,-4.329,-4.329,-4.329,-4.329,-4.329,-4.3708,-4.3888,-4.3888,-4.4297,-4.4871,-4.5665,-4.5665,-4.6237,-4.7404,-4.7404,-4.7638,-4.8001,-4.8001,-4.8001,-4.7968,-4.7603,-4.7454,-4.7338,-4.6228,-4.5798,-4.5698,-4.4953,-4.4241,-4.3598,-4.3598,-4.3598,-4.3598,-4.3598,-4.3598,-4.3598,-4.3598,-4.3598,-4.3598,-4.3598,-4.3598,-4.3598,-4.3598,-4.3598,-4.3598,-4.3598,-4.2456,-4.1409,-4.1409,-4.0282,-3.9415,-3.9779,-4.016,-4.0525,-4.0829,-4.1863,-4.2783,-4.3149,-4.3514,-4.3763,-4.3763,-4.3805,-4.3993,-4.435,-4.4155,-4.4167,-4.4586,-4.4013,-4.3519,-4.3233,-4.1749,-4.0774,-4.0456,-4.074,-4.0942,-4.0995,-4.2088,-4.2801,-4.3105,-4.3491,-4.3803,-4.4097,-4.413,-4.4351,0.0,0.0,0.0,0.0,0.0,0.0,0.0,0.0,-4.6429,-4.701,-4.6696,-4.6082,-4.5259,-4.4661,-4.4092,-4.3409,-4.329,-4.329,-4.329,-4.329,-4.3384,-4.3596,-4.3423,-4.329,-4.329,-4.329,-4.329,-4.329,-4.329,-4.329,-4.329,-4.329,-4.329,-4.329,-4.329,-4.329,-4.329,-4.329,-4.3693,-4.451,-4.451,-4.5243,-4.6604,-4.6742,-4.7152,-4.777,-4.777,-4.7785,-4.7736,-4.699,-4.6676,-4.6543,-4.5202,-4.5052,-4.5483,-4.4754,-4.4125,-4.3598,-4.3598,-4.3598,-4.3598,-4.3598,-4.3598,-4.3598,-4.3598,-4.3598,-4.3598,-4.3598,-4.3598,-4.3598,-4.3598,-4.3598,-4.3598,-4.3598,-4.2456,-4.1409,-4.1409,-4.0282,-3.9299,-3.9299,-3.9779,-4.0194,-4.0194,-4.0746,-4.1508,-4.2357,-4.3002,-4.3433,-4.3582,-4.3598,-4.3658,-4.3822,-4.3839,-4.3881,-4.4056,-4.3545,-4.3143,-4.302,-4.1737,-4.0923,-4.0799,-4.0756,-4.0756,-4.0799,-4.2239,-4.2992,-4.2964,-4.3717,-4.4039,-4.401,-4.4039,-4.4085,-4.565,-4.5552,-4.5492,-4.5451,-4.5451,-4.56,0.0,0.0,-4.6309,-4.6384,-4.6324,-4.5891,-4.4661,-4.4362,-4.4092,-4.3409,-4.329,-4.329,-4.329,-4.329,-4.329,-4.3329,-4.3329,-4.329,-4.329,-4.329,-4.329,-4.329,-4.329,-4.329,-4.329,-4.329,-4.329,-4.329,-4.329,-4.329,-4.329,-4.329,-4.3693,-4.451,-4.451,-4.4962,-4.5841,-4.6499,-4.6846,-4.6932,-4.7012,-4.7023,-4.6957,-4.6228,-4.5914,-4.5831,-4.5003,-4.4738,-4.4721,-4.4009,-4.3664,-4.3598,-4.3598,-4.3598,-4.3598,-4.3598,-4.3598,-4.3598,-4.3598,-4.3598,-4.3598,-4.3598,-4.3598,-4.3598,-4.3598,-4.3598,-4.3598,-4.3598,-4.2456,-4.1409,-4.1409,-4.0282,-3.9299,-3.9299,-3.9365,-3.9431,-3.9431,-4.0044,-4.0961,-4.2291,-4.2555,-4.2853,-4.3515,-4.3598,-4.3598,-4.3628,-4.3628,-4.3704,-4.3898,-4.3943,-4.3695,-4.3026,-4.2111,-4.1376,-4.0816,-4.0675,-4.0675,-4.0799,-4.2239,-4.2936,-4.281,-4.356,-4.3822,-4.3658,-4.3822,-4.3969,-4.4616,-4.5005,-4.5214,-4.4825,-4.4721,-4.4796,-4.508,-4.5155,-4.5259,-4.5648,-4.5424,-4.4934,-4.4421,-4.4003,-4.3618,0.0,-4.329,-4.329,-4.329,-4.329,-4.329,-4.329,-4.329,-4.329,-4.329,-4.329,-4.329,-4.329,-4.329,-4.329,-4.329,-4.329,-4.329,-4.329,-4.329,-4.329,-4.329,-4.329,-4.3472,-4.381,-4.381,-4.422,-4.4999,-4.5316,-4.548,-4.5594,-4.6023,-4.6012,-4.5668,-4.5294,-4.5152,-4.5086,-4.4357,-4.4075,-4.4026,-4.3698,-4.3598,-4.3598,-4.3598,-4.3598,-4.3598,-4.3598,-4.3598,-4.3598,-4.3598,-4.3598,-4.3598,-4.3598,-4.3598,-4.3598,-4.3598,-4.3598,-4.3482,-4.3052,-4.2142,-4.1309,-4.0895,-4.0028,-3.9299,-3.9299,-3.9299,-3.9299,-3.9299,-3.9564,-4.0111,-4.111,-4.1988,-4.2605,-4.292,-4.3317,-4.3598,-4.3598,-4.3598,-4.3628,-4.3734,-4.3776,-4.349,-4.2741,-4.1965,-4.125,-4.059,-4.0502,-4.0502,-4.0556,-4.1555,-4.2043,-4.1974,-4.2721,-4.3041,-4.2969,-4.3505,-4.3531,-4.3873,-4.4392,-4.4646,-4.4167,-4.4007,-4.4092,-4.4272,-4.4317,-4.4451,-4.493,-4.4646,-4.4257,-4.4077,-4.3618,-4.329,-4.329,-4.329,-4.329,-4.329,-4.329,-4.329,-4.329,-4.329,-4.329,-4.329,-4.329,-4.329,-4.329,-4.329,-4.329,-4.329,-4.329,-4.329,-4.329,-4.329,-4.329,-4.329,-4.329,-4.329,-4.329,-4.329,-4.3591,-4.4182,-4.4396,-4.4588,-4.4725,-4.4989,-4.4746,-4.4104,-4.4067,-4.4021,-4.4002,-4.36,-4.3522,-4.3598,-4.3568,-4.3568,-4.3598,-4.3598,-4.3598,-4.3598,-4.3598,-4.3598,-4.3598,-4.3598,-4.3598,-4.3598,-4.3598,-4.3598,-4.3598,-4.3598,-4.3598,-4.34,-4.2671,-4.1926,-4.1226,-4.0558,-3.9829,-3.9299,-3.9299,-3.9299,-3.9299,-3.9299,-3.9299,-3.9481,-4.0028,-4.1143,-4.2071,-4.244,-4.3135,-4.3598,-4.3598,-4.3598,-4.3598,-4.3598,-4.3598,-4.3284,-4.2539,-4.1794,-4.111,-4.0442,-4.021,-4.0111,-4.0111,-4.0763,-4.1127,-4.1127,-4.1856,-4.2191,-4.2208,-4.2738,-4.2704,-4.3319,-4.3349,-4.3349,-4.3334,-4.3319,-4.3484,-4.4167,-4.4317,-4.4317,-4.4347,-4.4332,-4.4122,-4.3439,-4.3305,-4.329,-4.329,-4.329,-4.329,-4.329,-4.329,-4.329,-4.329,-4.329,-4.329,0.0,-4.329,-4.329,-4.329,-4.329,-4.329,-4.329,-4.329,-4.329,-4.329,-4.329,-4.329,-4.329,-4.329,-4.329,-4.329,-4.329,-4.3329,-4.3369,-4.4143,-4.4588,-4.4658,-4.3978,-4.3163,-4.237,-4.2365,-4.2381,-4.2412,-4.2912,-4.3295,-4.3582,-4.3432,-4.3509,-4.3598,-4.3598,-4.3598,-4.3598,-4.3598,-4.3598,-4.3598,-4.3598,-4.3598,-4.3598,-4.3598,-4.3598,-4.3598,-4.3598,-4.3598,-4.34,-4.2671,-4.1926,-4.1226,-4.0558,-3.9829,-3.9299,-3.9299,-3.9299,-3.9299,-3.9299,-3.9299,-3.9315,-3.9332,-3.9978,-4.0945,-4.2307,-4.3135,-4.3598,-4.3598,-4.3598,-4.3598,-4.3598,-4.3598,-4.3284,-4.2539,-4.1794,-4.111,-4.0442,-3.9713,-3.9332,-3.9332,-4.0061,-4.0442,-4.0442,-4.111,-4.1413,-4.1413,-4.1446,-4.1458,-4.329,-4.329,-4.329,-4.329,-4.329,-4.3349,-4.3574,-4.3618,-4.3618,-4.3618,-4.3618,-4.3559,-4.3334,-4.329,-4.329,-4.329,-4.329,-4.329,-4.329,-4.329,-4.329,-4.329,-4.329,0.0,0.0,0.0,0.0,-4.329,-4.329,-4.329,-4.329,-4.329,-4.329,-4.329,-4.329,-4.329,-4.329,-4.329,-4.329,-4.329,-4.329,-4.329,-4.329,-4.3591,-4.3281,-4.2517,-4.2731,-4.2081,-4.0943,-4.139,-4.1788,-4.2109,-4.2316,-4.2756,-4.3265,-4.3372,-4.3342,-4.3295,-4.3522,-4.3598,-4.3598,-4.3598,-4.3598,-4.3598,-4.3598,-4.3598,-4.3598,-4.3598,-4.3598,-4.3598,-4.3598,-4.3598,-4.3284,-4.2042,-4.1591,-4.1094,-3.9928,-3.9481,-3.9299,-3.9299,-3.9299,-3.9299,-3.9299,-3.9299,-3.9299,-3.9299,-3.9928,-4.0895,-4.2307,-4.2704,-4.3052,-4.3549,-4.3598,-4.3598,-4.3598,-4.3598,-4.3069,-4.1856,-4.1529,-4.0878,-3.973,-3.9431,-3.9299,-3.9299,-3.9547,-3.968,-3.968,-4.0382,-4.0729,-4.0746,-4.1193,-4.116,-4.329,-4.329,-4.329,-4.329,-4.329,-4.329,-4.329,-4.329,-4.329,-4.329,-4.329,-4.329,-4.329,-4.329,-4.329,-4.329,-4.329,-4.329,-4.329,-4.329,-4.329,-4.329,-4.329,-4.329,0.0,0.0,0.0,-4.329,-4.329,-4.329,-4.329,-4.329,-4.329,-4.329,-4.329,-4.329,-4.329,-4.329,-4.329,-4.329,-4.329,-4.329,-4.329,-4.329,-4.2611,-4.1422,-4.1864,-4.1164,-3.9743,-4.0466,-4.0912,-4.1164,-4.1363,-4.1949,-4.2725,-4.2803,-4.2943,-4.3143,-4.3432,-4.3539,-4.3539,-4.3539,-4.3568,-4.3598,-4.3598,-4.3598,-4.3598,-4.3598,-4.3598,-4.3598,-4.3598,-4.3598,-4.3218,-4.1728,-4.1409,-4.1011,-3.9613,-3.9299,-3.9299,-3.9299,-3.9299,-3.9299,-3.9299,-3.9299,-3.9299,-3.9299,-3.9713,-4.0442,-4.1607,-4.2204,-4.2671,-4.3151,-4.3433,-4.3598,-4.3598,-4.3598,-4.3069,-4.186,-4.1558,-4.0895,-3.9746,-3.9448,-3.9299,-3.9299,-3.9299,-3.9299,-3.9299,-3.9779,-4.0011,-4.0028,-4.0448,-4.0415,-4.329,-4.329,-4.329,-4.329,-4.329,-4.329,-4.329,-4.329,-4.329,-4.329,-4.329,-4.329,-4.329,-4.329,-4.329,-4.329,-4.329,-4.329,-4.329,-4.329,-4.329,0.0,0.0,0.0,0.0,0.0,0.0,-4.329,0.0,-4.329,-4.329,-4.329,-4.329,-4.329,-4.329,-4.329,-4.329,-4.329,-4.329,-4.329,-4.329,-4.329,-4.329,-4.329,-4.2611,-4.1422,-4.1422,-4.042,-3.8855,-3.955,-3.9733,-3.9647,-4.0139,-4.0979,-4.1901,-4.1771,-4.2253,-4.3005,-4.3251,-4.3342,-4.3372,-4.3372,-4.3462,-4.3568,-4.3568,-4.3568,-4.3598,-4.3598,-4.3598,-4.3598,-4.3598,-4.3598,-4.3234,-4.1744,-4.1397,-4.1028,-3.9587,-3.9272,-3.9272,-3.9272,-3.9299,-3.9299,-3.9299,-3.9299,-3.9299,-3.9299,-3.9299,-3.9564,-4.031,-4.1574,-4.2406,-4.2473,-4.3118,-4.3549,-4.3598,-4.3598,-4.3284,-4.2539,-4.1827,-4.1143,-4.0442,-3.973,-3.9332,-3.9299,-3.9299,-3.9299,-3.9299,-3.9299,-3.9299,-3.9299,-3.9299,-3.9299,-4.329,-4.329,-4.329,-4.329,-4.329,-4.329,-4.329,-4.329,-4.329,-4.329,-4.329,-4.329,-4.329,-4.329,-4.329,-4.329,-4.329,0.0,-4.329,-4.329,0.0,-4.329,0.0,-4.329,-4.329,-4.329,0.0,0.0,-4.329,-4.329,-4.329,-4.329,-4.329,-4.329,-4.329,-4.329,-4.329,-4.329,-4.329,-4.329,-4.329,-4.329,-4.329,-4.329,-4.2611,-4.1422,-4.1422,-4.042,-3.8819,-3.8987,-3.919,-3.9376,-3.952,-4.0069,-4.0811,-4.0927,-4.1028,-4.1196,-4.1949,-4.2648,-4.3174,-4.3174,-4.3204,-4.3235,-4.3235,-4.3235,-4.3265,-4.3402,-4.3432,-4.3462,-4.3568,-4.3598,-4.3188,-4.1613,-4.1324,-4.0955,-3.9281,-3.9013,-3.9094,-3.9094,-3.9218,-3.9299,-3.9299,-3.9299,-3.9299,-3.9299,-3.9299,-3.9564,-4.031,-4.0696,-4.1342,-4.2373,-4.2655,-4.2986,-4.3549,-4.3598,-4.3284,-4.2539,-4.2307,-4.1674,-4.0459,-4.0227,-3.9862,-3.9315,-3.9299,-3.9299,-3.9299,-3.9299,-3.9299,-3.9299,-3.9299,-3.9299,-4.329,-4.329,-4.329,-4.329,-4.329,-4.329,-4.329,-4.329,-4.329,-4.329,-4.329,-4.329,-4.329,-4.329,-4.329,0.0,0.0,0.0,-4.329,-4.329,-4.329,0.0,-4.329,0.0,-4.329,-4.329,-4.329,0.0,-4.329,-4.329,-4.329,-4.329,-4.329,-4.329,-4.329,-4.329,-4.329,-4.329,-4.329,-4.329,-4.329,-4.329,-4.329,-4.3045,-4.2342,-4.1369,0.0,-4.0129,-3.8782,-3.8782,-3.8819,-3.8826,-3.8826,-3.9284,-3.9929,-4.0034,-4.0209,-4.0485,-4.0995,-4.1509,-4.2029,-4.2758,-4.3052,-4.3113,-4.3113,-4.3113,-4.3113,-4.3251,-4.3342,-4.3402,-4.3372,-4.3432,-4.3099,-4.1486,-4.1169,-4.0774,-3.9144,-3.886,-3.8914,-3.8914,-3.8996,-3.9067,-3.9067,-3.9067,-3.9067,-3.9067,-3.9067,-3.9242,-3.9709,-4.0155,-4.0707,-4.1491,-4.2137,-4.2655,-4.3069,-4.34,-4.3281,-4.2583,-4.2508,-4.1993,-4.0927,-4.0854,-4.0498,-3.9812,-3.9779,-3.963,-3.9299,-3.8996,-3.9023,-3.9299,-3.8996,-3.9023,-4.329,-4.329,-4.329,-4.329,-4.329,-4.329,-4.329,-4.329,-4.329,-4.329,-4.329,-4.329,-4.329,-4.329,-4.329,-4.329,0.0,-4.329,-4.329,-4.329,-4.329,-4.329,-4.329,-4.329,-4.329,-4.329,-4.329,-4.329,-4.329,-4.329,-4.329,-4.329,-4.329,-4.329,-4.329,-4.329,-4.329,-4.329,-4.329,-4.329,-4.32,-4.317,-4.314,-4.256,-4.1916,-4.122,-4.0651,-3.9787,-3.8782,-3.8782,-3.856,-3.8202,-3.8202,-3.8583,-3.9139,-3.9139,-3.9555,-4.0104,-4.0209,-4.0243,-4.0519,-4.2174,-4.2805,-4.2912,-4.3005,-4.3052,-4.3052,-4.3082,-4.319,-4.3312,-4.3143,-4.3235,-4.2966,-4.1488,-4.1049,-4.0607,-3.9191,-3.8815,-3.8777,-3.8777,-3.8805,-3.8805,-3.8805,-3.8805,-3.8805,-3.8805,-3.8805,-3.8832,-3.8969,-3.9709,-4.0266,-4.0393,-4.1418,-4.2138,-4.2237,-4.2825,-4.2949,-4.2377,-4.2351,-4.2067,-4.1378,-4.1207,-4.0807,-4.0143,-4.0045,-3.9737,-3.9175,-3.8507,-3.8535,-3.9148,-3.8562,-3.8618,-4.329,-4.329,-4.329,-4.329,-4.329,-4.329,-4.329,-4.329,-4.329,-4.329,-4.329,-4.329,-4.329,-4.329,-4.329,-4.329,-4.329,-4.329,-4.329,-4.329,-4.329,0.0,-4.329,-4.329,-4.329,-4.329,0.0,0.0,-4.329,-4.329,-4.329,-4.329,-4.329,-4.329,-4.329,-4.329,-4.329,-4.329,-4.329,-4.329,-4.2776,-4.2575,-4.2545,-4.1886,-4.119,-4.0561,-4.0442,0.0,-3.8782,-3.8782,-3.856,-3.8202,-3.8202,-3.8277,-3.8375,-3.8375,-3.8472,-3.8694,-3.9284,-3.9484,-3.9733,-4.1245,-4.1754,-4.1884,-4.2507,-4.2696,-4.2728,-4.2883,-4.2961,-4.3007,-4.3082,-4.3143,-4.29,-4.1885,-4.1321,-4.0696,-3.9605,-3.8983,-3.8644,-3.8644,-3.8738,-3.8805,-3.8805,-3.8805,-3.8805,-3.8805,-3.8805,-3.8805,-3.8832,-3.9084,-3.955,-4.0315,-4.0111,-4.0183,-4.0801,-4.0966,-4.0976,-4.0849,-4.1358,-4.1342,-4.0626,-4.0054,-3.9431,-3.8762,-3.8216,-3.811,-3.8463,-3.7867,-3.7851,-3.8463,-3.8351,-3.8379,-4.329,-4.329,-4.329,-4.329,-4.329,-4.329,-4.329,-4.329,-4.329,-4.329,-4.329,-4.329,-4.329,-4.329,-4.329,-4.329,-4.329,-4.329,-4.329,-4.329,-4.329,-4.329,-4.329,-4.329,-4.329,-4.329,-4.3155,-4.2865,-4.2821,-4.297,-4.3275,-4.329,-4.329,-4.329,-4.329,-4.329,-4.329,-4.3,-4.2821,-4.2821,-4.2162,-4.1886,-4.1871,-4.1175,-4.0696,-4.0382,-4.0038,-3.9475,-3.8782,-3.8782,-3.856,-3.8202,-3.8202,-3.8202,-3.8202,-3.8202,-3.8202,-3.824,-3.862,-3.873,-3.8899,-3.9999,-4.086,-4.1558,-4.1916,-4.2285,-4.2539,-4.2254,-4.2254,-4.2238,-4.1804,-4.1755,-4.1725,-4.1229,-4.0649,-3.9901,-3.8662,-3.8447,-3.8492,-3.8492,-3.856,-3.86,-3.86,-3.86,-3.86,-3.86,-3.86,-3.8628,-3.8683,-3.8455,-3.8513,-3.914,-3.9037,-3.9051,-3.9434,-3.9768,-3.9818,-3.9482,-4.0085,-4.0149,-3.9448,-3.9456,-3.9139,-3.8474,-3.8157,-3.7941,-3.7822,-3.7191,-3.7221,-3.7822,-3.7472,-3.7677,-4.329,-4.329,-4.329,-4.329,-4.329,-4.329,-4.329,-4.329,-4.329,-4.329,-4.329,-4.329,-4.329,-4.329,-4.329,-4.329,-4.329,-4.329,-4.329,-4.329,-4.329,-4.329,-4.329,0.0,-4.3135,-4.3135,0.0,-4.2231,-4.2186,-4.2372,-4.2895,-4.2871,-4.2871,-4.2871,-4.2871,-4.2871,-4.2871,-4.2402,-4.2186,-4.2186,-4.1527,-4.1175,-4.1145,-4.0487,-4.0187,-4.0172,-3.9649,-3.9177,-3.887,-3.8819,-3.8612,-3.824,-3.8202,-3.8202,-3.8202,-3.8202,-3.8202,-3.8202,-3.8202,-3.8202,-3.8315,-3.8863,-3.998,-4.1078,-4.1211,-4.1656,-4.2013,-4.1426,-4.1377,-4.1344,-4.0588,-4.0519,-4.0557,-4.0159,-3.9658,-3.8882,-3.7501,-3.7594,-3.8017,-3.8148,-3.8193,-3.825,-3.8363,-3.8391,-3.8391,-3.8391,-3.8278,-3.8205,-3.8319,-3.7679,-3.7294,-3.7562,-3.7845,-3.8009,-3.8009,-3.8544,-3.8619,-3.8083,-3.8695,-3.8789,-3.8297,-3.8633,-3.8623,-3.8075,-3.7949,-3.7635,-3.7191,-3.6662,-3.6662,-3.7191,-3.6784,-3.7071,-4.329,-4.329,-4.329,-4.329,-4.329,-4.329,-4.329,-4.329,-4.329,-4.329,-4.329,-4.329,-4.329,-4.329,-4.329,-4.329,-4.329,-4.329,-4.329,-4.329,-4.329,-4.329,0.0,0.0,-4.2545,-4.2485,-4.2216,-4.1557,-4.1512,-4.1542,-4.1549,-4.1564,-4.1564,-4.1564,-4.1564,-4.1564,-4.1564,-4.1542,-4.1512,-4.1459,-4.0801,-4.0487,-4.0472,-3.9813,-3.9514,-3.9514,-3.9454,-3.9265,0.0,-3.887,-3.8686,-3.8441,-3.8277,-3.8202,-3.8202,-3.8202,-3.8202,-3.8202,-3.8202,-3.8202,-3.8202,-3.8277,-3.8863,-3.9626,-4.0313,-4.0554,-4.0588,-4.0519,-4.0519,-4.0519,-4.0416,-4.0416,-4.0127,-3.8899,-3.8531,-3.8115,-3.6786,-3.6538,-3.6753,-3.7371,-3.7506,-3.7698,-3.8307,-3.8391,-3.8391,-3.8391,-3.7873,-3.7506,-3.7506,-3.6538,-3.5896,-3.5928,-3.621,-3.6413,-3.6413,-3.6639,-3.6767,-3.67,-3.7259,-3.756,-3.7507,-3.7019,-3.677,-3.6709,-3.6075,-3.6002,-3.6492,-3.643,-3.643,-3.6523,-3.7041,-3.7041,-4.329,-4.329,-4.329,-4.329,-4.329,-4.329,-4.329,-4.329,-4.329,-4.329,-4.329,-4.329,-4.329,-4.329,-4.329,-4.329,-4.329,-4.329,-4.329,-4.329,-4.3155,-4.2791,-4.2746,0.0,0.0,0.0,-4.1542,-4.0846,-4.0427,-4.0202,-4.0202,-4.095,-4.1422,-4.1422,-4.1422,-4.1422,-4.1422,-4.0995,-4.0786,-4.0786,-4.0127,-3.9813,-3.9798,-3.9508,-3.9388,-3.9388,-3.9388,-3.9228,0.0,-3.8819,-3.8612,-3.8315,-3.824,-3.8202,-3.8202,-3.8202,-3.8202,-3.8202,-3.8202,-3.8202,-3.8202,-3.8202,-3.8412,-3.8789,-3.952,-4.0034,-4.0313,-3.9859,-3.9733,-3.9626,-3.9211,-3.9427,-3.94,-3.8057,-3.8088,-3.8008,-3.6685,-3.6408,-3.6477,-3.6738,-3.6799,-3.7027,-3.7682,-3.7815,-3.7815,-3.7815,-3.7565,-3.7252,-3.686,-3.6055,-3.5512,-3.5512,-3.5462,-3.5412,-3.5412,-3.5502,-3.5533,-3.5533,-3.587,-3.6086,-3.6086,-3.5962,-3.5893,-3.5893,-3.5639,-3.5619,-3.5846,-3.5846,-3.5846,-3.5846,-3.6148,-3.6321,-4.329,-4.329,-4.329,-4.329,-4.329,-4.329,-4.329,-4.329,-4.329,-4.329,-4.329,-4.329,-4.329,-4.329,-4.329,-4.329,-4.329,-4.329,-4.329,-4.3125,-4.288,-4.2455,0.0,-4.1856,0.0,-4.0905,-4.0606,-4.0142,-3.9679,-3.9388,-3.9388,-4.0307,-4.0801,-4.0801,-4.0801,-4.0801,-4.0801,-4.0337,-4.0113,-4.0113,-3.9649,-3.9388,-3.9388,-3.9388,-3.9388,-3.9388,-3.9388,-3.9228,0.0,-3.8819,-3.8612,-3.8277,-3.8202,-3.8202,-3.8202,-3.8202,-3.8202,-3.8202,-3.8202,-3.8202,-3.8202,-3.8202,-3.8202,-3.8315,-3.8826,-3.9341,-3.9626,-3.9103,-3.8957,-3.8863,-3.8337,-3.8583,-3.8678,-3.7558,-3.7718,-3.7726,-3.641,-3.6094,-3.6093,-3.6117,-3.6103,-3.6322,-3.6996,-3.7087,-3.7087,-3.7087,-3.6936,-3.6646,-3.6166,-3.5529,-3.5088,-3.5088,-3.4887,-3.4769,-3.4835,-3.4868,-3.4902,-3.4902,-3.5034,-3.5148,-3.518,-3.5326,-3.5439,-3.5504,-3.5504,-3.5504,-3.5504,-3.5683,-3.5683,-3.5504,-3.5683,-3.591,-4.329,-4.329,-4.329,-4.329,-4.329,-4.329,-4.329,-4.329,-4.329,-4.329,-4.329,-4.329,-4.329,-4.329,-4.329,-4.329,-4.329,-4.329,-4.329,-4.2776,-4.241,0.0,0.0,-4.113,-4.0472,-3.9828,-3.9439,-3.9388,-3.9388,0.0,-3.9388,-3.9388,-3.9403,-3.9403,-3.9403,-3.9403,-3.9403,-3.9388,-3.9388,-3.9388,-3.9388,-3.9388,-3.9388,-3.9388,-3.9388,-3.9388,-3.9388,-3.9265,0.0,-3.887,-3.8686,-3.8478,-3.8277,-3.8202,-3.8202,-3.8202,-3.8202,-3.8202,-3.8202,-3.8202,-3.8202,-3.8202,-3.8202,-3.8202,-3.8202,-3.8202,-3.824,-3.8202,-3.8202,-3.8202,-3.8202,-3.8202,-3.8057,-3.7462,-3.7302,-3.6976,-3.5683,-3.5392,-3.5414,-3.5404,-3.54,-3.561,-3.6291,-3.6415,-3.6415,-3.6415,-3.5866,-3.5432,-3.54,-3.482,-3.4414,-3.4414,-3.4414,-3.4481,-3.4698,-3.4802,-3.4902,-3.4902,-3.4902,-3.5001,-3.518,-3.518,-3.5294,-3.5504,-3.5504,-3.5504,-3.5504,-3.6116,-3.6085,-3.5504,-3.6116,-3.6085,-4.329,-4.329,-4.329,-4.329,-4.329,-4.329,-4.329,-4.329,-4.329,-4.329,-4.329,-4.329,-4.329,-4.329,-4.329,-4.329,-4.329,-4.314,0.0,0.0,0.0,-4.113,-4.0442,-3.9963,0.0,0.0,-3.9388,-3.9388,-3.9388,-3.9388,-3.9388,-3.9388,-3.9388,-3.9388,-3.9388,-3.9388,-3.9388,-3.9388,-3.9388,-3.9388,-3.9388,-3.9388,-3.9388,-3.9388,-3.9388,-3.9388,-3.9265,-3.9068,-3.887,-3.8686,-3.8464,-3.8277,-3.8202,-3.8202,-3.8202,-3.8202,-3.8202,-3.8202,-3.8202,-3.8202,-3.8202,-3.8202,-3.8202,-3.8202,-3.8202,-3.8202,-3.8202,-3.8202,-3.8202,-3.8202,-3.8202,-3.8202,-3.8159,-3.797,-3.7607,-3.7201,-3.678,-3.633,-3.6008,-3.6,-3.6025,-3.6084,-3.636,-3.6416,-3.625,-3.5782,-3.5546,-3.5252,-3.4787,-3.4534,-3.4414,-3.4414,-3.4414,-3.4414,-3.4481,-3.4549,-3.4582,-3.4582,-3.4683,-3.485,-3.5001,-3.5115,-3.5294,-3.5504,-3.5504,-3.5504,-3.5504,-3.5668,-3.5683,-3.5504,-3.5716,-3.5683,-4.329,-4.329,-4.329,-4.329,-4.329,-4.329,-4.329,-4.329,-4.329,-4.329,-4.329,-4.329,-4.329,-4.329,-4.329,-4.321,-4.325,-4.3065,-4.2369,0.0,0.0,-4.0062,0.0,0.0,0.0,-3.9388,-3.9388,-3.9388,-3.9388,-3.9388,-3.9388,-3.9388,-3.9388,-3.9388,-3.9388,-3.9388,-3.9388,-3.9388,-3.9388,-3.9388,-3.9388,-3.9388,-3.9388,-3.9388,-3.9388,-3.9388,-3.9177,-3.898,0.0,-3.859,-3.8366,-3.8202,-3.8202,-3.8202,-3.8202,-3.8202,-3.8202,-3.8202,-3.8202,-3.8202,-3.8202,-3.8202,-3.8202,-3.8202,-3.8202,-3.8202,-3.8202,-3.8202,-3.8202,-3.8202,-3.8202,-3.8202,-3.8202,-3.8202,-3.7912,-3.7593,-3.736,-3.6983,-3.6606,-3.6359,-3.6301,-3.6312,-3.6355,-3.635,-3.6216,-3.5788,-3.5555,-3.524,-3.483,-3.4559,-3.4414,-3.4414,-3.4414,-3.4414,-3.4414,-3.4414,-3.4414,-3.4414,-3.4515,-3.465,-3.4817,-3.4949,-3.5129,-3.5359,-3.5392,-3.5439,-3.5504,-3.5504,-3.5504,-3.5504,-3.5504,-3.5504,0.0,-4.329,-4.329,-4.329,-4.329,-4.329,-4.329,-4.329,0.0,-4.329,-4.329,-4.329,-4.329,-4.325,-4.321,-4.2996,-4.3086,-4.2872,0.0,-4.1338,0.0,0.0,-3.9068,0.0,-3.9337,-3.9373,-3.9388,-3.9388,-3.9388,-3.9388,-3.9388,-3.9388,-3.9388,-3.9388,-3.9388,-3.9388,-3.9388,-3.9388,-3.9388,-3.9388,-3.9388,-3.9388,-3.9388,-3.9388,-3.9388,0.0,-3.9177,-3.898,-3.8782,-3.859,-3.8366,-3.8202,-3.8202,-3.8202,-3.8202,-3.8202,-3.8202,-3.8202,-3.8202,-3.8202,-3.8202,-3.8202,-3.8202,-3.8202,-3.8202,-3.8202,-3.8202,-3.8202,-3.8202,-3.8202,-3.8202,-3.8202,-3.8202,-3.8202,-3.8202,-3.8043,-3.7491,-3.7375,-3.7186,-3.6562,-3.6446,-3.6431,-3.6388,-3.6373,-3.6359,-3.6315,-3.5807,-3.545,-3.5407,-3.4849,-3.4457,-3.4414,-3.4414,-3.4414,-3.4414,-3.4414,-3.4414,-3.4414,-3.4414,-3.4481,-3.4698,-3.4698,-3.4865,-3.518,-3.518,-3.5294,-3.5504,-3.5504,-3.5504,-3.5504,-3.5504,-3.5504,-4.329,0.0,-4.329,-4.329,-4.329,-4.329,0.0,-4.329,-4.329,-4.329,-4.317,-4.3076,-4.3076,-4.2915,-4.2809,-4.2769,-4.2395,-4.1834,-4.1198,-4.0066,0.0,-3.89,-3.887,-3.8907,-3.8943,-3.9068,-3.9177,-3.9177,-3.9301,-3.9388,-3.9388,-3.9388,-3.9388,-3.9388,-3.9388,-3.9388,-3.9388,-3.9388,-3.9388,-3.9388,-3.9388,-3.9388,-3.9388,-3.9388,-3.9388,-3.9388,-3.9017,-3.8819,-3.8782,-3.8427,-3.824,-3.8202,-3.8202,-3.8202,-3.8202,-3.8202,-3.8202,-3.8202,-3.8202,-3.8202,-3.8202,-3.8202,-3.8202,-3.8202,-3.8202,-3.8202,-3.8202,-3.8202,-3.8202,-3.8202,-3.8202,-3.8202,-3.8202,-3.8202,-3.8202,-3.8159,-3.8028,-3.7984,-3.7941,-3.7781,-3.7752,-3.7607,-3.7143,-3.707,-3.6896,-3.6388,-3.6185,-3.5909,-3.5465,-3.5261,-3.4985,-3.4457,-3.4414,-3.4414,-3.4414,-3.4414,-3.4414,-3.4414,-3.4414,-3.4481,-3.4698,-3.4698,-3.4798,-3.4968,-3.5115,-3.5294,-3.5504,-3.5504,-3.5504,-3.5504,-3.5504,-3.5504,-4.329,-4.329,-4.329,-4.329,-4.325,-4.3155,-4.3155,-4.309,-4.301,-4.301,0.0,-4.2875,-4.2875,-4.2518,-4.2206,-4.2126,-4.1621,-4.1013,0.0,0.0,-3.8649,-3.8649,-3.8649,-3.8686,0.0,-3.898,-3.9104,-3.9104,-3.9301,-3.9388,-3.9388,-3.9388,-3.9388,-3.9388,-3.9388,-3.9388,-3.9388,-3.9388,-3.9388,-3.9388,-3.9388,-3.9388,-3.9388,-3.9388,-3.9337,-3.9265,-3.8943,-3.876,-3.8649,-3.8315,-3.8202,-3.8202,-3.8202,-3.8202,-3.8202,-3.8202,-3.8202,-3.8202,-3.8202,-3.8202,-3.8202,-3.8202,-3.8202,-3.8202,-3.8202,-3.8202,-3.8202,-3.8202,-3.8202,-3.8202,-3.8202,-3.8202,-3.8202,-3.8202,-3.8202,-3.8202,-3.8202,-3.8202,-3.8202,-3.8202,-3.8202,-3.8101,-3.7781,-3.7723,-3.7593,-3.723,-3.6939,-3.6635,-3.6301,-3.577,-3.5261,-3.4893,-3.4588,-3.4414,-3.4414,-3.4414,-3.4414,-3.4414,-3.4414,-3.4448,-3.4563,-3.4563,-3.465,-3.4817,-3.5082,-3.5261,-3.5359,-3.5472,-3.5504,-3.5504,-3.5504,-3.5504,-4.325,-4.325,-4.325,-4.325,-4.3115,-4.2941,-4.2941,0.0,0.0,0.0,0.0,-4.2618,-4.2515,-4.2019,0.0,-4.1251,0.0,0.0,-3.9422,-3.8814,-3.8441,-3.8441,-3.8441,0.0,-3.8671,-3.8907,-3.8995,-3.8995,-3.9177,-3.9301,-3.9301,-3.9337,-3.9337,-3.9337,-3.9388,-3.9388,-3.9388,-3.9388,-3.9388,-3.9388,-3.9388,-3.9388,-3.9388,-3.9388,-3.9301,-3.9141,0.0,0.0,-3.8516,-3.8277,-3.8202,-3.8202,-3.8202,-3.8202,-3.8202,-3.8202,-3.8202,-3.8202,-3.8202,-3.8202,-3.8202,-3.8202,-3.8202,-3.8202,-3.8202,-3.8202,-3.8202,-3.8202,-3.8202,-3.8202,-3.8202,-3.8202,-3.8202,-3.8202,-3.8202,-3.8202,-3.8202,-3.8202,-3.8202,-3.8202,-3.8202,-3.8202,-3.8202,-3.8202,-3.8202,-3.8202,-3.7767,-3.7404,-3.7317,-3.6344,-3.5625,-3.5421,-3.4878,-3.4516,-3.4428,-3.4414,-3.4414,-3.4414,-3.4414,-3.4414,-3.4414,-3.4414,-3.4481,-3.4698,-3.4997,-3.5115,-3.5148,-3.5359,-3.5439,-3.5439,-3.5504,-3.5504,-4.3076,-4.3036,-4.3036,-4.3036,-4.2875,-4.2729,-4.2729,-4.2729,0.0,0.0,0.0,0.0,0.0,-4.139,-4.0997,0.0,0.0,-3.9193,0.0,0.0,-3.824,-3.824,0.0,-3.824,-3.8277,-3.8464,-3.859,-3.859,-3.876,-3.8907,-3.8907,-3.9068,-3.9141,-3.9141,-3.9301,-3.9388,-3.9388,-3.9388,-3.9388,-3.9388,-3.9388,-3.9388,-3.9388,-3.9388,-3.9388,-3.9337,0.0,-3.8782,-3.8723,-3.8352,-3.8202,-3.8202,-3.8202,-3.8202,-3.8202,-3.8202,-3.8202,-3.8202,-3.8202,-3.8202,-3.8202,-3.8202,-3.8202,-3.8202,-3.8202,-3.8202,-3.8202,-3.8202,-3.8202,-3.8202,-3.8202,-3.8202,-3.8202,-3.8202,-3.8202,-3.8202,-3.8202,-3.8202,-3.8202,-3.8202,-3.8202,-3.8202,-3.8202,-3.8202,-3.8202,-3.8202,-3.813,-3.7883,-3.7375,-3.7128,-3.6591,-3.5523,-3.5319,-3.5029,-3.4457,-3.4414,-3.4414,-3.4414,-3.4414,-3.4414,-3.4414,-3.4414,-3.4481,-3.4698,-3.4765,-3.4817,-3.4935,-3.5148,-3.5261,-3.5261,-3.5439,-3.5504,-4.3036,-4.2835,-4.2688,-4.2688,-4.2622,-4.2541,-4.2541,-4.2181,0.0,0.0,0.0,0.0,0.0,0.0,-3.9842,-3.9175,0.0,-3.8551,-3.8246,-3.8202,-3.8202,0.0,0.0,-3.8202,-3.8202,-3.8366,-3.8478,-3.8478,-3.8686,-3.8782,-3.8782,-3.898,-3.9104,-3.9104,-3.9301,-3.9388,-3.9388,-3.9388,-3.9388,-3.9388,-3.9388,-3.9388,-3.9388,-3.9388,-3.9337,-3.9228,0.0,-3.876,-3.8612,-3.8315,-3.8202,-3.8202,-3.8202,-3.8202,-3.8202,-3.8202,-3.8202,-3.8202,-3.8202,-3.8202,-3.8202,-3.8202,-3.8202,-3.8202,-3.8202,-3.8202,-3.8202,-3.8202,-3.8202,-3.8202,-3.8202,-3.8202,-3.8202,-3.8202,-3.8202,-3.8202,-3.8202,-3.8202,-3.8202,-3.8202,-3.8202,-3.8202,-3.8202,-3.8202,-3.8202,-3.8202,-3.8202,-3.8101,-3.7825,-3.7506,-3.6939,-3.5981,-3.5595,-3.5145,-3.4472,-3.4414,-3.4414,-3.4414,-3.4414,-3.4414,-3.4414,-3.4414,-3.4448,-3.4549,-3.4631,-3.4731,-3.4783,-3.4949,-3.5034,-3.5034,-3.5261,-3.5326,-4.2875,-4.2607,-4.2392,-4.2366,-4.231,-4.2281,-4.212,-4.1575,0.0,0.0,0.0,0.0,0.0,-3.9726,0.0,-3.8289,-3.8202,-3.8202,-3.8202,-3.8202,-3.8202,-3.8202,-3.8202,-3.8202,-3.8202,-3.8329,-3.8441,-3.8441,-3.8575,-3.8671,-3.8671,-3.8833,-3.8958,-3.8958,-3.9141,-3.9265,-3.9265,-3.9301,-3.9337,-3.9388,-3.9388,-3.9388,-3.9388,-3.9388,-3.9301,-3.9104,-3.8907,-3.8686,-3.8478,-3.8277,-3.8202,-3.8202,-3.8202,-3.8202,-3.8202,-3.8202,-3.8202,-3.8202,-3.8202,-3.8202,-3.8202,-3.8202,-3.8202,-3.8202,-3.8202,-3.8202,-3.8202,-3.8202,-3.8202,-3.8202,-3.8202,-3.8202,-3.8202,-3.8202,-3.8202,-3.8202,-3.8202,-3.8202,-3.8202,-3.8202,-3.8202,-3.8202,-3.8202,-3.8202,-3.8202,-3.8202,-3.8202,-3.8202,-3.8202,-3.7796,-3.7201,-3.6402,-3.588,-3.527,-3.4486,-3.4414,-3.4414,-3.4414,-3.4414,-3.4414,-3.4414,-3.4414,-3.4414,-3.4414,-3.4563,-3.4631,-3.4631,-3.4783,-3.4835,-3.4883,-3.5034,-3.5115,-4.25,-4.2433,-4.2366,-4.2175,-4.2133,-4.1974,-4.1349,-4.1134,0.0,-4.0365,0.0,0.0,0.0,-3.8754,-3.826,-3.8217,-3.8202,-3.8202,-3.8202,0.0,-3.8202,-3.8202,-3.8202,-3.8202,-3.8202,-3.8202,-3.8202,-3.8202,-3.824,-3.824,-3.824,-3.8441,-3.8553,-3.8553,-3.8723,-3.8819,-3.8819,-3.9017,-3.9228,-3.9388,-3.9388,-3.9388,-3.9388,-3.9388,-3.9301,-3.9104,-3.8907,-3.8686,-3.8478,-3.8277,-3.8202,-3.8202,-3.8202,-3.8202,-3.8202,-3.8202,-3.8202,-3.8202,-3.8202,-3.8202,-3.8202,-3.8202,-3.8202,-3.8202,-3.8202,-3.8202,-3.8202,-3.8202,-3.8202,-3.8202,-3.8202,-3.8202,-3.8202,-3.8202,-3.8202,-3.8202,-3.8202,-3.8202,-3.8202,-3.8202,-3.8202,-3.8202,-3.8202,-3.8202,-3.8202,-3.8202,-3.8202,-3.8202,-3.8202,-3.8159,-3.7665,-3.6446,-3.6272,-3.5749,-3.4516,-3.4414,-3.4414,-3.4414,-3.4414,-3.4414,-3.4414,-3.4414,-3.4414,-3.4414,-3.4414,-3.4414,-3.4414,-3.4631,-3.4698,-3.4731,-3.4883,-3.4935,-4.192,-4.1697,-4.1488,-4.1,-4.0858,0.0,0.0,-4.0481,-3.9944,-4.0075,-3.9465,0.0,0.0,0.0,-3.8202,-3.8202,-3.8202,-3.8202,-3.8202,-3.8202,-3.8202,-3.8202,-3.8202,-3.8202,-3.8202,-3.8202,-3.8202,-3.8202,-3.8202,-3.8202,-3.8202,-3.8404,-3.8478,-3.8478,-3.8686,-3.8782,-3.8782,-3.887,-3.8943,-3.9017,-3.9265,-3.9388,-3.9388,-3.9388,-3.9301,-3.9104,-3.8907,-3.8686,-3.8478,-3.8277,-3.8202,-3.8202,-3.8202,-3.8202,-3.8202,-3.8202,-3.8202,-3.8202,-3.8202,-3.8202,-3.8202,-3.8202,-3.8202,-3.8202,-3.8202,-3.8202,-3.8202,-3.8202,-3.8202,-3.8202,-3.8202,-3.8202,-3.8202,-3.8202,-3.8202,-3.8202,-3.8202,-3.8202,-3.8202,-3.8202,-3.8202,-3.8202,-3.8202,-3.8202,-3.8202,-3.8202,-3.8202,-3.8202,-3.8202,-3.8202,-3.7883,-3.7012,-3.6199,-3.5372,-3.4486,-3.4414,-3.4414,-3.4414,-3.4414,-3.4414,-3.4414,-3.4414,-3.4414,-3.4414,-3.4414,-3.4414,-3.4414,-3.4481,-3.4515,-3.4515,-3.4683,-3.4798,-4.1186,-4.0891,-4.067,-4.0205,0.0,0.0,-4.0046,-3.9617,-3.9262,-3.9465,-3.8812,-3.8127,-3.7848,0.0,0.0,0.0,-3.8,-3.8202,-3.8202,-3.8202,-3.8202,-3.8202,-3.8202,-3.8202,-3.8202,-3.8202,-3.8202,-3.8202,-3.8202,-3.8202,-3.8202,-3.8329,-3.8404,-3.8404,-3.8538,-3.8598,-3.8598,-3.8686,-3.8723,-3.8723,-3.9068,-3.9228,-3.9301,-3.9228,-3.9141,-3.898,-3.8797,-3.8575,-3.8404,-3.824,-3.8202,-3.8202,-3.8202,-3.8202,-3.8202,-3.8202,-3.8202,-3.8202,-3.8202,-3.8202,-3.8202,-3.8202,-3.8202,-3.8202,-3.8202,-3.8202,-3.8202,-3.8202,-3.8202,-3.8202,-3.8202,-3.8202,-3.8202,-3.8202,-3.8202,-3.8202,-3.8202,-3.8202,-3.8202,-3.8202,-3.8202,-3.8202,-3.8202,-3.8202,-3.8202,-3.8202,-3.8202,-3.8202,-3.8202,-3.8202,-3.7897,-3.707,-3.6011,-3.5145,-3.4472,-3.4414,-3.4414,-3.4414,-3.4414,-3.4414,-3.4414,-3.4414,-3.4414,-3.4414,-3.4414,-3.4414,-3.4414,-3.4414,-3.4414,-3.4414,-3.4549,-3.4597,-4.0263,-4.0089,-4.0089,-4.0075,0.0,0.0,-3.8088,-3.8549,-3.9,-3.8295,-3.8165,-3.7924,-3.7053,-3.7606,0.0,-3.7053,-3.7606,-3.8165,-3.8202,-3.8202,-3.8202,-3.8202,-3.8202,-3.8202,-3.8202,-3.8202,-3.8202,-3.8202,-3.8202,-3.8202,-3.8202,-3.8202,-3.8202,-3.8202,-3.8202,-3.8202,-3.8202,-3.8404,-3.8478,-3.8478,-3.8686,-3.8907,-3.9104,-3.8907,-3.8782,-3.8797,-3.859,-3.8404,-3.8202,-3.8202,-3.8202,-3.8202,-3.8202,-3.8202,-3.8202,-3.8202,-3.8202,-3.8202,-3.8202,-3.8202,-3.8188,-3.8188,-3.8188,-3.8188,-3.8188,-3.8188,-3.8188,-3.8188,-3.8202,-3.8202,-3.8202,-3.8202,-3.8202,-3.8202,-3.8202,-3.8202,-3.8202,-3.8202,-3.8202,-3.8202,-3.8202,-3.8202,-3.8202,-3.8202,-3.8202,-3.8202,-3.8202,-3.8202,-3.8202,-3.8202,-3.7709,-3.6446,-3.5784,-3.5145,-3.4472,-3.4414,-3.4414,-3.4414,-3.4414,-3.4414,-3.4414,-3.4414,-3.4414,-3.4414,-3.4414,-3.4414,-3.4414,-3.4414,-3.4414,-3.4414,-3.4414,-3.4414,-3.9639,-3.9465,-3.9194,-3.8108,0.0,0.0,0.0,-3.6953,0.0,0.0,-3.6385,-3.6306,-3.6029,-3.6188,0.0,-3.6844,-3.6596,-3.6791,-3.8037,-3.7682,-3.7529,-3.8127,-3.8202,-3.8202,-3.8202,-3.8202,-3.8202,-3.8202,-3.8202,-3.8202,-3.8202,-3.8202,-3.8202,-3.8202,-3.8202,-3.8202,-3.8202,-3.824,-3.8277,-3.8277,-3.8352,-3.8575,-3.8907,-3.8819,-3.8723,-3.859,-3.8516,-3.8404,-3.8202,-3.8202,-3.8202,-3.8202,-3.8202,-3.8202,-3.8202,-3.8202,-3.8202,-3.8202,-3.8202,-3.7926,-3.7578,-3.7578,-3.7259,-3.6867,-3.6867,-3.7201,-3.7578,-3.7578,-3.7883,-3.8202,-3.8202,-3.8202,-3.8202,-3.8202,-3.8202,-3.8202,-3.8202,-3.8202,-3.8202,-3.8202,-3.8202,-3.8202,-3.8202,-3.8202,-3.8202,-3.8202,-3.8202,-3.8202,-3.8202,-3.8202,-3.7709,-3.6446,-3.6141,-3.559,-3.4501,-3.4414,-3.4414,-3.4414,-3.4414,-3.4414,-3.4414,-3.4414,-3.4414,-3.4414,-3.4414,-3.4414,-3.4414,-3.4414,-3.4414,-3.4414,-3.4414,-3.4414,-3.8533,-3.8284,-3.7976,-3.6693,-3.6399,-3.6162,-3.5332,0.0,0.0,0.0,-3.5615,-3.5507,-3.5196,-3.5386,0.0,-3.5856,-3.5722,-3.5989,-3.7025,-3.6713,-3.6596,-3.7116,-3.7477,-3.7682,-3.7682,-3.8,-3.8202,-3.8202,-3.8202,-3.8202,-3.8202,-3.8202,-3.8202,-3.8202,-3.8202,-3.8202,-3.8202,-3.8202,-3.8202,-3.8202,-3.8202,-3.8315,-3.856,-3.856,-3.8538,-3.8478,-3.8404,-3.8315,-3.8202,-3.8202,-3.8202,-3.8202,-3.8202,-3.8202,-3.8202,-3.8202,-3.8057,-3.7839,-3.7839,-3.7433,-3.691,-3.691,-3.6635,-3.6301,-3.6301,-3.6591,-3.691,-3.691,-3.7172,-3.7447,-3.7447,-3.7651,-3.7912,-3.8144,-3.8202,-3.8202,-3.8202,-3.8202,-3.8202,-3.8202,-3.8202,-3.8202,-3.8202,-3.8202,-3.8202,-3.8202,-3.8202,-3.8202,-3.8202,-3.8202,-3.7825,-3.6809,-3.646,-3.5894,-3.4878,-3.4559,-3.4414,-3.4414,-3.4414,-3.4414,-3.4414,-3.4414,-3.4414,-3.4414,-3.4414,-3.4414,-3.4414,-3.4414,-3.4414,-3.4414,-3.4414,-3.4414,-3.7286,-3.6897,-3.6688,-3.5709,-3.5413,0.0,-3.4468,-3.4855,-3.5386,-3.5386,0.0,-3.5156,-3.4426,-3.4883,-3.5156,-3.4509,-3.4924,-3.5373,-3.5534,-3.5494,-3.5453,-3.5534,-3.6241,-3.678,-3.6858,-3.7567,-3.8089,-3.8165,-3.8202,-3.8202,-3.8202,-3.8202,-3.8202,-3.8202,-3.8202,-3.8202,-3.8202,-3.8202,-3.8202,-3.8202,-3.8202,-3.8202,-3.8202,-3.8202,-3.8277,-3.8441,-3.8277,-3.8202,-3.8202,-3.8202,-3.8165,-3.8089,-3.8165,-3.8165,-3.8089,-3.8165,-3.7825,-3.7302,-3.7229,-3.6715,-3.6107,-3.6035,-3.5956,-3.5934,-3.5984,-3.6013,-3.6021,-3.6071,-3.615,-3.6194,-3.6194,-3.6678,-3.736,-3.797,-3.8159,-3.8202,-3.8202,-3.8202,-3.8202,-3.8202,-3.8202,-3.8202,-3.8202,-3.8202,-3.8202,-3.8202,-3.8202,-3.8202,-3.8202,-3.8202,-3.797,-3.7375,-3.6707,-3.6054,-3.545,-3.4777,-3.4414,-3.4414,-3.4414,-3.4414,-3.4414,-3.4414,-3.4414,-3.4414,-3.4414,-3.4414,-3.4414,-3.4414,-3.4414,-3.4414,-3.4414,-3.4414,-3.7173,-3.6897,0.0,-3.5019,-3.4134,-3.3598,-3.3411,-3.3526,-3.3641,-3.3641,-3.3641,-3.3598,-3.3411,-3.3526,-3.381,-3.4314,-3.3797,-3.3801,-3.5183,-3.465,-3.4361,-3.5061,-3.5305,-3.5682,-3.6373,-3.6741,-3.7222,-3.7915,-3.8104,-3.8202,-3.8202,-3.8202,-3.8202,-3.8202,-3.8202,-3.8202,-3.8202,-3.8202,-3.8202,-3.8202,-3.8202,-3.8202,-3.8202,-3.8202,-3.8202,-3.824,-3.8202,-3.8202,-3.8202,-3.8202,-3.781,-3.7246,-3.7924,-3.7772,-3.7246,-3.7962,-3.7825,-3.7229,-3.6579,-3.5603,-3.456,-3.3914,-3.3399,-3.3121,-3.3691,-3.3778,-3.3827,-3.4488,-3.5022,-3.5441,-3.5441,-3.5956,-3.6693,-3.7346,-3.7854,-3.8202,-3.8202,-3.8202,-3.8202,-3.8202,-3.8202,-3.8202,-3.8202,-3.8202,-3.8202,-3.8202,-3.8202,-3.8202,-3.8202,-3.8202,-3.797,-3.7375,-3.6707,-3.6054,-3.545,-3.4777,-3.4414,-3.4414,-3.4414,-3.4414,-3.4414,-3.4414,-3.4414,-3.4414,-3.4414,-3.4414,-3.4414,-3.4414,-3.4414,-3.4414,-3.4414,-3.4414,-3.6517,-3.6016,0.0,-3.4105,0.0,-3.3124,-3.3124,-3.3124,-3.3124,-3.3124,-3.3124,-3.3124,-3.3124,-3.2995,-3.3068,-3.3513,-3.3013,-3.2884,-3.3771,-3.3445,-3.3245,-3.3687,-3.4124,-3.4568,-3.502,-3.5883,-3.6663,-3.7236,-3.7749,-3.8104,-3.8202,-3.8202,-3.8202,-3.8202,-3.8202,-3.8202,-3.8202,-3.8202,-3.8202,-3.8202,-3.8202,-3.8202,-3.8202,-3.8202,-3.8202,-3.8202,-3.8202,-3.8202,-3.8165,-3.7758,-3.7323,-3.6883,-3.6947,-3.6674,-3.632,-3.6791,-3.6399,-3.5602,-3.5211,-3.4242,-3.3146,-3.2732,-3.2368,-3.2182,-3.2541,-3.2617,-3.2659,-3.3073,-3.3453,-3.3725,-3.3725,-3.424,-3.4804,-3.5178,-3.6542,-3.7854,-3.8144,-3.8202,-3.8202,-3.8202,-3.8202,-3.8202,-3.8202,-3.8202,-3.8202,-3.8202,-3.8202,-3.8202,-3.8202,-3.8202,-3.8086,-3.7767,-3.7172,-3.6519,-3.5865,-3.5241,-3.4733,-3.4428,-3.4414,-3.4414,-3.4414,-3.4414,-3.4414,-3.4414,-3.4414,-3.4414,-3.4414,-3.4414,-3.4414,-3.4414,-3.4414,-3.4414,-3.5869,-3.4924,-3.3992,-3.3283,-3.3124,0.0,-3.3124,-3.3124,-3.3124,-3.3124,-3.3124,-3.3081,-3.3038,-3.2853,-3.2667,-3.2636,-3.2475,-3.2344,-3.2344,-3.23,-3.2257,-3.2257,-3.2945,-3.342,-3.3534,-3.4938,-3.5963,-3.6452,-3.7236,-3.7801,-3.8127,-3.8165,-3.8202,-3.8202,-3.8202,-3.8202,-3.8202,-3.8202,-3.8202,-3.8202,-3.8202,-3.8202,-3.8202,-3.8202,-3.8202,-3.8202,-3.8202,-3.8202,-3.8127,-3.7246,-3.6805,-3.6596,-3.5869,-3.5507,-3.5413,-3.5426,-3.4801,-3.3878,-3.363,-3.2823,-3.1856,-3.1759,-3.1686,-3.1723,-3.1856,-3.1796,-3.1723,-3.1856,-3.1892,-3.1892,-3.1892,-3.2367,-3.287,-3.2979,-3.4892,-3.6919,-3.7636,-3.8003,-3.8165,-3.8089,-3.8127,-3.8127,-3.8089,-3.8165,-3.8202,-3.8165,-3.8165,-3.8202,-3.8202,-3.8202,-3.8202,-3.8202,-3.7665,-3.7041,-3.6359,-3.577,-3.5116,-3.4443,-3.4414,-3.4414,-3.4414,-3.4414,-3.4414,-3.4414,-3.4414,-3.4414,-3.4414,-3.4414,-3.4414,-3.4414,-3.4414,-3.4414,-3.5896,0.0,-3.3253,0.0,-3.3124,-3.3124,0.0,0.0,-3.3124,0.0,-3.3124,-3.3025,-3.281,-3.2711,-3.2636,-3.2475,-3.2213,-3.2038,-3.2038,-3.1893,-3.1793,-3.1793,-3.1881,-3.2251,-3.3036,-3.3479,-3.4347,-3.5976,-3.6506,-3.7106,-3.7891,-3.8104,-3.8202,-3.8202,-3.8202,-3.8202,-3.8202,-3.8202,-3.8202,-3.8202,-3.8202,-3.8202,-3.8202,-3.8202,-3.8202,-3.8202,-3.8202,-3.8202,-3.8127,-3.7246,-3.6439,-3.5735,-3.5669,-3.5156,-3.4609,-3.482,-3.4487,-3.3747,-3.2573,-3.1685,-3.0932,-3.0317,-3.0113,-3.0216,-3.0871,-3.0595,-3.0254,-3.0871,-3.1082,-3.1082,-3.1082,-3.1653,-3.2368,-3.2884,-3.3687,-3.4675,-3.5857,-3.7234,-3.8089,-3.7763,-3.7815,-3.7891,-3.7701,-3.7991,-3.8127,-3.7967,-3.8104,-3.8202,-3.8202,-3.8202,-3.8202,-3.8202,-3.7665,-3.7041,-3.6359,-3.577,-3.5116,-3.4443,-3.4414,-3.4414,-3.4414,-3.4414,-3.4414,-3.4414,-3.4414,-3.4414,-3.4414,-3.4414,-3.4414,-3.4414,-3.4414,-3.4414,-3.4607,-3.3683,-3.3124,0.0,-3.3124,-3.3124,-3.3124,-3.3124,-3.3081,-3.2896,-3.2896,-3.2853,-3.2711,-3.2506,-3.2288,-3.2213,-3.1981,-3.1849,-3.1849,-3.1761,-3.1705,-3.1705,-3.1705,-3.1825,-3.2239,-3.2778,-3.3522,-3.443,-3.5088,-3.5989,-3.7106,-3.726,-3.7567,-3.8165,-3.8202,-3.8202,-3.8202,-3.8202,-3.8202,-3.8202,-3.8202,-3.8202,-3.8202,-3.8202,-3.8202,-3.8202,-3.8202,-3.7924,-3.74,-3.6517,-3.5682,-3.4896,-3.44,-3.3995,-3.3661,-3.3418,-3.3009,-3.237,-3.1472,-3.0791,-3.0241,-2.9895,-2.9792,-2.9856,-3.0177,-3.0075,-2.9869,-3.0203,-3.0266,-3.0266,-3.0266,-3.0533,-3.09,-3.1147,-3.2225,-3.3341,-3.3633,-3.5618,-3.7376,-3.7572,-3.7663,-3.7701,-3.7625,-3.7763,-3.7877,-3.7891,-3.7967,-3.8066,-3.8202,-3.8202,-3.8202,-3.8202,-3.797,-3.7549,-3.6925,-3.6272,-3.5619,-3.498,-3.4617,-3.4414,-3.4414,-3.4414,-3.4414,-3.4414,-3.4414,-3.4414,-3.4414,-3.4414,-3.4414,-3.4414,-3.4414,-3.4414,-3.3556,0.0,-3.3124,-3.3124,-3.3124,-3.3124,0.0,0.0,-3.3025,0.0,-3.268,-3.2593,-3.2537,-3.2245,-3.1981,-3.195,-3.1805,-3.1705,-3.1705,-3.1705,-3.1705,-3.1705,-3.1705,-3.1705,-3.1705,-3.2283,-3.2821,-3.3182,-3.3875,-3.4911,-3.6373,-3.6531,-3.7053,-3.8089,-3.8165,-3.8202,-3.8202,-3.8202,-3.8202,-3.8202,-3.8202,-3.8202,-3.8202,-3.8202,-3.8202,-3.8202,-3.8202,-3.772,-3.6844,-3.5949,-3.5128,-3.4314,-3.3454,-3.3124,-3.2993,-3.2265,-3.1738,-3.1298,-3.0633,-3.0131,-2.9792,-2.9792,-2.9792,-2.9792,-2.9792,-2.9792,-2.9792,-2.9792,-2.9792,-2.9792,-2.9792,-2.9792,-2.9792,-2.9792,-3.1109,-3.2446,-3.2812,-3.454,-3.6255,-3.7042,-3.7211,-3.725,-3.7419,-3.7534,-3.7625,-3.7739,-3.7777,-3.7891,-3.8014,-3.8089,-3.8127,-3.8127,-3.8165,-3.7955,-3.736,-3.6852,-3.6214,-3.545,-3.4907,-3.4588,-3.4428,-3.4414,-3.4414,-3.4414,-3.4414,-3.4414,-3.4414,-3.4414,-3.4414,-3.4414,-3.4414,-3.4414,-3.3556,-3.3124,0.0,-3.3124,-3.3124,-3.3124,0.0,0.0,-3.3025,-3.2766,-3.255,-3.2344,-3.2069,-3.2038,-3.1937,-3.1761,-3.1717,-3.1705,-3.1705,-3.1705,-3.1705,-3.1705,-3.1705,-3.1705,-3.1705,-3.1749,-3.212,-3.2938,-3.3224,-3.4139,-3.5936,-3.6373,-3.6989,-3.7891,-3.8104,-3.8202,-3.8202,-3.8202,-3.8202,-3.8202,-3.8202,-3.8202,-3.8202,-3.8202,-3.8202,-3.8202,-3.8202,-3.772,-3.6844,-3.5949,-3.5128,-3.4314,-3.3454,-3.3124,-3.2986,-3.1838,-3.1411,-3.1235,-3.0193,-2.9817,-2.9792,-2.9792,-2.9792,-2.9792,-2.9792,-2.9792,-2.9792,-2.9792,-2.9792,-2.9792,-2.9792,-2.9792,-2.9792,-2.9792,-3.0647,-3.2141,-3.4605,-3.4762,-3.4761,-3.5856,-3.6056,-3.6269,-3.694,-3.7341,-3.7534,-3.7341,-3.7495,-3.7625,-3.7625,-3.7815,-3.7929,-3.7929,-3.8104,-3.7955,-3.736,-3.7273,-3.6707,-3.5479,-3.5363,-3.5072,-3.4443,-3.4414,-3.4414,-3.4414,-3.4414,-3.4414,-3.4414,-3.4414,-3.4414,-3.4414,-3.4414,-3.4414,-3.3097,0.0,0.0,-3.2616,-3.2805,-3.3124,-3.3124,-3.2982,-3.2766,-3.255,-3.23,-3.2081,-3.1849,-3.1805,-3.1793,-3.1705,-3.1705,-3.1705,-3.1705,-3.1705,-3.1705,-3.1705,-3.1705,-3.1705,-3.1705,-3.1705,-3.1837,-3.2164,-3.2239,-3.2864,-3.4194,-3.4376,-3.5292,-3.7028,-3.7144,-3.7491,-3.8202,-3.8202,-3.8202,-3.8202,-3.8202,-3.8202,-3.8202,-3.8202,-3.7886,-3.7376,-3.7376,-3.6883,-3.5989,-3.5169,-3.433,-3.3526,-3.3197,-3.2855,-3.2428,-3.1675,-3.1173,-3.0783,-3.0043,-2.9792,-2.9792,-2.9792,-2.9792,-2.9792,-2.9792,-2.9792,-2.9792,-2.9792,-2.9792,-2.9792,-2.9792,-2.9792,-2.9967,-3.0658,-3.1041,-3.1659,-3.3288,-3.3687,-3.4024,-3.4978,-3.5507,-3.587,-3.6123,-3.673,-3.7226,-3.7303,-3.7341,-3.7457,-3.7586,-3.7663,-3.7777,-3.7891,-3.7967,-3.7979,-3.7897,-3.7535,-3.7114,-3.6635,-3.5857,-3.529,-3.5058,-3.4632,-3.4414,-3.4414,-3.4414,-3.4414,-3.4414,-3.4414,-3.4414,-3.4414,-3.4414,-3.4414,-3.316,0.0,0.0,-3.2077,-3.2365,-3.278,-3.278,-3.2759,-3.2636,-3.2431,-3.2169,-3.1937,-3.1761,-3.1705,-3.1705,-3.1705,-3.1705,-3.1705,-3.1705,-3.1705,-3.1705,-3.1705,-3.1705,-3.1705,-3.1705,-3.1705,-3.1705,-3.1705,-3.1705,0.0,-3.3152,-3.3267,-3.4293,-3.6531,-3.6936,-3.7491,-3.8202,-3.8202,-3.8202,-3.8202,-3.8202,-3.8202,-3.8202,-3.8202,-3.772,-3.6897,-3.661,-3.6002,-3.5156,-3.462,-3.3907,-3.3124,-3.3124,-3.2717,-3.2152,-3.1599,-3.106,-3.0532,-2.998,-2.9792,-2.9792,-2.9792,-2.9792,-2.9792,-2.9792,-2.9792,-2.9829,-3.0018,-3.0068,-3.0105,-3.0281,-3.0331,-3.0557,-3.1449,-3.1551,-3.173,-3.2653,-3.2939,-3.3313,-3.4176,-3.4662,-3.5101,-3.5683,-3.6203,-3.6691,-3.7148,-3.7187,-3.7264,-3.738,-3.7457,-3.7534,-3.7701,-3.7815,-3.7967,-3.8104,-3.7802,-3.752,-3.7317,-3.6286,-3.5625,-3.5407,-3.4748,-3.4414,-3.4414,-3.4414,-3.4414,-3.4414,-3.4414,-3.4414,-3.4414,-3.4414,-3.4414,0.0,0.0,0.0,-3.1512,-3.1788,-3.219,-3.2215,-3.2471,-3.2612,-3.2431,-3.2169,-3.1937,-3.1761,-3.1705,-3.1705,-3.1705,-3.1705,-3.1705,-3.1705,-3.1705,-3.1705,-3.1705,-3.1705,-3.1705,-3.1705,-3.1705,-3.1705,-3.1705,-3.1705,-3.2077,-3.2907,-3.3182,-3.4306,-3.6452,-3.7606,-3.8165,-3.8165,-3.8165,-3.8165,-3.8165,-3.8165,-3.8165,-3.8165,-3.8202,-3.772,-3.6805,-3.5989,-3.5128,-3.4356,-3.4356,-3.3865,-3.3124,-3.3056,-3.2704,-3.2127,-3.1574,-3.1035,-3.052,-2.998,-2.9792,-2.9792,-2.9792,-2.9804,-2.9817,-2.9817,-2.9829,-2.9955,-3.0482,-3.0633,-3.0758,-3.126,-3.1386,-3.1537,-3.2077,-3.2215,-3.2365,-3.2955,-3.2736,-3.268,-3.3513,-3.3513,-3.3937,-3.5656,-3.5843,-3.599,-3.6861,-3.6978,-3.7017,-3.6978,-3.7148,-3.7303,-3.7303,-3.7663,-3.7891,-3.7891,-3.8066,-3.7955,-3.7375,-3.6707,-3.6054,-3.545,-3.4777,-3.4428,-3.4414,-3.4414,-3.4414,-3.4414,-3.4414,-3.4414,-3.4414,-3.4414,-3.4414,-3.341,0.0,0.0,0.0,0.0,0.0,-3.2127,-3.2172,-3.2153,-3.2358,-3.2169,-3.1937,-3.1761,-3.1705,-3.1705,-3.1705,-3.1705,-3.1705,-3.1705,-3.1705,-3.1705,-3.1705,-3.1705,-3.1705,-3.1705,-3.1705,-3.1705,0.0,-3.1705,-3.1793,-3.2045,-3.3036,-3.3872,-3.4485,-3.632,-3.7246,-3.7246,-3.7246,-3.7246,-3.7246,-3.7246,-3.7246,-3.7285,-3.7924,-3.74,-3.5949,-3.5695,-3.4787,-3.3454,-3.3454,-3.3326,-3.3074,-3.2616,-3.2114,-3.1549,-3.1022,-3.0482,-2.9993,-2.9842,-2.9792,-2.9792,-2.9792,-3.0068,-3.0382,-3.0382,-3.0645,-3.0984,-3.1135,-3.1173,-3.121,-3.1348,-3.1386,-3.1537,-3.2077,-3.2215,-3.2365,-3.2955,-3.2995,-3.2896,-3.297,-3.3343,-3.3953,-3.5087,-3.5736,-3.6189,-3.6269,-3.6925,-3.7134,-3.6401,-3.6886,-3.7341,-3.7495,-3.7625,-3.7701,-3.7701,-3.7991,-3.8069,-3.776,-3.7279,-3.6736,-3.6083,-3.543,-3.4893,-3.4428,-3.4414,-3.4414,-3.4414,-3.4414,-3.4414,-3.4414,-3.4414,-3.4414,0.0,0.0,0.0,-3.0901,0.0,0.0,-3.1788,-3.2072,-3.2252,-3.237,-3.2169,-3.1937,-3.1761,-3.1705,-3.1705,-3.1705,-3.1705,-3.1705,-3.1705,-3.1705,-3.1705,-3.1705,-3.1705,-3.1705,-3.1705,-3.1705,-3.1705,-3.1705,-3.1705,-3.1761,-3.1805,-3.3006,-3.3746,-3.383,-3.5829,-3.6727,-3.636,-3.6727,-3.6727,-3.636,-3.6727,-3.6897,-3.6936,-3.781,-3.7271,-3.5615,-3.5615,-3.4664,-3.3056,-3.2817,-3.2717,-3.2679,-3.234,-3.175,-3.1035,-3.0733,-3.0269,-2.9829,-3.0055,-3.0131,-3.0168,-3.0382,-3.0683,-3.0934,-3.0934,-3.1148,-3.1436,-3.1675,-3.1913,-3.2089,-3.2089,-3.2089,-3.2177,-3.2491,-3.2579,-3.2667,-3.3006,-3.3124,-3.3068,-3.2896,-3.3099,-3.3586,-3.4483,-3.4965,-3.5413,-3.6016,-3.6677,-3.6964,-3.6716,-3.7134,-3.7457,-3.7586,-3.7701,-3.7701,-3.7625,-3.7877,-3.8028,-3.7891,-3.7465,-3.7055,-3.6736,-3.5886,-3.5218,-3.482,-3.4545,-3.4414,-3.4414,-3.4414,-3.4414,-3.4414,-3.4414,-3.4414,0.0,0.0,0.0,0.0,-3.1165,0.0,-3.1486,-3.2084,-3.2593,-3.2463,-3.2257,-3.2025,-3.1761,-3.1705,-3.1705,-3.1705,-3.1705,-3.1705,-3.1705,-3.1705,-3.1705,-3.1705,-3.1705,-3.1705,-3.1705,-3.1705,-3.1705,-3.1705,-3.1705,-3.1761,-3.195,-3.2975,-3.3632,-3.383,-3.5628,-3.6241,-3.5467,-3.6241,-3.6241,-3.5467,-3.636,-3.6766,-3.6805,-3.7772,-3.7271,-3.5615,-3.5547,-3.4571,-3.293,-3.2365,-3.2152,-3.2202,-3.2077,-3.1461,-3.062,-3.062,-3.0306,-2.9967,-3.0507,-3.0708,-3.0783,-3.1235,-3.1436,-3.1486,-3.1486,-3.1524,-3.1687,-3.2164,-3.2679,-3.3124,-3.3124,-3.3124,-3.3124,-3.3124,-3.3124,-3.3124,-3.3124,-3.3124,-3.3124,-3.3124,-3.2896,-3.3056,-3.3949,-3.3937,-3.433,-3.5936,-3.6215,-3.6506,-3.725,-3.7327,-3.7327,-3.7327,-3.761,-3.7687,-3.7457,-3.7739,-3.7929,-3.7891,-3.7411,-3.7154,-3.7302,-3.6199,-3.5503,-3.5392,-3.4733,-3.4414,-3.4414,-3.4414,-3.4414,-3.4414,-3.4414,-3.4414,0.0,0.0,0.0,0.0,-3.2169,0.0,-3.2051,-3.2185,-3.2376,-3.2581,-3.2593,-3.2463,-3.2025,-3.1937,-3.1893,-3.1705,-3.1705,-3.1705,-3.1705,-3.1705,-3.1705,-3.1705,-3.1705,-3.1705,-3.1705,-3.1705,-3.1705,-3.1705,-3.1705,-3.1705,-3.1761,-3.2332,-3.268,-3.2711,-3.4121,-3.4799,-3.462,-3.4786,-3.4786,-3.462,-3.548,-3.5869,-3.5909,-3.7477,-3.7271,-3.5588,-3.5152,-3.3964,-3.234,-3.1775,-3.1813,-3.2127,-3.126,-3.0796,-3.062,-3.062,-3.0545,-3.0532,-3.106,-3.1235,-3.1248,-3.1361,-3.1687,-3.2051,-3.2051,-3.2378,-3.2767,-3.288,-3.2993,-3.3124,-3.3124,-3.3124,-3.3124,-3.3124,-3.3124,-3.3124,-3.3124,-3.3124,-3.3124,-3.3124,-3.3081,-3.3313,-3.4189,-3.4314,-3.4538,-3.5386,-3.5628,-3.5749,-3.5749,-3.5749,-3.5749,-3.5749,-3.6413,-3.678,-3.6584,-3.7544,-3.8066,-3.7891,-3.7776,-3.7601,-3.7331,-3.691,-3.6288,-3.5421,-3.4733,-3.4414,-3.4414,-3.4414,-3.4414,-3.4414,-3.4414,-3.4414,0.0,0.0,0.0,-3.3831,0.0,0.0,0.0,-3.2641,-3.2674,-3.2704,-3.2711,-3.2593,-3.2257,-3.2081,-3.1994,-3.1849,-3.1761,-3.1705,-3.1705,-3.1705,-3.1705,-3.1705,-3.1705,-3.1705,-3.1705,-3.1705,-3.1705,-3.1705,-3.1705,-3.1749,-3.1849,-3.2081,-3.23,-3.2562,-3.3615,-3.4037,-3.3738,-3.4189,-3.4189,-3.3781,-3.4992,-3.5615,-3.5655,-3.74,-3.7306,-3.5772,-3.5104,-3.39,-3.2311,-3.1385,-3.1173,-3.1361,-3.0821,-3.062,-3.062,-3.062,-3.0783,-3.1085,-3.1612,-3.18,-3.1851,-3.2139,-3.2416,-3.2641,-3.2641,-3.2842,-3.3124,-3.3124,-3.3124,-3.3124,-3.3124,-3.3124,-3.3124,-3.3124,-3.3124,-3.3124,-3.3124,-3.3124,-3.3124,-3.3124,-3.3124,-3.324,-3.3696,-3.3738,-3.4021,-3.4731,-3.4924,-3.5128,-3.5413,-3.5453,-3.5453,-3.5453,-3.5829,-3.6201,-3.6413,-3.7014,-3.7544,-3.7891,-3.7891,-3.7861,-3.7767,-3.7351,-3.6584,-3.5421,-3.4733,-3.4414,-3.4414,-3.4414,-3.4414,-3.4414,-3.4414,-3.4414,0.0,0.0,0.0,0.0,0.0,-3.3721,0.0,0.0,0.0,-3.281,-3.2766,-3.2723,0.0,0.0,0.0,-3.2081,0.0,0.0,0.0,-3.1705,0.0,-3.1705,-3.1705,-3.1705,-3.1705,-3.1705,-3.1705,-3.1705,-3.1705,-3.1749,-3.1937,-3.2038,-3.2245,-3.2636,-3.339,-3.3615,-3.3111,-3.3781,-3.3781,-3.3124,-3.4787,-3.552,-3.5492,-3.7062,-3.7077,-3.5751,-3.4681,-3.3553,-3.2319,-3.0976,-3.0457,-3.047,-3.057,-3.062,-3.0645,-3.0846,-3.1185,-3.1625,-3.219,-3.2378,-3.2453,-3.2918,-3.3124,-3.3124,-3.3124,-3.3124,-3.3124,-3.3124,-3.3124,-3.3124,-3.3124,-3.3124,-3.3124,-3.3124,-3.3124,-3.3124,-3.3124,-3.3124,-3.3124,-3.3124,-3.3124,-3.3124,-3.3124,-3.3124,-3.3411,-3.4272,-3.4272,-3.4454,-3.5278,-3.5224,-3.5102,-3.5102,-3.5264,-3.5602,-3.6136,-3.6452,-3.695,-3.7649,-3.7815,-3.8005,-3.8202,-3.7622,-3.6751,-3.561,-3.4922,-3.453,-3.4414,-3.4414,-3.4414,-3.4414,-3.4414,-3.4414,0.0,0.0,0.0,0.0,-3.5791,0.0,0.0,0.0,-3.3081,-3.3081,0.0,-3.2982,0.0,0.0,0.0,0.0,0.0,0.0,-3.1994,-3.1805,-3.1705,-3.1705,-3.1705,-3.1705,-3.1705,-3.1705,-3.1705,-3.1705,-3.1705,-3.1705,-3.1705,-3.2125,-3.2388,-3.2431,-3.2939,-3.3154,-3.3124,-3.3197,-3.3197,-3.3124,-3.4787,-3.5317,-3.4843,-3.5892,-3.5883,-3.5013,-3.3062,-3.2082,-3.1694,-3.0431,-2.988,-2.993,-3.0419,-3.062,-3.0733,-3.1687,-3.2077,-3.2202,-3.278,-3.298,-3.2993,-3.3056,-3.3124,-3.3124,-3.3124,-3.3124,-3.3124,-3.3124,-3.3124,-3.3124,-3.3124,-3.3124,-3.3124,-3.3124,-3.3124,-3.3124,-3.3124,-3.3124,-3.3124,-3.3124,-3.3124,-3.3124,-3.3124,-3.3124,-3.3411,-3.4272,-3.3738,-3.3569,-3.4439,-3.3852,-3.3398,-3.3398,-3.4063,-3.4551,-3.4634,-3.6016,-3.6897,-3.7014,-3.7558,-3.8005,-3.8202,-3.7622,-3.6954,-3.6214,-3.561,-3.498,-3.4414,-3.4414,-3.4414,-3.4414,-3.4414,-3.4414,0.0,0.0,0.0,0.0,0.0,0.0,-3.5719,0.0,-3.4553,0.0,0.0,0.0,0.0,0.0,0.0,0.0,-3.2388,-3.2213,0.0,0.0,-3.2025,-3.1705,0.0,0.0,-3.1893,-3.1749,-3.1705,-3.1705,-3.1705,-3.1761,-3.1849,-3.2081,-3.23,-3.255,-3.2766,-3.2939,-3.3124,-3.3124,-3.3124,-3.3124,-3.4429,-3.4939,-3.4734,-3.5304,-3.5189,-3.4425,-3.2678,-3.1664,-3.1159,-3.0202,-2.998,-3.0319,-3.0859,-3.106,-3.116,-3.1926,-3.2428,-3.2754,-3.2993,-3.3124,-3.3124,-3.3124,-3.3124,-3.3124,-3.3124,-3.3124,-3.3124,-3.3124,-3.3124,-3.3124,-3.3124,-3.3124,-3.3124,-3.3124,-3.3124,-3.3124,-3.3124,-3.3124,-3.3124,-3.3124,-3.3124,-3.3124,-3.3124,-3.3124,-3.3197,-3.3569,-3.3326,-3.324,-3.3611,-3.3326,-3.3124,-3.3124,-3.3411,-3.3865,-3.4356,-3.5032,-3.5655,-3.6122,-3.6897,-3.7582,-3.8165,-3.7622,-3.7172,-3.6896,-3.593,-3.5261,-3.5,-3.4588,-3.4414,-3.4414,-3.4414,-3.4414,-3.8202,0.0,0.0,0.0,0.0,0.0,0.0,0.0,0.0,0.0,0.0,0.0,0.0,0.0,0.0,0.0,0.0,-3.2828,0.0,-3.2593,0.0,0.0,0.0,0.0,0.0,-3.1981,-3.1893,-3.1893,-3.1893,-3.1937,-3.2081,-3.2169,-3.2332,-3.2667,-3.2766,-3.2896,-3.3124,-3.3124,-3.3124,-3.3111,-3.3947,-3.4298,-3.4124,-3.4248,-3.4053,-3.352,-3.2004,-3.1161,-3.0857,-3.0101,-3.0118,-3.067,-3.1185,-3.1486,-3.1687,-3.224,-3.2717,-3.3124,-3.3124,-3.3124,-3.3124,-3.3124,-3.3124,-3.3124,-3.3124,-3.3124,-3.3124,-3.3124,-3.3124,-3.3124,-3.3124,-3.3124,-3.3124,-3.3124,-3.3124,-3.3124,-3.3124,-3.3124,-3.3124,-3.3124,-3.3124,-3.3124,-3.3124,-3.3124,-3.3124,-3.3124,-3.3124,-3.3124,-3.3124,-3.3124,-3.3124,-3.3124,-3.3124,-3.3368,-3.3992,-3.4272,-3.4868,-3.5909,-3.6557,-3.7285,-3.8165,-3.7781,-3.7476,-3.7302,-3.6199,-3.5581,-3.5392,-3.4719,-3.4414,-3.4414,-3.4414,-3.4414,0.0,0.0,0.0,-3.8194,0.0,0.0,0.0,0.0,-3.5615,0.0,0.0,0.0,0.0,0.0,0.0,0.0,0.0,0.0,0.0,0.0,-3.2388,-3.2388,0.0,0.0,0.0,-3.2388,-3.24,0.0,-3.24,-3.2388,-3.24,-3.255,-3.2667,-3.2711,-3.2939,-3.3081,-3.3124,-3.3124,-3.3124,-3.3111,-3.3385,-3.3248,-3.2659,-3.2188,-3.2051,-3.2078,-3.0533,-3.0254,-3.0857,-3.0101,-3.0118,-3.067,-3.1185,-3.1725,-3.2252,-3.283,-3.3056,-3.3124,-3.3124,-3.3124,-3.3124,-3.3124,-3.3124,-3.3124,-3.3124,-3.3124,-3.3124,-3.3124,-3.3124,-3.3124,-3.3124,-3.3124,-3.3124,-3.3124,-3.3124,-3.3124,-3.3124,-3.3124,-3.3124,-3.3124,-3.3124,-3.3124,-3.3124,-3.3124,-3.3124,-3.3124,-3.3124,-3.3124,-3.3124,-3.3124,-3.3124,-3.3124,-3.3124,-3.3124,-3.3154,-3.3907,-3.5114,-3.6727,-3.6883,-3.7285,-3.8165,-3.8188,-3.7897,-3.7317,-3.6635,-3.5967,-3.5392,-3.4719,-3.4414,-3.4414,-3.4414,-3.4414,0.0,0.0,-3.8202,-3.8202,0.0,0.0,0.0,0.0,0.0,0.0,0.0,0.0,0.0,0.0,0.0,0.0,0.0,0.0,0.0,-3.4733,-3.4304,-3.381,-3.2939,0.0,0.0,0.0,0.0,0.0,-3.24,-3.2475,-3.2593,-3.2562,-3.255,-3.2711,-3.281,-3.2853,-3.2853,-3.3025,-3.3124,-3.3111,-3.297,-3.2802,-3.2567,-3.164,-3.1266,-3.1267,-3.0254,-2.9934,-3.0164,-3.0298,-3.0645,-3.1185,-3.1725,-3.2277,-3.2805,-3.3006,-3.3124,-3.3124,-3.3124,-3.3124,-3.3124,-3.3124,-3.3124,-3.3124,-3.3124,-3.3124,-3.3124,-3.3124,-3.3124,-3.3124,-3.3124,-3.3124,-3.3124,-3.3124,-3.3124,-3.3124,-3.3124,-3.3124,-3.3124,-3.3124,-3.3124,-3.3124,-3.3124,-3.3124,-3.3124,-3.3124,-3.3124,-3.3124,-3.3124,-3.3124,-3.3124,-3.3124,-3.3124,-3.3124,-3.3124,-3.3368,-3.4021,-3.5182,-3.5237,-3.5615,-3.6464,-3.7039,-3.7238,-3.7039,-3.6979,-3.6649,-3.5981,-3.5392,-3.482,-3.4414,-3.4414,-3.4414,-3.8202,-3.8202,0.0,-3.8202,-3.8202,0.0,-3.8202,0.0,-3.8202,0.0,0.0,0.0,0.0,0.0,0.0,0.0,0.0,0.0,0.0,-3.5615,-3.5427,-3.4896,-3.3797,-3.3142,0.0,0.0,-3.2779,-3.3111,-3.281,-3.2692,0.0,-3.2736,-3.2692,-3.2853,-3.2853,-3.2853,-3.2853,-3.3025,-3.2968,-3.2767,-3.2347,-3.2079,-3.186,-3.0945,-3.052,-3.0482,-2.9998,-2.9792,-2.9829,-3.0382,-3.0922,-3.1449,-3.2001,-3.2566,-3.3124,-3.3124,-3.3124,-3.3124,-3.3124,-3.3124,-3.3124,-3.3124,-3.3124,-3.3124,-3.3124,-3.3124,-3.3162,-3.3319,-3.3275,-3.3162,-3.3319,-3.3219,-3.3124,-3.3124,-3.3124,-3.3124,-3.3124,-3.3124,-3.3124,-3.3124,-3.3124,-3.3124,-3.3124,-3.3124,-3.3124,-3.3124,-3.3124,-3.3124,-3.3124,-3.3124,-3.3124,-3.3124,-3.3124,-3.3124,-3.3124,-3.3124,-3.3454,-3.4356,-3.4397,-3.4744,-3.5588,-3.6148,-3.6439,-3.6439,-3.6385,-3.6191,-3.5841,-3.4946,-3.4334,-3.3962,-3.3962,-3.3825]},{"header":{"parameterUnit":"m.s-1","parameterCategory":1,"la1":30.6,"la2":29.2853,"lo1":-89.7004,"lo2":-87.6739,"dy":0.0162,"dx":0.0183,"nx":112,"ny":82,"refTime":"2024-04-29T18:00:00:Z","depth":0,"parameterNumber":3,"parameterNumberName":"V-component_of_WINDS"},"data":[0.0,0.0,0.0,0.0,0.0,0.0,0.0,0.0,0.0,0.0,0.0,0.0,0.0,0.0,0.0,0.0,0.0,0.0,0.0,0.0,0.0,0.0,0.0,0.0,0.0,0.0,0.0,0.0,0.0,0.0,0.0,0.0,0.0,0.0,0.0,0.0,0.0,0.0,0.0,0.0,0.0,0.0,0.0,0.0,0.0,0.0,0.0,0.0,0.0,0.0,0.0,0.0,0.0,0.0,0.0,0.0,0.0,0.0,0.0,0.0,0.0,0.0,0.0,0.0,0.0,0.0,0.0,0.0,0.0,0.0,0.0,0.0,0.0,0.0,0.0,0.0,0.0,0.0,0.0,0.0,0.0,0.0,0.0,0.0,0.0,0.0,0.0,0.0,0.0,0.0,0.3135,0.1907,0.1795,0.1795,0.1795,0.1795,0.1683,0.1346,0.0,0.0,0.0,0.0,0.0,0.0,0.0,0.0,0.0,0.0,0.0,0.0,0.0,0.0,0.0,0.0,0.0,0.0,0.0,0.0,0.0,0.0,0.0,0.0,0.0,0.0,0.0,0.0,0.0,0.0,0.0,0.0,0.0,0.0,0.0,0.0,0.0,0.0,0.0,0.0,0.0,0.0,0.0,0.0,0.0,0.0,0.0,0.0,0.0,0.0,0.0,0.0,0.0,0.0,0.0,0.0,0.0,0.0,0.0,0.0,0.0,0.0,0.0,0.0,0.0,0.0,0.0,0.0,0.0,0.0,0.0,0.0,0.0,0.0,0.0,0.0,0.0,0.0,0.0,0.0,0.0,0.0,0.0,0.0,0.0,0.0,0.0,0.0,0.0,0.0,0.0,0.0,0.0,0.0,0.0,0.0,0.0,0.0,0.0,0.0,0.0,0.0,0.0,0.0,0.3135,0.1907,0.1795,0.1795,0.1795,0.1795,0.1683,0.1346,0.0,0.0,0.0,0.0,0.0,0.0,0.0,0.0,0.0,0.0,0.0,0.0,0.0,0.0,0.0,0.0,0.0,0.0,0.0,0.0,0.0,0.0,0.0,0.0,0.0,0.0,0.0,0.0,0.0,0.0,0.0,0.0,0.0,0.0,0.0,0.0,0.0,0.0,0.0,0.0,0.0,0.0,0.0,0.0,0.0,0.0,0.0,0.0,0.0,0.0,0.0,0.0,0.0,0.0,0.0,0.0,0.0,0.0,0.0,0.0,0.0,0.0,0.0,0.0,0.0,0.0,0.0,0.0,0.0,0.0,0.0,0.0,0.0,0.0,0.0,0.0,0.0,0.0,0.0,0.0,0.0,0.0,0.0,0.0,0.0,0.0,0.0,0.0,0.0,0.0,0.0,0.0,0.0,0.0,0.0,0.0,0.0,0.0,0.0,0.0,0.0,0.0,0.0,0.4472,0.3413,0.2856,0.2186,0.1795,0.1795,0.1795,0.1739,0.157,0.157,0.0,0.0,0.0,0.0,0.0,0.0,0.0,0.0,0.0,0.0,0.0,0.0,0.0,0.0,0.0,0.0,0.0,0.0,0.0,0.0,0.0,0.0,0.0,0.0,0.0,0.0,0.0,0.0,0.0,0.0,0.0,0.0,0.0,0.0,0.0,0.0,0.0,0.0,0.0,0.0,0.0,0.0,0.0,0.0,0.0,0.0,0.0,0.0,0.0,0.0,0.0,0.0,0.0,0.0,0.0,0.0,0.0,0.0,0.0,0.0,0.0,0.0,0.0,0.0,0.0,0.0,0.0,0.0,0.0,0.0,0.0,0.0,0.0,0.0,0.0,0.0,0.0,0.0,0.0,0.0,0.0,0.0,0.0,0.0,0.0,0.0,0.0,0.0,0.0,0.0,0.0,0.0,0.0,0.0,0.0,0.0,0.0,0.0,0.0,0.0,0.0,0.0,0.5421,0.4137,0.4137,0.3246,0.2633,0.2633,0.2633,0.2521,0.2242,0.2242,0.0,0.0,0.0,0.0,0.0,0.0,0.0,0.0,0.0,0.0,0.0,0.0,0.0,0.0,0.0,0.0,0.0,0.0,0.0,0.0,0.0,0.0,0.0,0.0,0.0,0.0,0.0,0.0,0.0,0.0,0.0,0.0,0.0,0.0,0.0,0.0,0.0,0.0,0.0,0.0,0.0,0.0,0.0,0.0,0.0,0.0,0.0,0.0,0.0,0.0,0.0,0.0,0.0,0.0,0.0,0.0,0.0,0.0,0.0,0.0,0.0,0.0,0.0,0.0,0.0,0.0,0.0,0.0,0.0,0.0,0.0,0.0,0.0,0.0,0.0,0.0,0.0,0.0,0.0,0.0,0.0,0.0,0.0,0.0,0.0,0.0,0.0,0.0,0.0,0.0,0.0,0.0,0.0,0.0,0.0,0.0,0.0,0.0,0.0,0.0,0.0,0.0,0.6586,0.5644,0.5644,0.5363,0.5139,0.5139,0.5139,0.4693,0.3525,0.3469,0.0,0.0,0.0,0.0,0.0,0.0,0.0,0.0,0.0,0.0,0.0,0.0,0.0,0.0,0.0,0.0,0.0,0.0,0.0,0.0,0.0,0.0,0.0,0.0,0.0,0.0,0.0,0.0,0.0,0.0,0.0,0.0,0.0,0.0,0.0,0.0,0.0,0.0,0.0,0.0,0.0,0.0,0.0,0.0,0.0,0.0,0.0,0.0,0.0,0.0,0.0,0.0,0.0,0.0,0.0,0.0,0.0,0.0,0.0,0.0,0.0,0.0,0.0,0.0,0.0,0.0,0.0,0.0,0.0,0.0,0.0,0.0,0.0,0.0,0.0,0.0,0.0,0.0,0.0,0.0,0.0,0.0,0.0,0.0,0.0,0.0,0.0,0.0,0.0,0.0,0.0,0.0,0.0,0.0,0.0,0.0,0.0,0.0,0.0,0.0,0.0,0.0,0.7974,0.7196,0.0,0.6253,0.5641,0.5641,0.5472,0.5194,0.4749,0.0,0.0,0.0,0.0,0.0,0.0,0.0,0.0,0.0,0.0,0.0,0.0,0.0,0.0,0.0,0.0,0.0,0.0,0.0,0.0,0.0,0.0,0.0,0.0,0.0,0.0,0.0,0.0,0.0,0.0,0.0,0.0,0.0,0.0,0.0,0.0,0.0,0.0,0.0,0.0,0.0,0.0,0.0,0.0,0.0,0.0,0.0,0.0,0.0,0.0,0.0,0.0,0.0,0.0,0.0,0.0,0.0,0.0,0.0,0.0,0.0,0.0,0.0,0.0,0.0,0.0,0.0,0.0,0.0,0.0,0.0,0.0,0.0,0.0,0.0,0.0,0.0,0.0,0.0,0.0,0.0,0.0,0.0,0.0,0.0,0.0,0.0,0.0,0.0,0.0,0.0,0.0,0.0,0.0,0.0,0.0,0.0,0.0,0.0,0.0,0.0,0.0,1.0143,0.9309,0.8751,0.0,0.7753,0.7088,0.7088,0.6808,0.6531,0.6139,0.0,0.0,0.0,0.0,0.0,0.0,0.0,0.0,0.0,0.0,0.0,0.0,0.0,0.0,0.0,0.0,0.0,0.0,0.0,0.0,0.0,0.0,0.0,0.0,0.0,0.0,0.0,0.0,0.0,0.0,0.0,0.0,0.0,0.0,0.0,0.0,0.0,0.0,0.0,0.0,0.0,0.0,0.0,0.0,0.0,0.0,0.0,0.0,0.0,0.0,0.0,0.0,0.0,0.0,0.0,0.0,0.0,0.0,0.0,0.0,0.0,0.0,0.0,0.0,0.0,0.0,0.0,0.0,0.0,0.0,0.0,0.0,0.0,0.0,0.0,0.0,0.0,0.0,0.0,0.0,0.0,0.0,0.0,0.0,0.0,0.0,0.0,0.0,0.0,0.0,0.0,0.0,0.0,0.0,0.0,0.0,0.0,0.0,0.0,0.0,0.0,0.0,1.0692,1.0476,1.0312,1.0312,1.0036,0.9816,0.9816,0.9544,0.8875,0.0,0.0,0.0,0.0,0.0,0.0,0.0,0.0,0.0,0.0,0.0,0.0,0.0,0.0,0.0,0.0,0.0,0.0,0.0,0.0,0.0,0.0,0.0,0.0,0.0,0.0,0.0,0.0,0.0,0.0,0.0,0.0,0.0,0.0,0.0,0.0,0.0,0.0,0.0,0.0,0.0,0.0,0.0,0.0,0.0,0.0,0.0,0.0,0.0,0.0,0.0,0.0,0.0,0.0,0.0,0.0,0.0,0.0,0.0,0.0,0.0,0.0,0.0,0.0,0.0,0.0,0.0,0.0,0.0,0.0,0.0,0.0,0.0,0.0,0.0,0.0,0.0,0.0,0.0,0.0,0.0,0.0,0.0,0.0,0.0,0.0,0.0,0.0,0.0,0.0,0.0,0.0,0.0,0.0,0.0,0.0,0.0,0.0,0.0,0.0,0.0,0.0,0.0,1.0692,1.0637,1.0582,1.0582,1.0312,1.0147,1.0147,0.9871,0.943,0.893,0.0,0.0,0.0,0.0,0.0,0.0,0.0,0.0,0.0,0.0,0.0,0.0,0.0,0.0,0.0,0.0,0.0,0.0,0.0,0.0,0.0,0.0,0.0,0.0,0.0,0.0,0.0,0.0,0.0,0.0,0.0,0.0,0.0,0.0,0.0,0.0,0.0,0.0,0.0,0.0,0.0,0.0,0.0,0.0,0.0,0.0,0.0,0.0,0.0,0.0,0.0,0.0,0.0,0.0,0.0,0.0,0.0,0.0,0.0,0.0,0.0,0.0,0.0,0.0,0.0,0.0,0.0,0.0,0.0,0.0,0.0,0.0,0.0,0.0,0.0,0.0,0.0,0.0,0.0,0.0,0.0,0.0,0.0,0.0,0.0,0.0,0.0,0.0,0.0,0.0,0.0,0.0,0.0,0.0,0.0,0.0,0.0,0.0,0.0,0.0,0.0,0.0,1.0692,1.0692,1.0692,1.0692,1.0586,1.0472,1.0472,1.0202,0.9926,0.9765,0.0,0.0,0.0,0.0,0.0,0.0,0.0,0.0,0.0,0.0,0.0,0.0,0.0,0.0,0.0,0.0,0.0,0.0,0.0,0.0,0.0,0.0,0.0,0.0,0.0,0.0,0.0,0.0,0.0,0.0,0.0,0.0,0.0,0.0,0.0,0.0,0.0,0.0,0.0,0.0,0.0,0.0,0.0,0.0,0.0,0.0,0.0,0.0,0.0,0.0,0.0,0.0,0.0,0.0,0.0,0.0,0.0,0.0,0.0,0.0,0.0,0.0,0.0,0.0,0.0,0.0,0.0,0.0,0.0,0.0,0.0,0.0,0.0,0.0,0.0,0.0,0.0,0.0,0.0,0.0,0.0,0.0,0.0,0.0,0.0,0.0,0.0,0.0,0.0,0.0,0.0,0.0,0.0,0.0,0.0,0.0,0.0,0.0,0.0,0.0,0.0,0.0,1.1017,1.1017,1.1017,1.1017,1.1017,1.1017,1.1017,1.0688,1.0472,1.0472,0.0,0.0,0.0,0.0,0.0,0.0,0.0,0.0,0.0,0.0,0.0,0.0,0.0,0.0,0.0,0.0,0.0,0.0,0.0,0.0,0.0,0.0,0.0,0.0,0.0,0.0,0.0,0.0,0.0,0.0,0.0,0.0,0.0,0.0,0.0,0.0,0.0,0.0,0.0,0.0,0.0,0.0,0.0,0.0,0.0,0.0,0.0,0.0,0.0,0.0,0.0,0.0,0.0,0.0,0.0,0.0,0.0,0.0,0.0,0.0,2.2108,0.0,0.0,0.0,0.0,0.0,0.0,0.0,0.0,0.0,0.0,0.0,0.0,0.0,0.0,0.0,0.0,0.0,0.0,0.0,0.0,0.0,0.0,0.0,0.0,0.0,0.0,0.0,0.0,0.0,0.0,0.0,0.0,0.0,0.0,0.0,0.0,0.0,0.0,0.0,0.0,0.0,1.3275,1.3383,1.3383,1.3383,1.3383,1.3383,1.3383,1.2521,1.1878,1.166,1.0743,0.0,0.0,0.0,0.0,0.0,0.0,0.0,0.0,0.0,0.0,0.0,0.0,0.0,0.0,0.0,0.0,0.0,0.0,0.0,0.0,0.0,0.0,0.0,0.0,0.0,0.0,0.0,0.0,0.0,0.0,0.0,0.0,0.0,0.0,0.0,0.0,0.0,0.0,0.0,0.0,0.0,0.0,0.0,0.0,0.0,0.0,0.0,0.0,0.0,0.0,0.0,0.0,0.0,0.0,0.0,0.0,0.0,0.0,0.0,0.0,2.2449,0.0,0.0,0.0,0.0,0.0,0.0,0.0,0.0,0.0,0.0,0.0,0.0,0.0,0.0,0.0,0.0,0.0,0.0,0.0,0.0,0.0,0.0,0.0,0.0,0.0,0.0,0.0,0.0,0.0,0.0,0.0,0.0,0.0,0.0,0.0,0.0,0.0,0.0,0.0,0.0,1.4245,1.4352,1.4352,1.4352,1.4191,1.4078,1.4078,1.3545,1.3166,1.3004,1.2467,0.0,0.0,0.0,0.0,0.0,0.0,0.0,0.0,0.0,0.0,0.0,0.0,0.0,0.0,0.0,0.0,0.0,0.0,0.0,0.0,0.0,0.0,0.0,0.0,0.0,0.0,0.0,0.0,0.0,0.0,0.0,0.0,0.0,0.0,0.0,0.0,0.0,0.0,0.0,0.0,0.0,0.0,0.0,0.0,0.0,0.0,0.0,0.0,0.0,0.0,0.0,0.0,0.0,2.6571,2.668,2.6689,2.6463,2.6354,2.63,2.5177,2.3927,2.2765,2.2546,0.0,0.0,0.0,0.0,0.0,0.0,0.0,0.0,0.0,0.0,0.0,0.0,0.0,0.0,0.0,0.0,0.0,0.0,0.0,0.0,0.0,0.0,0.0,0.0,1.8986,1.8513,1.7534,0.0,0.0,0.0,0.0,0.0,0.0,0.0,0.0,0.0,0.0,0.0,1.5215,1.5269,1.5269,1.5269,1.4995,1.4829,1.4829,1.4669,1.4561,1.4561,1.4347,1.4239,0.0,0.0,0.0,0.0,0.0,0.0,0.0,0.0,0.0,0.0,0.0,0.0,0.0,0.0,0.0,0.0,0.0,0.0,0.0,0.0,0.0,0.0,0.0,0.0,0.0,0.0,0.0,0.0,0.0,0.0,0.0,0.0,2.5945,2.7622,0.0,0.0,0.0,0.0,0.0,0.0,0.0,0.0,0.0,0.0,0.0,0.0,0.0,2.74,2.6372,2.8455,2.8943,2.7892,2.8996,2.9491,2.9491,2.9438,2.889,2.7892,2.7732,0.0,2.548,2.5426,0.0,0.0,0.0,0.0,0.0,0.0,0.0,0.0,0.0,0.0,0.0,0.0,0.0,0.0,0.0,0.0,0.0,0.0,0.0,0.0,0.0,0.0,1.9258,1.8921,1.8818,1.8658,0.0,1.7698,1.7623,1.874,1.7377,0.0,0.0,0.0,0.0,0.0,0.0,0.0,1.7779,1.7891,1.7891,1.7891,1.7832,1.7832,1.7832,1.6916,1.638,1.638,1.5411,1.4776,1.4519,1.4417,0.0,0.0,0.0,0.0,0.0,0.0,0.0,0.0,0.0,0.0,0.0,0.0,0.0,0.0,0.0,0.0,0.0,0.0,0.0,0.0,0.0,0.0,0.0,0.0,0.0,0.0,0.0,0.0,0.0,2.79,2.7836,2.8262,2.7843,2.7736,0.0,0.0,0.0,0.0,0.0,0.0,0.0,0.0,0.0,2.9217,2.9217,2.8943,2.8455,2.9501,2.9711,2.9217,2.9774,2.9994,2.9994,2.9994,2.9711,2.9207,2.8955,2.8458,2.7723,2.5846,2.4497,2.3549,0.0,0.0,0.0,0.0,2.0663,2.0564,2.0131,1.9974,1.9938,1.9755,0.0,0.0,0.0,0.0,0.0,0.0,0.0,0.0,0.0,0.0,1.8921,1.8591,1.8379,1.8299,1.8525,1.8139,1.7994,0.0,1.8355,1.8153,1.9116,0.0,0.0,0.0,0.0,1.8108,1.8593,1.8698,1.8698,1.8698,1.8534,1.8422,1.8422,1.7937,1.7667,1.7667,1.7186,1.6863,1.6764,1.6121,1.5689,0.0,0.0,0.0,0.0,0.0,0.0,0.0,0.0,0.0,0.0,0.0,0.0,0.0,0.0,0.0,0.0,0.0,0.0,0.0,0.0,0.0,0.0,0.0,0.0,0.0,0.0,0.0,0.0,2.9385,2.9004,2.8369,2.8344,2.8408,0.0,0.0,0.0,0.0,0.0,0.0,2.9994,2.9827,2.9774,2.9994,2.9994,2.9994,2.9994,2.9994,2.9994,2.9994,2.9994,2.9994,2.9994,2.9994,2.9994,2.9973,2.9632,2.9477,2.9271,2.6526,2.5048,2.4355,2.2969,2.2063,2.1395,2.0832,2.0586,2.0541,2.0059,1.9895,1.9858,1.9606,1.948,1.948,1.9428,0.0,0.0,0.0,0.0,1.9096,1.8855,1.873,1.8584,1.8255,1.7991,1.7969,1.854,1.8474,1.8423,0.0,1.9111,1.9279,1.9279,0.0,0.0,0.0,0.0,1.9026,1.9026,1.9026,1.9026,1.9026,1.8803,1.8632,1.8632,1.8632,1.8632,1.8632,1.8632,1.8586,1.8534,1.7726,1.7239,1.7127,0.0,0.0,0.0,0.0,0.0,0.0,0.0,0.0,0.0,0.0,0.0,0.0,0.0,0.0,0.0,0.0,0.0,0.0,0.0,0.0,0.0,0.0,0.0,0.0,0.0,0.0,0.0,0.0,0.0,2.8301,2.8514,0.0,0.0,0.0,0.0,2.9554,2.9827,2.9994,2.9994,2.9994,2.9994,2.9994,2.9994,2.9994,2.9994,2.9994,2.9994,2.9994,2.9994,2.9994,2.9994,2.9994,2.9994,2.9994,2.9973,2.9953,2.9891,2.8818,2.7561,2.6176,2.5047,2.3781,2.2359,2.1091,2.0613,2.0567,2.0223,2.0057,2.0101,2.0086,2.0078,2.0027,1.9783,1.968,0.0,0.0,1.9052,1.8811,1.8789,1.8555,1.8247,1.7918,1.783,1.7911,1.8255,1.8313,1.8489,0.0,1.9264,1.9279,1.9279,0.0,1.9279,1.9279,1.9279,1.9279,1.9279,1.9279,1.9279,1.9279,1.9272,1.9279,1.9279,1.9279,1.9279,1.9279,1.9279,1.9123,1.8869,1.8817,1.8646,1.8311,1.8258,0.0,0.0,0.0,0.0,0.0,0.0,0.0,0.0,0.0,0.0,0.0,0.0,0.0,0.0,0.0,0.0,0.0,0.0,0.0,0.0,0.0,0.0,0.0,0.0,0.0,0.0,0.0,0.0,2.8607,2.8771,0.0,2.8983,2.9343,2.9606,2.9606,2.9837,2.9994,2.9994,2.9994,2.9994,2.9994,2.9994,2.9994,2.9994,2.9994,2.9994,2.9994,2.9994,2.9994,2.9994,2.9994,2.9994,2.9973,2.9684,2.9549,2.9497,2.8866,2.7885,2.6669,2.521,2.423,2.3481,2.2834,2.2588,2.257,2.2283,2.2139,2.2139,2.2139,2.2139,2.2139,2.2038,2.2038,2.1988,2.1887,2.1795,2.1637,2.1445,2.1138,2.0841,2.037,2.0135,1.996,1.9749,1.9593,1.946,1.9553,1.9428,1.9279,1.9279,1.9279,1.9279,1.9279,1.9279,1.9279,1.9279,1.9279,1.9279,1.9279,1.9279,1.9279,1.9279,1.9279,1.9279,1.9279,1.9279,1.9184,1.8877,1.9014,1.9021,1.865,1.8851,1.8959,0.0,0.0,0.0,0.0,0.0,0.0,0.0,0.0,0.0,0.0,0.0,0.0,0.0,0.0,0.0,0.0,0.0,0.0,0.0,0.0,0.0,0.0,0.0,0.0,0.0,0.0,2.9064,2.8714,2.893,2.9132,2.9237,2.9554,2.9711,2.9711,2.9889,3.0141,3.0536,3.0547,3.0692,3.1054,3.1094,3.0899,3.0536,3.0547,3.0339,2.9994,2.9994,2.9994,2.9994,2.9994,2.9994,2.9973,2.9673,2.9539,2.9497,2.9042,2.8431,2.7609,2.6041,2.5211,2.4796,2.429,2.3958,2.3791,2.3633,2.3592,2.3592,2.3592,2.3592,2.3534,2.3434,2.3434,2.3434,2.3343,2.3237,2.3077,2.2868,2.2602,2.2276,2.1942,2.1571,2.1255,2.1077,2.0923,2.0768,2.0692,1.9951,1.9279,1.9279,1.9279,1.9279,1.9279,1.9279,1.9279,1.9279,1.9279,1.9428,1.9776,1.9828,1.9983,2.0336,1.9928,1.9662,1.9662,1.9556,1.9203,1.8635,1.9181,1.9248,1.8789,1.9352,1.9704,1.9945,0.0,0.0,0.0,0.0,0.0,0.0,0.0,0.0,0.0,0.0,0.0,0.0,0.0,0.0,0.0,0.0,0.0,0.0,0.0,0.0,0.0,0.0,0.0,2.9342,2.8888,2.8834,2.8834,2.9089,2.9333,2.9659,2.9931,3.0099,3.0099,3.0099,3.0536,3.1575,3.1626,3.2134,3.3151,3.3151,3.265,3.1626,3.1575,3.1032,2.9994,2.9994,2.9994,2.9994,2.9994,2.9994,2.9994,2.9994,2.9994,2.9953,2.9508,2.9321,2.9178,2.766,2.6829,2.6357,2.5267,2.4587,2.4187,2.4187,2.4187,2.4187,2.4187,2.4187,2.4137,2.389,2.3791,2.3741,2.3493,2.3207,2.296,2.296,2.2673,2.2425,2.2416,2.2064,2.1783,2.212,2.2144,2.2212,2.2571,2.0883,1.9413,1.9428,1.9428,1.9428,1.9428,1.9428,0.0,1.9428,1.9428,1.9783,2.0783,2.0936,2.1336,2.2341,2.1212,2.0468,2.0452,2.0092,1.9421,1.8432,1.9308,1.952,1.8868,1.9753,2.0573,2.1244,0.0,0.0,0.0,0.0,0.0,0.0,0.0,0.0,0.0,0.0,0.0,0.0,0.0,0.0,0.0,0.0,0.0,0.0,0.0,0.0,0.0,3.3025,3.272,3.1739,3.1445,3.1359,3.1359,3.1768,3.2033,3.1942,3.2145,3.2297,3.2297,3.2297,3.2448,3.2739,3.2739,3.2901,3.3201,3.2437,3.188,3.1575,3.0836,3.0287,2.9994,2.9994,2.9994,2.9994,2.9994,2.9994,2.9994,2.9994,2.9994,2.9984,2.986,2.9808,2.9673,2.8614,2.8075,2.7932,2.729,2.679,2.6418,2.6418,2.6418,2.6418,2.6418,2.6418,2.6418,2.6312,2.6312,2.6312,2.6215,2.6126,2.6084,2.6084,2.5861,2.5597,2.5448,2.4901,2.4294,2.3801,2.3296,2.2927,2.2904,2.225,2.172,2.1895,2.1937,2.1937,2.1937,2.1937,0.0,2.1937,2.1735,2.1438,2.0936,2.1582,2.1836,2.1387,2.1694,2.182,2.151,2.1401,2.0962,2.0089,2.0558,2.0749,2.0565,2.08,2.1174,0.0,0.0,0.0,0.0,0.0,0.0,0.0,0.0,0.0,0.0,0.0,0.0,0.0,0.0,0.0,0.0,0.0,0.0,0.0,0.0,0.0,0.0,3.4139,3.4267,3.4066,3.3199,3.2516,3.2415,3.2778,3.3039,3.2951,3.3101,3.3201,3.3201,3.3201,3.34,3.3845,3.3895,3.4091,3.4532,3.392,3.3377,3.2928,3.2336,3.1545,3.0692,3.0692,3.0443,2.9994,2.9994,2.9994,2.9994,2.9994,2.9994,2.9994,2.9994,2.9994,0.0,0.0,0.0,0.0,0.0,2.7645,2.7309,2.7309,2.7309,2.7309,2.7309,2.7309,2.7309,2.7309,2.7309,2.7309,2.7309,2.7309,2.7309,2.7309,2.7167,2.7067,2.692,2.6269,2.5523,2.5093,2.447,2.3987,2.3923,2.4023,0.0,2.4233,2.3633,2.3094,2.3094,2.3094,2.3094,2.3094,2.2935,2.2743,2.2433,2.2994,2.3244,2.2953,2.2944,0.0,0.0,0.0,2.1758,2.1142,2.1027,0.0,0.0,0.0,2.2167,2.2713,0.0,0.0,0.0,2.1793,2.1285,0.0,0.0,0.0,0.0,0.0,0.0,0.0,0.0,0.0,0.0,0.0,0.0,0.0,0.0,0.0,0.0,3.5332,3.5764,3.5968,3.4385,3.3116,3.2817,3.3066,3.3266,3.3499,3.3549,3.3549,3.3549,3.3549,3.3993,3.4921,0.0,0.0,0.0,0.0,3.5763,3.4824,3.4678,3.3575,3.1575,3.1575,3.1032,2.9994,2.9994,2.9994,2.9994,2.9994,2.9994,2.9994,2.9994,2.9994,2.9984,2.9942,2.9632,2.9125,2.8245,2.7645,2.7309,2.7309,0.0,0.0,2.7309,2.7309,2.7309,2.7309,2.7309,2.7309,2.7309,2.7309,2.7309,2.7309,2.7309,2.7309,2.7309,2.6594,2.5875,2.5875,2.5502,2.5127,2.5179,2.5659,2.6084,2.6182,2.4775,2.3692,2.3692,2.3692,2.3692,2.3692,2.3692,2.389,2.4492,0.0,0.0,2.5528,2.4514,2.3717,2.327,2.2769,2.2288,2.1891,2.1343,2.1333,2.1911,2.2603,2.3307,2.3981,2.4352,2.4763,2.5194,2.3435,2.265,0.0,0.0,0.0,0.0,0.0,0.0,0.0,0.0,0.0,0.0,0.0,0.0,0.0,0.0,0.0,3.6493,3.629,3.6181,3.6015,3.5835,3.5619,3.5343,3.5523,3.5619,3.5452,3.5631,3.5763,3.5763,3.5763,3.587,3.6061,3.6108,3.6216,3.6405,3.5571,3.503,3.4775,3.3944,3.2889,3.1575,0.0,0.0,2.9994,2.9994,2.9994,2.9994,2.9994,2.9994,2.9994,2.9994,2.9994,2.9953,2.9591,2.9156,2.868,2.8121,2.7645,2.7309,2.7309,2.7309,2.7309,2.7309,2.7309,2.7309,2.7309,2.7309,0.0,2.7309,2.7309,2.7309,2.7309,2.7309,2.7309,2.7309,2.6594,2.5875,2.5875,2.5244,2.4745,2.5117,2.5279,2.5516,2.5912,2.6094,2.6197,2.6197,2.6197,2.6197,2.6197,2.5994,2.5596,2.4894,2.5596,2.5752,2.4796,2.5276,2.5333,2.4725,2.4108,2.3485,2.2838,2.3223,2.3406,2.3393,2.383,2.4458,2.5162,2.5241,2.5603,2.6164,2.4225,2.3492,0.0,0.0,0.0,0.0,0.0,0.0,0.0,0.0,0.0,0.0,0.0,3.8686,3.8127,0.0,3.723,3.6693,3.6498,3.637,3.6228,3.6323,3.6323,3.6015,3.6228,3.637,3.6181,3.6323,3.6405,3.6405,3.6405,3.6405,3.6405,3.6405,3.6405,3.6405,3.587,3.5619,3.5619,3.5078,3.4276,3.3178,3.3178,3.2376,3.0785,3.0785,3.0495,2.9994,2.9994,2.9994,2.9973,2.9746,2.9653,2.958,2.8887,2.8618,2.8556,2.809,2.7645,2.7309,2.7309,2.7309,2.7309,2.7309,2.7309,2.7309,2.7309,2.7309,2.7309,2.7309,2.7309,2.7309,2.7309,2.7309,2.7309,2.7309,2.6594,2.5875,2.5875,2.5171,2.4569,2.4797,2.5034,2.5261,2.5513,2.6032,2.6475,2.6701,2.6927,2.7081,2.7081,2.6976,2.663,2.5994,2.64,2.6342,2.5548,2.5796,2.5827,2.5466,2.4715,2.4138,2.383,2.4118,2.4237,2.4148,2.4792,2.5275,2.5644,2.5874,2.6189,2.6496,2.5478,2.5092,0.0,0.0,0.0,0.0,0.0,0.0,0.0,0.0,3.9045,3.9446,3.9182,3.8668,3.7977,3.7475,3.6998,3.6505,3.6405,3.6405,3.6405,3.6405,3.6323,3.6098,3.6275,3.6405,3.6405,3.6405,3.6405,3.6405,3.6405,3.6405,3.6405,3.6405,3.6405,3.6405,3.6405,3.6405,3.6405,3.6405,3.5858,3.4775,3.4775,3.3784,3.188,3.1677,3.1135,3.0287,2.9995,2.986,2.9829,2.9363,2.9166,2.9083,2.8245,2.8152,2.8421,2.7966,2.7572,2.7309,2.7309,2.7309,2.7309,2.7309,2.7309,2.7309,2.7309,2.7309,2.7309,2.7309,2.7309,2.7309,2.7309,2.7309,2.7309,2.7309,2.6594,2.5875,2.5875,2.5171,2.4497,2.4497,2.4797,2.5055,2.5055,2.5461,2.5937,2.6532,2.6936,2.7206,2.7299,2.7309,2.7214,2.6986,2.6996,2.689,2.6602,2.6164,2.5923,2.5785,2.5078,2.465,2.4515,2.4549,2.4549,2.4515,2.538,2.5832,2.5879,2.6333,2.6592,2.664,2.6592,2.6554,3.7967,3.8054,3.8003,3.8053,3.8053,3.8178,0.0,0.0,3.8944,3.9007,3.8957,3.8592,3.7475,3.7224,3.6998,3.6505,3.6405,3.6405,3.6405,3.6405,3.6405,3.6358,3.6358,3.6405,3.6405,3.6405,3.6405,3.6405,3.6405,3.6405,3.6405,3.6405,3.6405,3.6405,3.6405,3.6405,3.6405,3.6405,3.5858,3.4775,3.4775,3.419,3.3001,3.2033,3.1524,3.1359,2.995,2.9384,2.9342,2.8887,2.869,2.8638,2.8121,2.7955,2.7945,2.75,2.7351,2.7309,2.7309,2.7309,2.7309,2.7309,2.7309,2.7309,2.7309,2.7309,2.7309,2.7309,2.7309,2.7309,2.7309,2.7309,2.7309,2.7309,2.6594,2.5875,2.5875,2.5171,2.4497,2.4497,2.4538,2.458,2.458,2.4962,2.5595,2.649,2.6656,2.6843,2.7258,2.7309,2.7309,2.7262,2.7262,2.7177,2.69,2.66,2.6255,2.5852,2.5554,2.5108,2.4525,2.4682,2.4682,2.4515,2.538,2.5926,2.617,2.6628,2.6986,2.7214,2.6986,2.6747,3.7437,3.7764,3.7939,3.7613,3.7525,3.7588,3.7826,3.7889,3.7977,3.8304,3.8115,3.7788,3.7274,3.6923,3.6681,0.0,3.6405,3.6405,3.6405,3.6405,3.6405,3.6405,3.6405,3.6405,3.6405,3.6405,3.6405,3.6405,3.6405,3.6405,3.6405,3.6405,3.6405,3.6405,3.6405,3.6405,3.6405,3.6405,3.6156,3.5715,3.5715,3.5174,3.4141,3.3685,3.2967,3.2,3.0752,3.0024,2.9657,2.8648,2.8214,2.8173,2.7717,2.7541,2.751,2.7372,2.7309,2.7309,2.7309,2.7309,2.7309,2.7309,2.7309,2.7309,2.7309,2.7309,2.7309,2.7309,2.7309,2.7309,2.7309,2.7309,2.7237,2.6967,2.6397,2.5813,2.5554,2.4952,2.4497,2.4497,2.4497,2.4497,2.4497,2.4662,2.5003,2.5689,2.6237,2.6687,2.6884,2.7133,2.7309,2.7309,2.7309,2.7262,2.7129,2.7023,2.6781,2.632,2.5905,2.5464,2.4934,2.5002,2.5002,2.4914,2.5527,2.589,2.6038,2.6501,2.6764,2.6915,2.7053,2.6938,3.6895,3.7249,3.7462,3.7061,3.7008,3.6998,3.7149,3.7186,3.7299,3.7701,3.7462,3.7136,3.6985,3.6681,3.6405,3.6405,3.6405,3.6405,3.6405,3.6405,3.6405,3.6405,3.6405,3.6405,3.6405,3.6405,3.6405,3.6405,3.6405,3.6405,3.6405,3.6405,3.6405,3.6405,3.6405,3.6405,3.6405,3.6405,3.6405,3.6405,3.6405,3.6013,3.5223,3.4921,3.3906,3.2345,3.1502,3.0825,3.0312,2.8823,2.8247,2.8168,2.7709,2.7394,2.7309,2.7357,2.7357,2.7309,2.7309,2.7309,2.7309,2.7309,2.7309,2.7309,2.7309,2.7309,2.7309,2.7309,2.7309,2.7309,2.7309,2.7309,2.7185,2.6729,2.6262,2.5761,2.5282,2.4828,2.4497,2.4497,2.4497,2.4497,2.4497,2.4497,2.4611,2.4952,2.5709,2.6289,2.6584,2.7019,2.7309,2.7309,2.7309,2.7309,2.7309,2.7309,2.7112,2.6646,2.6179,2.5689,2.521,2.5065,2.5003,2.5003,2.5471,2.5699,2.5699,2.6154,2.6428,2.6438,2.677,2.675,3.643,3.6455,3.6455,3.6443,3.643,3.6568,3.7061,3.7186,3.7186,3.7211,3.7199,3.7023,3.6531,3.6417,3.6405,3.6405,3.6405,3.6405,3.6405,3.6405,3.6405,3.6405,3.6405,3.6405,0.0,3.6405,3.6405,3.6405,3.6405,3.6405,3.6405,3.6405,3.6405,3.6405,3.6405,3.6405,3.6405,3.6405,3.6405,3.6405,3.6405,3.6358,3.631,3.5271,3.3906,3.2371,3.1878,3.1504,3.1067,2.9665,2.9059,2.9013,2.8269,2.7715,2.7299,2.7536,2.7452,2.7309,2.7309,2.7309,2.7309,2.7309,2.7309,2.7309,2.7309,2.7309,2.7309,2.7309,2.7309,2.7309,2.7309,2.7309,2.7185,2.6729,2.6262,2.5761,2.5282,2.4828,2.4497,2.4497,2.4497,2.4497,2.4497,2.4497,2.4507,2.4518,2.4921,2.5585,2.6501,2.7019,2.7309,2.7309,2.7309,2.7309,2.7309,2.7309,2.7112,2.6646,2.6179,2.5689,2.521,2.4755,2.4518,2.4518,2.4972,2.521,2.521,2.5689,2.5941,2.5941,2.5962,2.5906,3.6405,3.6405,3.6405,3.6405,3.6405,3.6455,3.6644,3.6681,3.6681,3.6681,3.6681,3.6631,3.6443,3.6405,3.6405,3.6405,3.6405,3.6405,3.6405,3.6405,3.6405,3.6405,3.6405,0.0,0.0,0.0,0.0,3.6405,3.6405,3.6405,3.6405,3.6405,3.6405,3.6405,3.6405,3.6405,3.6405,3.6405,3.6405,3.6405,3.6405,3.6405,3.6405,3.6013,3.5127,3.3896,3.3086,3.2363,3.163,3.0487,2.9738,2.928,2.9015,2.8434,2.7762,2.7631,2.7678,2.7715,2.7394,2.7309,2.7309,2.7309,2.7309,2.7309,2.7309,2.7309,2.7309,2.7309,2.7309,2.7309,2.7309,2.7309,2.7112,2.6335,2.5989,2.5678,2.489,2.4611,2.4497,2.4497,2.4497,2.4497,2.4497,2.4497,2.4497,2.4497,2.489,2.5554,2.6501,2.675,2.6967,2.7278,2.7309,2.7309,2.7309,2.7309,2.6978,2.6154,2.6013,2.5544,2.4766,2.458,2.4497,2.4497,2.4652,2.4735,2.4735,2.5233,2.5451,2.5461,2.574,2.572,3.6405,3.6405,3.6405,3.6405,3.6405,3.6405,3.6405,3.6405,3.6405,3.6405,3.6405,3.6405,3.6405,3.6405,3.6405,3.6405,3.6405,3.6405,3.6405,3.6405,3.6405,3.6405,3.6405,3.6405,0.0,0.0,0.0,3.6405,3.6405,3.6405,3.6405,3.6405,3.6405,3.6405,3.6405,3.6405,3.6405,3.6405,3.6405,3.6405,3.6405,3.6405,3.6405,3.6405,3.5755,3.468,3.4053,3.3334,3.2544,3.1545,3.0899,3.053,3.0259,2.951,2.8481,2.8398,2.8222,2.7951,2.7536,2.7404,2.7404,2.7404,2.7357,2.7309,2.7309,2.7309,2.7309,2.7309,2.7309,2.7309,2.7309,2.7309,2.7071,2.6138,2.5875,2.5627,2.4693,2.4497,2.4497,2.4497,2.4497,2.4497,2.4497,2.4497,2.4497,2.4497,2.4755,2.521,2.5999,2.6372,2.6729,2.7029,2.7206,2.7309,2.7309,2.7309,2.6978,2.6221,2.5968,2.5554,2.4776,2.459,2.4497,2.4497,2.4497,2.4497,2.4497,2.4797,2.4941,2.4952,2.5275,2.5254,3.6405,3.6405,3.6405,3.6405,3.6405,3.6405,3.6405,3.6405,3.6405,3.6405,3.6405,3.6405,3.6405,3.6405,3.6405,3.6405,3.6405,3.6405,3.6405,3.6405,3.6405,0.0,0.0,0.0,0.0,0.0,0.0,3.6405,0.0,3.6405,3.6405,3.6405,3.6405,3.6405,3.6405,3.6405,3.6405,3.6405,3.6405,3.6405,3.6405,3.6405,3.6405,3.6405,3.5755,3.468,3.468,3.4294,3.3628,3.2747,3.2463,3.2537,3.1928,3.081,2.9544,2.9795,2.9176,2.8128,2.782,2.7678,2.7631,2.7631,2.7489,2.7357,2.7357,2.7357,2.7309,2.7309,2.7309,2.7309,2.7309,2.7309,2.7081,2.6148,2.593,2.5637,2.4736,2.454,2.454,2.454,2.4497,2.4497,2.4497,2.4497,2.4497,2.4497,2.4497,2.4662,2.5127,2.5978,2.6563,2.6604,2.7009,2.7278,2.7309,2.7309,2.7112,2.6646,2.62,2.5709,2.521,2.4766,2.4518,2.4497,2.4497,2.4497,2.4497,2.4497,2.4497,2.4497,2.4497,2.4497,3.6405,3.6405,3.6405,3.6405,3.6405,3.6405,3.6405,3.6405,3.6405,3.6405,3.6405,3.6405,3.6405,3.6405,3.6405,3.6405,3.6405,0.0,3.6405,3.6405,0.0,3.6405,0.0,3.6405,3.6405,3.6405,0.0,0.0,3.6405,3.6405,3.6405,3.6405,3.6405,3.6405,3.6405,3.6405,3.6405,3.6405,3.6405,3.6405,3.6405,3.6405,3.6405,3.6405,3.5755,3.468,3.468,3.4294,3.367,3.3445,3.3177,3.2895,3.2722,3.2016,3.1033,3.0911,3.0777,3.0553,2.9578,2.8631,2.7904,2.7904,2.7857,2.7809,2.7809,2.7809,2.7762,2.7584,2.7536,2.7489,2.7357,2.7309,2.7118,2.632,2.601,2.5716,2.5146,2.4914,2.4786,2.4786,2.4625,2.4497,2.4497,2.4497,2.4497,2.4497,2.4497,2.4662,2.5127,2.543,2.5834,2.6542,2.6718,2.6926,2.7278,2.7309,2.7112,2.6646,2.6501,2.6041,2.522,2.5075,2.4848,2.4507,2.4497,2.4497,2.4497,2.4497,2.4497,2.4497,2.4497,2.4497,3.6405,3.6405,3.6405,3.6405,3.6405,3.6405,3.6405,3.6405,3.6405,3.6405,3.6405,3.6405,3.6405,3.6405,3.6405,0.0,0.0,0.0,3.6405,3.6405,3.6405,0.0,3.6405,0.0,3.6405,3.6405,3.6405,0.0,3.6405,3.6405,3.6405,3.6405,3.6405,3.6405,3.6405,3.6405,3.6405,3.6405,3.6405,3.6405,3.6405,3.6405,3.6405,3.6119,3.5529,3.4713,0.0,3.4123,3.3713,3.3713,3.367,3.3602,3.3602,3.3036,3.219,3.2059,3.184,3.1488,3.0822,3.0158,2.9429,2.8502,2.8092,2.7998,2.7998,2.7998,2.7998,2.782,2.7678,2.7584,2.7631,2.7536,2.7259,2.6557,2.6291,2.6038,2.536,2.5115,2.5031,2.5031,2.4903,2.4828,2.4828,2.4828,2.4828,2.4828,2.4828,2.488,2.5055,2.5153,2.5375,2.5927,2.633,2.6718,2.6978,2.7185,2.7374,2.7522,2.6951,2.656,2.6451,2.5839,2.5306,2.4817,2.4797,2.4704,2.4497,2.4903,2.4861,2.4497,2.4903,2.4861,3.6405,3.6405,3.6405,3.6405,3.6405,3.6405,3.6405,3.6405,3.6405,3.6405,3.6405,3.6405,3.6405,3.6405,3.6405,3.6405,0.0,3.6405,3.6405,3.6405,3.6405,3.6405,3.6405,3.6405,3.6405,3.6405,3.6405,3.6405,3.6405,3.6405,3.6405,3.6405,3.6405,3.6405,3.6405,3.6405,3.6405,3.6405,3.6405,3.6405,3.6329,3.6304,3.6279,3.5633,3.5094,3.4587,3.411,3.3832,3.3713,3.3713,3.3966,3.4397,3.4397,3.3911,3.3207,3.3207,3.2679,3.1972,3.184,3.1797,3.1444,2.9325,2.8466,2.8269,2.8128,2.8092,2.8092,2.8045,2.7914,2.7726,2.7951,2.7809,2.7504,2.6878,2.6657,2.637,2.5573,2.5327,2.5242,2.5242,2.52,2.52,2.52,2.52,2.52,2.52,2.52,2.5158,2.4946,2.5055,2.5161,2.5179,2.6007,2.6587,2.6649,2.7217,2.7891,2.8718,2.77,2.7384,2.8173,2.6952,2.6059,2.5574,2.5511,2.5194,2.4658,2.5547,2.5505,2.47,2.5463,2.5379,3.6405,3.6405,3.6405,3.6405,3.6405,3.6405,3.6405,3.6405,3.6405,3.6405,3.6405,3.6405,3.6405,3.6405,3.6405,3.6405,3.6405,3.6405,3.6405,3.6405,3.6405,0.0,3.6405,3.6405,3.6405,3.6405,0.0,0.0,3.6405,3.6405,3.6405,3.6405,3.6405,3.6405,3.6405,3.6405,3.6405,3.6405,3.6405,3.6405,3.5893,3.5646,3.5621,3.5069,3.4562,3.4035,3.3935,0.0,3.3713,3.3713,3.3966,3.4397,3.4397,3.4314,3.4176,3.4176,3.4037,3.3784,3.3036,3.2766,3.2463,3.0519,2.9852,2.9669,2.8874,2.8664,2.8617,2.8384,2.8301,2.8196,2.8045,2.7951,2.7859,2.7592,2.7027,2.6555,2.6401,2.5925,2.5517,2.5517,2.5338,2.52,2.52,2.52,2.52,2.52,2.52,2.52,2.5158,2.5019,2.5015,2.5192,2.5986,2.666,2.707,2.8221,2.9026,2.9204,2.9432,2.9489,2.9247,2.857,2.7996,2.7522,2.7009,2.6376,2.5579,2.6453,2.6442,2.5579,2.5746,2.5704,3.6405,3.6405,3.6405,3.6405,3.6405,3.6405,3.6405,3.6405,3.6405,3.6405,3.6405,3.6405,3.6405,3.6405,3.6405,3.6405,3.6405,3.6405,3.6405,3.6405,3.6405,3.6405,3.6405,3.6405,3.6405,3.6405,3.6292,3.5968,3.5931,3.6056,3.6392,3.6405,3.6405,3.6405,3.6405,3.6405,3.6405,3.6081,3.5931,3.5931,3.5378,3.5069,3.5056,3.455,3.4148,3.3884,3.3596,3.3566,3.3713,3.3713,3.3966,3.4397,3.4397,3.4397,3.4397,3.4397,3.4397,3.4356,3.3869,3.3742,3.3518,3.2103,3.1,3.0125,2.9692,2.9198,2.8896,2.9244,2.9244,2.9233,2.9749,2.9784,2.9488,2.8802,2.7612,2.6661,2.6883,2.63,2.578,2.578,2.5644,2.5549,2.5549,2.5549,2.5549,2.5549,2.5549,2.5506,2.5422,2.5695,2.5855,2.5722,2.6579,2.7281,2.7484,2.8366,2.9129,2.9617,2.9459,2.9438,2.9726,2.8996,2.8371,2.7889,2.7595,2.7126,2.6483,2.7395,2.7354,2.6483,2.6976,2.6689,3.6405,3.6405,3.6405,3.6405,3.6405,3.6405,3.6405,3.6405,3.6405,3.6405,3.6405,3.6405,3.6405,3.6405,3.6405,3.6405,3.6405,3.6405,3.6405,3.6405,3.6405,3.6405,3.6405,0.0,3.6194,3.6194,0.0,3.5357,3.532,3.5554,3.5994,3.6053,3.6053,3.6053,3.6053,3.6053,3.6053,3.5579,3.532,3.532,3.4768,3.455,3.4525,3.3972,3.3721,3.3709,3.3269,3.3313,3.3641,3.367,3.3937,3.4356,3.4397,3.4397,3.4397,3.4397,3.4397,3.4397,3.4397,3.4397,3.4272,3.356,3.2159,3.0744,3.0564,2.9988,2.9555,3.0306,3.0339,3.0384,3.1356,3.1444,3.098,2.9852,2.8418,2.7352,2.7434,2.694,2.6373,2.6218,2.6188,2.6104,2.5937,2.5895,2.5895,2.5895,2.6063,2.6135,2.5968,2.6753,2.7221,2.6917,2.7559,2.7997,2.7997,2.8587,2.93,3.0089,2.9491,2.9496,3.0259,2.9444,2.8776,2.8432,2.8274,2.7976,2.7395,2.8131,2.8131,2.7395,2.7971,2.7557,3.6405,3.6405,3.6405,3.6405,3.6405,3.6405,3.6405,3.6405,3.6405,3.6405,3.6405,3.6405,3.6405,3.6405,3.6405,3.6405,3.6405,3.6405,3.6405,3.6405,3.6405,3.6405,0.0,0.0,3.5621,3.5571,3.5345,3.4793,3.4756,3.4781,3.4864,3.4876,3.4876,3.4876,3.4876,3.4876,3.4876,3.4781,3.4756,3.4788,3.4236,3.3972,3.396,3.3407,3.3156,3.3156,3.3106,3.324,0.0,3.3641,3.3852,3.416,3.4314,3.4397,3.4397,3.4397,3.4397,3.4397,3.4397,3.4397,3.4397,3.4314,3.356,3.2593,3.1709,3.14,3.1356,3.1444,3.1444,3.1444,3.1577,3.1577,3.128,3.0187,2.9834,2.9445,2.8482,2.8227,2.7947,2.7214,2.7062,2.6828,2.6021,2.5895,2.5895,2.5895,2.658,2.7062,2.7062,2.8291,2.9133,2.9094,2.8867,2.8706,2.8706,2.9736,3.0443,3.0523,3.092,3.1169,3.1263,3.072,3.0378,3.0328,2.987,2.9219,2.8383,2.8462,2.8462,2.8343,2.7597,2.7597,3.6405,3.6405,3.6405,3.6405,3.6405,3.6405,3.6405,3.6405,3.6405,3.6405,3.6405,3.6405,3.6405,3.6405,3.6405,3.6405,3.6405,3.6405,3.6405,3.6405,3.6292,3.5906,3.5868,0.0,0.0,0.0,3.4781,3.4274,3.3922,3.3734,3.3734,3.4361,3.468,3.468,3.468,3.468,3.468,3.4399,3.4223,3.4223,3.3671,3.3407,3.3395,3.3224,3.3124,3.3124,3.3124,3.3283,0.0,3.367,3.3937,3.4272,3.4356,3.4397,3.4397,3.4397,3.4397,3.4397,3.4397,3.4397,3.4397,3.4397,3.4134,3.3645,3.2722,3.2059,3.1709,3.2277,3.2463,3.2593,3.3122,3.2864,3.2407,3.2218,3.105,2.9963,2.9773,2.9026,2.8307,2.7999,2.7919,2.7649,2.6816,2.6663,2.6663,2.6663,2.6981,2.7377,2.7839,2.8873,2.96,2.96,2.969,2.978,2.978,3.0188,3.0482,3.0482,3.0569,3.0617,3.0617,3.031,3.0118,3.0118,2.9905,2.9624,2.9287,2.9287,2.9287,2.9287,2.8882,2.8633,3.6405,3.6405,3.6405,3.6405,3.6405,3.6405,3.6405,3.6405,3.6405,3.6405,3.6405,3.6405,3.6405,3.6405,3.6405,3.6405,3.6405,3.6405,3.6405,3.6267,3.5981,3.5545,0.0,3.5044,0.0,3.4324,3.4073,3.3684,3.3294,3.3124,3.3124,3.3822,3.4236,3.4236,3.4236,3.4236,3.4236,3.3847,3.3658,3.3658,3.3269,3.3124,3.3124,3.3124,3.3124,3.3124,3.3124,3.3283,0.0,3.367,3.3937,3.4314,3.4397,3.4397,3.4397,3.4397,3.4397,3.4397,3.4397,3.4397,3.4397,3.4397,3.4397,3.4272,3.3602,3.2938,3.2593,3.325,3.342,3.356,3.4217,3.3911,3.3475,3.3595,3.2285,3.103,3.096,3.0152,2.9293,2.8858,2.8782,2.8505,2.7689,2.7568,2.7568,2.7568,2.777,2.8119,2.8703,2.9549,3.0101,3.0101,3.0394,3.0558,3.0482,3.0444,3.0406,3.0406,3.0254,3.0152,3.0113,2.9972,2.9869,2.9792,2.9792,2.9792,2.9792,2.9546,2.9546,2.9792,2.9546,2.9209,3.6405,3.6405,3.6405,3.6405,3.6405,3.6405,3.6405,3.6405,3.6405,3.6405,3.6405,3.6405,3.6405,3.6405,3.6405,3.6405,3.6405,3.6405,3.6405,3.5893,3.5508,0.0,0.0,3.4512,3.396,3.342,3.3093,3.3124,3.3124,0.0,3.3124,3.3124,3.3136,3.3136,3.3136,3.3136,3.3136,3.3124,3.3124,3.3124,3.3124,3.3124,3.3124,3.3124,3.3124,3.3124,3.3124,3.324,0.0,3.3641,3.3852,3.4118,3.4314,3.4397,3.4397,3.4397,3.4397,3.4397,3.4397,3.4397,3.4397,3.4397,3.4397,3.4397,3.4397,3.4397,3.4356,3.4397,3.4397,3.4397,3.4397,3.4397,3.4267,3.3731,3.3587,3.322,3.2058,3.1797,3.1332,2.9972,2.9704,2.942,2.8545,2.8386,2.8386,2.8386,2.9108,2.9665,2.9704,3.047,3.0986,3.0986,3.0986,3.0911,3.0698,3.052,3.0406,3.0406,3.0406,3.0292,3.0113,3.0113,3.0011,2.9792,2.9792,2.9792,2.9792,2.8922,2.8961,2.9792,2.8922,2.8961,3.6405,3.6405,3.6405,3.6405,3.6405,3.6405,3.6405,3.6405,3.6405,3.6405,3.6405,3.6405,3.6405,3.6405,3.6405,3.6405,3.6405,3.6279,0.0,0.0,0.0,3.4512,3.3935,3.3533,0.0,0.0,3.3124,3.3124,3.3124,3.3124,3.3124,3.3124,3.3124,3.3124,3.3124,3.3124,3.3124,3.3124,3.3124,3.3124,3.3124,3.3124,3.3124,3.3124,3.3124,3.3124,3.324,3.3441,3.3641,3.3852,3.4105,3.4314,3.4397,3.4397,3.4397,3.4397,3.4397,3.4397,3.4397,3.4397,3.4397,3.4397,3.4397,3.4397,3.4397,3.4397,3.4397,3.4397,3.4397,3.4397,3.4397,3.4397,3.4358,3.4188,3.3862,3.3496,3.3117,3.2712,3.228,3.185,3.1732,3.1368,3.0107,2.9886,2.975,2.9365,2.9498,2.9909,3.0508,3.0823,3.0986,3.0986,3.0986,3.0986,3.0911,3.0836,3.0798,3.0798,3.0685,3.0495,3.0292,3.019,3.0011,2.9792,2.9792,2.9792,2.9792,2.9534,2.9546,2.9792,2.9507,2.9546,3.6405,3.6405,3.6405,3.6405,3.6405,3.6405,3.6405,3.6405,3.6405,3.6405,3.6405,3.6405,3.6405,3.6405,3.6405,3.6499,3.6452,3.6216,3.5709,0.0,0.0,3.384,0.0,0.0,0.0,3.3124,3.3124,3.3124,3.3124,3.3124,3.3124,3.3124,3.3124,3.3124,3.3124,3.3124,3.3124,3.3124,3.3124,3.3124,3.3124,3.3124,3.3124,3.3124,3.3124,3.3124,3.3313,3.3513,0.0,3.3992,3.4243,3.4397,3.4397,3.4397,3.4397,3.4397,3.4397,3.4397,3.4397,3.4397,3.4397,3.4397,3.4397,3.4397,3.4397,3.4397,3.4397,3.4397,3.4397,3.4397,3.4397,3.4397,3.4397,3.4397,3.4136,3.3849,3.3639,3.33,3.296,3.2738,3.2685,3.241,3.1533,3.139,3.1275,3.0905,3.0636,3.0701,3.1224,3.1117,3.0986,3.0986,3.0986,3.0986,3.0986,3.0986,3.0986,3.0986,3.0874,3.0723,3.0533,3.0381,3.0203,2.9934,2.9895,2.9869,2.9792,2.9792,2.9792,2.9792,2.9792,2.9792,0.0,3.6405,3.6405,3.6405,3.6405,3.6405,3.6405,3.6405,0.0,3.6405,3.6405,3.6405,3.6405,3.6452,3.6499,3.6722,3.6555,3.6294,0.0,3.5384,0.0,0.0,3.3441,0.0,3.3154,3.3111,3.3124,3.3124,3.3124,3.3124,3.3124,3.3124,3.3124,3.3124,3.3124,3.3124,3.3124,3.3124,3.3124,3.3124,3.3124,3.3124,3.3124,3.3124,3.3124,0.0,3.3313,3.3513,3.3713,3.3992,3.4243,3.4397,3.4397,3.4397,3.4397,3.4397,3.4397,3.4397,3.4397,3.4397,3.4397,3.4397,3.4397,3.4397,3.4397,3.4397,3.4397,3.4397,3.4397,3.4397,3.4397,3.4397,3.4397,3.4397,3.4397,3.4254,3.3757,3.3652,3.3483,3.2921,3.2816,3.2803,3.2764,3.2751,3.2738,3.2698,3.2241,3.185,3.181,3.1378,3.1026,3.0986,3.0986,3.0986,3.0986,3.0986,3.0986,3.0986,3.0986,3.0911,3.0698,3.0698,3.0508,3.0113,3.0113,3.0011,2.9792,2.9792,2.9792,2.9792,2.9792,2.9792,3.6405,0.0,3.6405,3.6405,3.6405,3.6405,0.0,3.6405,3.6405,3.6405,3.6546,3.6628,3.6628,3.6815,3.6968,3.7015,3.6611,3.6126,3.5577,3.4676,0.0,3.3666,3.3641,3.3598,3.3556,3.3441,3.3313,3.3313,3.3197,3.3124,3.3124,3.3124,3.3124,3.3124,3.3124,3.3124,3.3124,3.3124,3.3124,3.3124,3.3124,3.3124,3.3124,3.3124,3.3124,3.3124,3.3471,3.367,3.3713,3.4147,3.4356,3.4397,3.4397,3.4397,3.4397,3.4397,3.4397,3.4397,3.4397,3.4397,3.4397,3.4397,3.4397,3.4397,3.4397,3.4397,3.4397,3.4397,3.4397,3.4397,3.4397,3.4397,3.4397,3.4397,3.4397,3.4358,3.4241,3.4201,3.4162,3.4018,3.3992,3.3862,3.3443,3.3378,3.3221,3.2764,3.2581,3.2333,3.1863,3.168,3.1432,3.1026,3.0986,3.0986,3.0986,3.0986,3.0986,3.0986,3.0986,3.0911,3.0698,3.0698,3.0584,3.033,3.019,3.0011,2.9792,2.9792,2.9792,2.9792,2.9792,2.9792,3.6405,3.6405,3.6405,3.6405,3.6452,3.6534,3.6534,3.664,3.6734,3.6734,0.0,3.6862,3.6862,3.6798,3.677,3.6862,3.6341,3.5731,0.0,0.0,3.3894,3.3894,3.3894,3.3852,0.0,3.3513,3.3398,3.3398,3.3197,3.3124,3.3124,3.3124,3.3124,3.3124,3.3124,3.3124,3.3124,3.3124,3.3124,3.3124,3.3124,3.3124,3.3124,3.3124,3.3154,3.324,3.3556,3.3768,3.3894,3.4272,3.4397,3.4397,3.4397,3.4397,3.4397,3.4397,3.4397,3.4397,3.4397,3.4397,3.4397,3.4397,3.4397,3.4397,3.4397,3.4397,3.4397,3.4397,3.4397,3.4397,3.4397,3.4397,3.4397,3.4397,3.4397,3.4397,3.4397,3.4397,3.4397,3.4397,3.4397,3.4306,3.4018,3.3966,3.3849,3.3522,3.326,3.2986,3.2685,3.2137,3.168,3.1418,3.1143,3.0986,3.0986,3.0986,3.0986,3.0986,3.0986,3.0949,3.0849,3.0849,3.0723,3.0533,3.0228,3.0049,2.9934,2.983,2.9792,2.9792,2.9792,2.9792,3.6452,3.6452,3.6452,3.6452,3.6581,3.6756,3.6756,0.0,0.0,0.0,0.0,3.7129,3.7039,3.6687,0.0,3.6496,0.0,0.0,3.4878,3.4416,3.416,3.416,3.416,0.0,3.3839,3.3598,3.3526,3.3526,3.3313,3.3197,3.3197,3.3154,3.3154,3.3154,3.3124,3.3124,3.3124,3.3124,3.3124,3.3124,3.3124,3.3124,3.3124,3.3124,3.3197,3.3356,0.0,0.0,3.4076,3.4314,3.4397,3.4397,3.4397,3.4397,3.4397,3.4397,3.4397,3.4397,3.4397,3.4397,3.4397,3.4397,3.4397,3.4397,3.4397,3.4397,3.4397,3.4397,3.4397,3.4397,3.4397,3.4397,3.4397,3.4397,3.4397,3.4397,3.4397,3.4397,3.4397,3.4397,3.4397,3.4397,3.4397,3.4397,3.4397,3.4397,3.4005,3.3679,3.36,3.2725,3.2006,3.1823,3.1405,3.1078,3.0999,3.0986,3.0986,3.0986,3.0986,3.0986,3.0986,3.0986,3.0911,3.0698,3.0356,3.019,3.0152,2.9934,2.9869,2.9869,2.9792,2.9792,3.6628,3.6675,3.6675,3.6675,3.6862,3.7062,3.7062,3.7062,0.0,0.0,0.0,0.0,0.0,3.678,3.6752,0.0,0.0,3.5135,0.0,0.0,3.4356,3.4356,0.0,3.4356,3.4314,3.4105,3.3992,3.3992,3.3768,3.3598,3.3598,3.3441,3.3356,3.3356,3.3197,3.3124,3.3124,3.3124,3.3124,3.3124,3.3124,3.3124,3.3124,3.3124,3.3124,3.3154,0.0,3.3713,3.381,3.423,3.4397,3.4397,3.4397,3.4397,3.4397,3.4397,3.4397,3.4397,3.4397,3.4397,3.4397,3.4397,3.4397,3.4397,3.4397,3.4397,3.4397,3.4397,3.4397,3.4397,3.4397,3.4397,3.4397,3.4397,3.4397,3.4397,3.4397,3.4397,3.4397,3.4397,3.4397,3.4397,3.4397,3.4397,3.4397,3.4397,3.4332,3.411,3.3652,3.343,3.2947,3.1915,3.1732,3.1471,3.1026,3.0986,3.0986,3.0986,3.0986,3.0986,3.0986,3.0986,3.0911,3.0698,3.0622,3.0533,3.0368,3.0152,3.0049,3.0049,2.9869,2.9792,3.6675,3.6909,3.7108,3.7108,3.7214,3.7307,3.7307,3.7154,0.0,0.0,0.0,0.0,0.0,0.0,3.5874,3.5273,0.0,3.4711,3.4437,3.4397,3.4397,0.0,0.0,3.4397,3.4397,3.4243,3.4118,3.4118,3.3852,3.3713,3.3713,3.3513,3.3398,3.3398,3.3197,3.3124,3.3124,3.3124,3.3124,3.3124,3.3124,3.3124,3.3124,3.3124,3.3154,3.3283,0.0,3.3768,3.3937,3.4272,3.4397,3.4397,3.4397,3.4397,3.4397,3.4397,3.4397,3.4397,3.4397,3.4397,3.4397,3.4397,3.4397,3.4397,3.4397,3.4397,3.4397,3.4397,3.4397,3.4397,3.4397,3.4397,3.4397,3.4397,3.4397,3.4397,3.4397,3.4397,3.4397,3.4397,3.4397,3.4397,3.4397,3.4397,3.4397,3.4397,3.4397,3.4306,3.4058,3.377,3.326,3.2398,3.198,3.1575,3.1039,3.0986,3.0986,3.0986,3.0986,3.0986,3.0986,3.0986,3.0949,3.0836,3.0773,3.066,3.0571,3.0381,3.0254,3.0254,3.0049,2.9972,3.6862,3.7201,3.7505,3.7564,3.7598,3.7572,3.7429,3.7189,0.0,0.0,0.0,0.0,0.0,3.577,0.0,3.4476,3.4397,3.4397,3.4397,3.4397,3.4397,3.4397,3.4397,3.4397,3.4397,3.4285,3.416,3.416,3.3979,3.3839,3.3839,3.3683,3.3569,3.3569,3.3356,3.324,3.324,3.3197,3.3154,3.3124,3.3124,3.3124,3.3124,3.3124,3.3197,3.3398,3.3598,3.3852,3.4118,3.4314,3.4397,3.4397,3.4397,3.4397,3.4397,3.4397,3.4397,3.4397,3.4397,3.4397,3.4397,3.4397,3.4397,3.4397,3.4397,3.4397,3.4397,3.4397,3.4397,3.4397,3.4397,3.4397,3.4397,3.4397,3.4397,3.4397,3.4397,3.4397,3.4397,3.4397,3.4397,3.4397,3.4397,3.4397,3.4397,3.4397,3.4397,3.4397,3.4397,3.4031,3.3496,3.2777,3.2306,3.1757,3.1052,3.0986,3.0986,3.0986,3.0986,3.0986,3.0986,3.0986,3.0986,3.0986,3.0849,3.0773,3.0773,3.0571,3.0482,3.0457,3.0254,3.019,3.7353,3.7459,3.7564,3.7808,3.7854,3.771,3.7149,3.7037,0.0,3.6345,0.0,0.0,0.0,3.4894,3.445,3.441,3.4397,3.4397,3.4397,0.0,3.4397,3.4397,3.4397,3.4397,3.4397,3.4397,3.4397,3.4397,3.4356,3.4356,3.4356,3.416,3.4034,3.4034,3.381,3.367,3.367,3.3471,3.3283,3.3124,3.3124,3.3124,3.3124,3.3124,3.3197,3.3398,3.3598,3.3852,3.4118,3.4314,3.4397,3.4397,3.4397,3.4397,3.4397,3.4397,3.4397,3.4397,3.4397,3.4397,3.4397,3.4397,3.4397,3.4397,3.4397,3.4397,3.4397,3.4397,3.4397,3.4397,3.4397,3.4397,3.4397,3.4397,3.4397,3.4397,3.4397,3.4397,3.4397,3.4397,3.4397,3.4397,3.4397,3.4397,3.4397,3.4397,3.4397,3.4397,3.4397,3.4358,3.3914,3.2816,3.2659,3.2189,3.1078,3.0986,3.0986,3.0986,3.0986,3.0986,3.0986,3.0986,3.0986,3.0986,3.0986,3.0986,3.0986,3.0773,3.0698,3.066,3.0457,3.0368,3.7007,3.7053,3.7111,3.6836,3.6789,0.0,0.0,3.6449,3.5966,3.6083,3.5534,0.0,0.0,0.0,3.4397,3.4397,3.4397,3.4397,3.4397,3.4397,3.4397,3.4397,3.4397,3.4397,3.4397,3.4397,3.4397,3.4397,3.4397,3.4397,3.4397,3.4202,3.4118,3.4118,3.3852,3.3713,3.3713,3.3641,3.3556,3.3471,3.324,3.3124,3.3124,3.3124,3.3197,3.3398,3.3598,3.3852,3.4118,3.4314,3.4397,3.4397,3.4397,3.4397,3.4397,3.4397,3.4397,3.4397,3.4397,3.4397,3.4397,3.4397,3.4397,3.4397,3.4397,3.4397,3.4397,3.4397,3.4397,3.4397,3.4397,3.4397,3.4397,3.4397,3.4397,3.4397,3.4397,3.4397,3.4397,3.4397,3.4397,3.4397,3.4397,3.4397,3.4397,3.4397,3.4397,3.4397,3.4397,3.4397,3.411,3.3326,3.2594,3.1849,3.1052,3.0986,3.0986,3.0986,3.0986,3.0986,3.0986,3.0986,3.0986,3.0986,3.0986,3.0986,3.0986,3.0911,3.0874,3.0874,3.0685,3.0584,3.6599,3.6577,3.6619,3.6201,0.0,0.0,3.6696,3.6065,3.5351,3.5534,3.4946,3.4481,3.4758,0.0,0.0,0.0,3.4592,3.4397,3.4397,3.4397,3.4397,3.4397,3.4397,3.4397,3.4397,3.4397,3.4397,3.4397,3.4397,3.4397,3.4397,3.4285,3.4202,3.4202,3.4021,3.3924,3.3924,3.3852,3.381,3.381,3.3441,3.3283,3.3197,3.3283,3.3356,3.3513,3.3725,3.3979,3.4202,3.4356,3.4397,3.4397,3.4397,3.4397,3.4397,3.4397,3.4397,3.4397,3.4397,3.4397,3.4397,3.4397,3.4397,3.4397,3.4397,3.4397,3.4397,3.4397,3.4397,3.4397,3.4397,3.4397,3.4397,3.4397,3.4397,3.4397,3.4397,3.4397,3.4397,3.4397,3.4397,3.4397,3.4397,3.4397,3.4397,3.4397,3.4397,3.4397,3.4397,3.4397,3.4123,3.3378,3.2424,3.1575,3.1039,3.0986,3.0986,3.0986,3.0986,3.0986,3.0986,3.0986,3.0986,3.0986,3.0986,3.0986,3.0986,3.0986,3.0986,3.0986,3.0836,3.0811,3.6253,3.6096,3.6096,3.6083,0.0,0.0,3.6302,3.5869,3.5116,3.4557,3.4439,3.4675,3.5548,3.4991,0.0,3.5548,3.4991,3.4439,3.4397,3.4397,3.4397,3.4397,3.4397,3.4397,3.4397,3.4397,3.4397,3.4397,3.4397,3.4397,3.4397,3.4397,3.4397,3.4397,3.4397,3.4397,3.4397,3.4202,3.4118,3.4118,3.3852,3.3598,3.3398,3.3598,3.3713,3.3725,3.3992,3.4202,3.4397,3.4397,3.4397,3.4397,3.4397,3.4397,3.4397,3.4397,3.4397,3.4397,3.4397,3.4397,3.4384,3.4384,3.4384,3.4384,3.4384,3.4384,3.4384,3.4384,3.4397,3.4397,3.4397,3.4397,3.4397,3.4397,3.4397,3.4397,3.4397,3.4397,3.4397,3.4397,3.4397,3.4397,3.4397,3.4397,3.4397,3.4397,3.4397,3.4397,3.4397,3.4397,3.3953,3.2816,3.215,3.1575,3.1039,3.0986,3.0986,3.0986,3.0986,3.0986,3.0986,3.0986,3.0986,3.0986,3.0986,3.0986,3.0986,3.0986,3.0986,3.0986,3.0986,3.0986,3.5691,3.5534,3.5601,3.577,0.0,0.0,0.0,3.6156,0.0,0.0,3.6148,3.6227,3.6503,3.6346,0.0,3.5736,3.5963,3.5762,3.4551,3.4909,3.5073,3.4481,3.4397,3.4397,3.4397,3.4397,3.4397,3.4397,3.4397,3.4397,3.4397,3.4397,3.4397,3.4397,3.4397,3.4397,3.4397,3.4356,3.4314,3.4314,3.423,3.3979,3.3598,3.367,3.381,3.3992,3.4076,3.4202,3.4397,3.4397,3.4397,3.4397,3.4397,3.4397,3.4397,3.4397,3.4397,3.4397,3.4397,3.4149,3.3835,3.3835,3.3548,3.3195,3.3195,3.3496,3.3835,3.3835,3.411,3.4397,3.4397,3.4397,3.4397,3.4397,3.4397,3.4397,3.4397,3.4397,3.4397,3.4397,3.4397,3.4397,3.4397,3.4397,3.4397,3.4397,3.4397,3.4397,3.4397,3.4397,3.3953,3.2816,3.2542,3.2045,3.1065,3.0986,3.0986,3.0986,3.0986,3.0986,3.0986,3.0986,3.0986,3.0986,3.0986,3.0986,3.0986,3.0986,3.0986,3.0986,3.0986,3.0986,3.5542,3.5467,3.5568,3.6058,3.6162,3.6399,3.7232,0.0,0.0,0.0,3.688,3.7011,3.7333,3.7127,0.0,3.6727,3.683,3.6543,3.5521,3.5843,3.5963,3.5454,3.5101,3.4909,3.4909,3.4592,3.4397,3.4397,3.4397,3.4397,3.4397,3.4397,3.4397,3.4397,3.4397,3.4397,3.4397,3.4397,3.4397,3.4397,3.4397,3.4272,3.3966,3.3966,3.4021,3.4118,3.4202,3.4272,3.4397,3.4397,3.4397,3.4397,3.4397,3.4397,3.4397,3.4397,3.4267,3.4071,3.4071,3.3705,3.3234,3.3234,3.2986,3.2685,3.2685,3.2947,3.3234,3.3234,3.347,3.3718,3.3718,3.3901,3.4136,3.4345,3.4397,3.4397,3.4397,3.4397,3.4397,3.4397,3.4397,3.4397,3.4397,3.4397,3.4397,3.4397,3.4397,3.4397,3.4397,3.4397,3.4058,3.3143,3.2829,3.2319,3.1405,3.1117,3.0986,3.0986,3.0986,3.0986,3.0986,3.0986,3.0986,3.0986,3.0986,3.0986,3.0986,3.0986,3.0986,3.0986,3.0986,3.0986,3.5615,3.5709,3.5896,3.6816,3.7074,0.0,3.8113,3.7706,3.7127,3.7127,0.0,3.7372,3.815,3.7653,3.7372,3.8075,3.7615,3.7112,3.6958,3.6996,3.7035,3.6958,3.632,3.583,3.5749,3.5032,3.4522,3.4439,3.4397,3.4397,3.4397,3.4397,3.4397,3.4397,3.4397,3.4397,3.4397,3.4397,3.4397,3.4397,3.4397,3.4397,3.4397,3.4397,3.4314,3.416,3.4314,3.4397,3.4397,3.4397,3.4439,3.4522,3.4439,3.4439,3.4522,3.4439,3.4058,3.3587,3.3668,3.3276,3.2725,3.2804,3.2804,3.2712,3.2686,3.2712,3.2791,3.2765,3.2765,3.2804,3.2804,3.3171,3.3639,3.4188,3.4358,3.4397,3.4397,3.4397,3.4397,3.4397,3.4397,3.4397,3.4397,3.4397,3.4397,3.4397,3.4397,3.4397,3.4397,3.4397,3.4188,3.3652,3.3051,3.2463,3.185,3.1313,3.0986,3.0986,3.0986,3.0986,3.0986,3.0986,3.0986,3.0986,3.0986,3.0986,3.0986,3.0986,3.0986,3.0986,3.0986,3.0986,3.5507,3.5709,0.0,3.7553,3.8412,3.8907,3.9119,3.8995,3.887,3.887,3.887,3.8907,3.9119,3.8995,3.8723,3.8277,3.8708,3.8627,3.7319,3.7814,3.8078,3.7434,3.7204,3.6869,3.6215,3.587,3.5399,3.4743,3.4535,3.4397,3.4397,3.4397,3.4397,3.4397,3.4397,3.4397,3.4397,3.4397,3.4397,3.4397,3.4397,3.4397,3.4397,3.4397,3.4397,3.4356,3.4397,3.4397,3.4397,3.4397,3.4799,3.5345,3.4675,3.484,3.5345,3.4634,3.4058,3.3668,3.426,3.3786,3.3012,3.3619,3.3472,3.2977,3.2394,3.2977,3.368,3.3087,3.3235,3.3559,3.3559,3.3237,3.3038,3.3626,3.4084,3.4397,3.4397,3.4397,3.4397,3.4397,3.4397,3.4397,3.4397,3.4397,3.4397,3.4397,3.4397,3.4397,3.4397,3.4397,3.4188,3.3652,3.3051,3.2463,3.185,3.1313,3.0986,3.0986,3.0986,3.0986,3.0986,3.0986,3.0986,3.0986,3.0986,3.0986,3.0986,3.0986,3.0986,3.0986,3.0986,3.0986,3.6042,3.657,0.0,3.8464,0.0,3.9388,3.9388,3.9388,3.9388,3.9388,3.9388,3.9388,3.9388,3.9496,3.9409,3.898,3.943,3.9538,3.8679,3.8987,3.9184,3.8752,3.8316,3.789,3.7472,3.6674,3.595,3.5413,3.4895,3.4535,3.4397,3.4397,3.4397,3.4397,3.4397,3.4397,3.4397,3.4397,3.4397,3.4397,3.4397,3.4397,3.4397,3.4397,3.4397,3.4397,3.4397,3.4397,3.4439,3.4827,3.5264,3.5696,3.5602,3.5883,3.6241,3.5762,3.5073,3.438,3.4753,3.4093,3.3146,3.3527,3.3445,3.3108,3.2755,3.3119,3.3598,3.3218,3.3307,3.3505,3.3505,3.3428,3.3463,3.375,3.3927,3.4084,3.4345,3.4397,3.4397,3.4397,3.4397,3.4397,3.4397,3.4397,3.4397,3.4397,3.4397,3.4397,3.4397,3.4397,3.4293,3.4005,3.347,3.2881,3.2293,3.1731,3.1274,3.0999,3.0986,3.0986,3.0986,3.0986,3.0986,3.0986,3.0986,3.0986,3.0986,3.0986,3.0986,3.0986,3.0986,3.0986,3.666,3.7615,3.859,3.9228,3.9388,0.0,3.9388,3.9388,3.9388,3.9388,3.9388,3.9424,3.946,3.9589,3.9717,3.9768,3.9925,4.0031,4.0031,4.0066,4.0101,4.0101,3.9436,3.8957,3.8833,3.7548,3.6596,3.6136,3.5413,3.4867,3.4481,3.4439,3.4397,3.4397,3.4397,3.4397,3.4397,3.4397,3.4397,3.4397,3.4397,3.4397,3.4397,3.4397,3.4397,3.4397,3.4397,3.4397,3.4481,3.5345,3.5776,3.5963,3.666,3.7011,3.7074,3.6845,3.6037,3.5082,3.5131,3.4362,3.3422,3.3541,3.361,3.3575,3.3422,3.3506,3.3575,3.3422,3.3388,3.3388,3.3388,3.3663,3.3964,3.4076,3.399,3.3979,3.4411,3.4444,3.4439,3.4522,3.4481,3.4481,3.4522,3.4439,3.4397,3.4439,3.4439,3.4397,3.4397,3.4397,3.4397,3.4397,3.3914,3.3352,3.2738,3.2137,3.1549,3.1013,3.0986,3.0986,3.0986,3.0986,3.0986,3.0986,3.0986,3.0986,3.0986,3.0986,3.0986,3.0986,3.0986,3.0986,3.6688,0.0,3.928,0.0,3.9388,3.9388,0.0,0.0,3.9388,0.0,3.9388,3.9445,3.9625,3.9681,3.9768,3.9925,4.0137,4.0277,4.0277,4.0366,4.042,4.042,4.0351,4.0005,3.9284,3.8855,3.8063,3.661,3.611,3.5521,3.4797,3.4535,3.4397,3.4397,3.4397,3.4397,3.4397,3.4397,3.4397,3.4397,3.4397,3.4397,3.4397,3.4397,3.4397,3.4397,3.4397,3.4397,3.4481,3.5345,3.6122,3.6763,3.6855,3.7372,3.7852,3.6533,3.5634,3.5099,3.516,3.473,3.4279,3.4953,3.518,3.5067,3.4361,3.4658,3.5034,3.4361,3.4143,3.4143,3.4143,3.3722,3.3445,3.3978,3.4505,3.4903,3.493,3.4645,3.4522,3.4908,3.488,3.4797,3.5003,3.466,3.4481,3.4714,3.4535,3.4397,3.4397,3.4397,3.4397,3.4397,3.3914,3.3352,3.2738,3.2137,3.1549,3.1013,3.0986,3.0986,3.0986,3.0986,3.0986,3.0986,3.0986,3.0986,3.0986,3.0986,3.0986,3.0986,3.0986,3.0986,3.7933,3.8833,3.9388,0.0,3.9388,3.9388,3.9388,3.9388,3.9424,3.9553,3.9553,3.9589,3.9681,3.9874,4.0051,4.0137,4.0296,4.0401,4.0401,4.047,4.0489,4.0489,4.0489,4.037,3.999,3.9499,3.8818,3.7988,3.7381,3.6543,3.5521,3.5359,3.5032,3.4439,3.4397,3.4397,3.4397,3.4397,3.4397,3.4397,3.4397,3.4397,3.4397,3.4397,3.4397,3.4397,3.4397,3.4675,3.5182,3.6042,3.6869,3.7668,3.8121,3.8509,3.8723,3.7689,3.6903,3.6347,3.6045,3.5499,3.5019,3.5392,3.5504,3.5424,3.51,3.5213,3.5439,3.5052,3.4971,3.4971,3.4971,3.4739,3.4544,3.4821,3.5321,3.5753,3.5988,3.5618,3.5237,3.5113,3.5044,3.5003,3.5086,3.4908,3.4784,3.4797,3.4714,3.4577,3.4397,3.4397,3.4397,3.4397,3.4188,3.3809,3.3247,3.2659,3.2071,3.1496,3.1169,3.0986,3.0986,3.0986,3.0986,3.0986,3.0986,3.0986,3.0986,3.0986,3.0986,3.0986,3.0986,3.0986,3.8943,0.0,3.9388,3.9388,3.9388,3.9388,0.0,0.0,3.9445,0.0,3.9732,3.9803,3.9824,4.0086,4.0296,4.0347,4.0436,4.0489,4.0489,4.0489,4.0489,4.0489,4.0489,4.0489,4.0489,3.9955,3.9463,3.9109,3.8458,3.752,3.6215,3.6056,3.5548,3.4522,3.4439,3.4397,3.4397,3.4397,3.4397,3.4397,3.4397,3.4397,3.4397,3.4397,3.4397,3.4397,3.4397,3.4868,3.5736,3.6582,3.7424,3.8277,3.9083,3.9388,3.932,3.8452,3.7823,3.73,3.6507,3.5908,3.5504,3.5504,3.5504,3.5504,3.5504,3.5504,3.5504,3.5504,3.5504,3.5504,3.5504,3.5504,3.5504,3.5504,3.6024,3.6593,3.6843,3.6717,3.6334,3.5615,3.5467,3.5426,3.5277,3.5154,3.5086,3.4962,3.4921,3.4797,3.4605,3.4522,3.4481,3.4481,3.4439,3.4175,3.3639,3.3182,3.2607,3.185,3.1431,3.1143,3.0999,3.0986,3.0986,3.0986,3.0986,3.0986,3.0986,3.0986,3.0986,3.0986,3.0986,3.0986,3.8943,3.9388,0.0,3.9388,3.9388,3.9388,0.0,0.0,3.9445,3.9661,3.9839,4.0031,4.0226,4.0277,4.0331,4.047,4.0505,4.0489,4.0489,4.0489,4.0489,4.0489,4.0489,4.0489,4.0489,4.0455,4.0111,3.9341,3.9073,3.825,3.6649,3.6215,3.5642,3.4797,3.4535,3.4397,3.4397,3.4397,3.4397,3.4397,3.4397,3.4397,3.4397,3.4397,3.4397,3.4397,3.4397,3.4868,3.5736,3.6582,3.7424,3.8277,3.9083,3.9388,3.9224,3.7943,3.7434,3.7225,3.5983,3.5534,3.5504,3.5504,3.5504,3.5504,3.5504,3.5504,3.5504,3.5504,3.5504,3.5504,3.5504,3.5504,3.5504,3.5504,3.6443,3.7301,3.7191,3.7605,3.7686,3.6727,3.6531,3.6348,3.575,3.5358,3.5154,3.5358,3.5195,3.5086,3.5086,3.488,3.4756,3.4756,3.4535,3.4175,3.3639,3.3561,3.3051,3.1876,3.1771,3.151,3.1013,3.0986,3.0986,3.0986,3.0986,3.0986,3.0986,3.0986,3.0986,3.0986,3.0986,3.0986,3.8411,0.0,0.0,3.8871,3.9095,3.9388,3.9388,3.9481,3.9661,3.9839,4.0066,4.0242,4.0401,4.0436,4.042,4.0489,4.0489,4.0489,4.0489,4.0489,4.0489,4.0489,4.0489,4.0489,4.0489,4.0489,4.0385,4.0076,3.999,3.9427,3.8227,3.8011,3.719,3.5602,3.5481,3.5114,3.4397,3.4397,3.4397,3.4397,3.4397,3.4397,3.4397,3.4397,3.4716,3.5237,3.5237,3.5696,3.6543,3.7386,3.8211,3.8995,3.9301,3.9155,3.8646,3.7749,3.715,3.6686,3.5804,3.5504,3.5504,3.5504,3.5504,3.5504,3.5504,3.5504,3.5504,3.5504,3.5504,3.5504,3.5504,3.5504,3.5714,3.6537,3.7158,3.7813,3.8633,3.8752,3.8457,3.7591,3.7092,3.6741,3.652,3.5937,3.548,3.5399,3.5358,3.5236,3.5127,3.5044,3.4921,3.4797,3.4714,3.4498,3.4123,3.3796,3.3417,3.2986,3.2215,3.1706,3.1497,3.1182,3.0986,3.0986,3.0986,3.0986,3.0986,3.0986,3.0986,3.0986,3.0986,3.0986,3.7812,0.0,0.0,3.8227,3.8571,3.9065,3.9065,3.9388,3.9768,3.996,4.0172,4.0331,4.047,4.0489,4.0489,4.0489,4.0489,4.0489,4.0489,4.0489,4.0489,4.0489,4.0489,4.0489,4.0489,4.0489,4.0489,4.0489,4.0489,0.0,3.916,3.9037,3.8086,3.6056,3.5669,3.5114,3.4397,3.4397,3.4397,3.4397,3.4397,3.4397,3.4397,3.4397,3.4868,3.5709,3.5976,3.6557,3.7372,3.7947,3.8664,3.9388,3.9388,3.899,3.8317,3.7659,3.7015,3.6387,3.5729,3.5504,3.5504,3.5504,3.5504,3.5504,3.5504,3.5504,3.5549,3.5774,3.5833,3.5878,3.6088,3.6148,3.6417,3.7479,3.7852,3.8236,3.9349,3.9517,3.9177,3.8375,3.791,3.7477,3.695,3.6441,3.5977,3.5562,3.5521,3.544,3.5318,3.5236,3.5154,3.5003,3.488,3.4714,3.4535,3.4112,3.3783,3.36,3.2672,3.2006,3.181,3.1287,3.0986,3.0986,3.0986,3.0986,3.0986,3.0986,3.0986,3.0986,3.0986,3.0986,0.0,0.0,0.0,3.7554,3.7883,3.8362,3.8392,3.9043,3.9737,3.996,4.0172,4.0331,4.047,4.0489,4.0489,4.0489,4.0489,4.0489,4.0489,4.0489,4.0489,4.0489,4.0489,4.0489,4.0489,4.0489,4.0489,4.0489,4.0489,4.0146,3.9391,3.9109,3.8101,3.6136,3.4991,3.4439,3.4439,3.4439,3.4439,3.4439,3.4439,3.4439,3.4439,3.4397,3.4868,3.5776,3.6543,3.7424,3.824,3.824,3.8701,3.9388,3.9394,3.8975,3.8287,3.7629,3.6985,3.6372,3.5729,3.5504,3.5504,3.5504,3.5519,3.5534,3.5534,3.5549,3.5699,3.6327,3.6507,3.6656,3.7255,3.7404,3.7584,3.8227,3.8392,3.8571,3.9275,3.9711,3.9732,3.898,3.898,3.8612,3.7003,3.6794,3.6624,3.5831,3.571,3.5669,3.571,3.5562,3.5399,3.5399,3.5044,3.4797,3.4797,3.4577,3.4175,3.3652,3.3051,3.2463,3.185,3.1313,3.0999,3.0986,3.0986,3.0986,3.0986,3.0986,3.0986,3.0986,3.0986,3.0986,3.654,0.0,0.0,0.0,0.0,0.0,3.8287,3.8682,3.9179,3.9869,4.0172,4.0331,4.047,4.0489,4.0489,4.0489,4.0489,4.0489,4.0489,4.0489,4.0489,4.0489,4.0489,4.0489,4.0489,4.0489,4.0489,0.0,4.0489,4.042,4.0196,3.9284,3.8539,3.7965,3.6241,3.5345,3.5345,3.5345,3.5345,3.5345,3.5345,3.5345,3.5305,3.4675,3.5182,3.6582,3.6802,3.7715,3.9083,3.9083,3.9192,3.9328,3.8871,3.8272,3.7599,3.6971,3.6327,3.5744,3.5564,3.5504,3.5504,3.5504,3.5833,3.6207,3.6207,3.6522,3.6926,3.7105,3.715,3.7195,3.736,3.7404,3.7584,3.8227,3.8392,3.8571,3.9275,3.9496,3.9553,3.9466,3.9126,3.8546,3.7462,3.6844,3.6427,3.6348,3.5736,3.5548,3.6243,3.5777,3.5358,3.5195,3.5086,3.5003,3.5003,3.466,3.4428,3.4449,3.3788,3.3077,3.2489,3.1901,3.1418,3.0999,3.0986,3.0986,3.0986,3.0986,3.0986,3.0986,3.0986,3.0986,0.0,0.0,0.0,3.6664,0.0,0.0,3.7883,3.8562,3.93,3.9884,4.0172,4.0331,4.047,4.0489,4.0489,4.0489,4.0489,4.0489,4.0489,4.0489,4.0489,4.0489,4.0489,4.0489,4.0489,4.0489,4.0489,4.0489,4.0489,4.047,4.0436,3.9334,3.8649,3.8576,3.6699,3.5856,3.6201,3.5856,3.5856,3.6201,3.5856,3.5709,3.5669,3.4799,3.5291,3.688,3.688,3.7829,3.9394,3.911,3.899,3.8945,3.8542,3.7838,3.6985,3.6626,3.6073,3.5549,3.5818,3.5908,3.5953,3.6207,3.6567,3.6866,3.6866,3.712,3.7464,3.7749,3.8033,3.8242,3.8242,3.8242,3.8347,3.8721,3.8826,3.8931,3.9334,3.9388,3.9409,3.9553,3.9358,3.8892,3.8046,3.7577,3.7155,3.657,3.5964,3.5696,3.5924,3.5548,3.5236,3.5127,3.5003,3.5003,3.5086,3.4784,3.4618,3.4797,3.4106,3.3511,3.3077,3.2241,3.1641,3.1352,3.1104,3.0986,3.0986,3.0986,3.0986,3.0986,3.0986,3.0986,0.0,0.0,0.0,0.0,3.6977,0.0,3.7524,3.8577,3.9626,3.991,4.0101,4.0261,4.047,4.0489,4.0489,4.0489,4.0489,4.0489,4.0489,4.0489,4.0489,4.0489,4.0489,4.0489,4.0489,4.0489,4.0489,4.0489,4.0489,4.047,4.0347,3.9385,3.8774,3.8576,3.6894,3.632,3.7049,3.632,3.632,3.7049,3.6201,3.5816,3.5776,3.484,3.5291,3.688,3.681,3.7728,3.9245,3.8571,3.8317,3.8377,3.8227,3.7494,3.6492,3.6492,3.6118,3.5714,3.6357,3.6596,3.6686,3.7225,3.7464,3.7524,3.7524,3.7569,3.7764,3.8332,3.8945,3.9388,3.9388,3.9388,3.9388,3.9388,3.9388,3.9388,3.9388,3.9388,3.9388,3.9388,3.9553,3.9394,3.8627,3.8612,3.8211,3.6649,3.6373,3.611,3.5426,3.5345,3.5345,3.5345,3.5072,3.499,3.5236,3.4962,3.4756,3.4797,3.4281,3.3896,3.3587,3.2594,3.1967,3.1797,3.1274,3.0986,3.0986,3.0986,3.0986,3.0986,3.0986,3.0986,0.0,0.0,0.0,0.0,3.7251,0.0,3.8197,3.8442,3.8842,3.9611,3.9803,3.991,4.0261,4.0331,4.0366,4.0489,4.0489,4.0489,4.0489,4.0489,4.0489,4.0489,4.0489,4.0489,4.0489,4.0489,4.0489,4.0489,4.0489,4.0489,4.047,4.0016,3.9732,3.9681,3.8397,3.781,3.7947,3.7796,3.7796,3.7947,3.7063,3.666,3.6621,3.5101,3.5291,3.6852,3.6322,3.7065,3.8542,3.7868,3.7913,3.8287,3.7255,3.6701,3.6492,3.6492,3.6402,3.6387,3.7015,3.7225,3.724,3.7375,3.7764,3.8197,3.8197,3.8586,3.905,3.9185,3.932,3.9388,3.9388,3.9388,3.9388,3.9388,3.9388,3.9388,3.9388,3.9388,3.9388,3.9388,3.9424,3.9177,3.8389,3.8277,3.8023,3.7127,3.6894,3.6777,3.6777,3.6777,3.6777,3.6777,3.6175,3.583,3.603,3.5087,3.4577,3.4797,3.4692,3.4304,3.3613,3.3526,3.2962,3.1823,3.1274,3.0986,3.0986,3.0986,3.0986,3.0986,3.0986,3.0986,0.0,0.0,0.0,3.7082,0.0,0.0,0.0,3.8901,3.9026,3.9585,3.9681,3.9803,4.0101,4.0242,4.0312,4.0401,4.047,4.0489,4.0489,4.0489,4.0489,4.0489,4.0489,4.0489,4.0489,4.0489,4.0489,4.0489,4.0489,4.0455,4.0401,4.0242,4.0066,3.9854,3.8841,3.8472,3.8811,3.8389,3.8389,3.8775,3.7525,3.688,3.6841,3.5182,3.4941,3.585,3.5878,3.6433,3.7334,3.7073,3.715,3.7375,3.6731,3.6492,3.6492,3.6492,3.6686,3.7045,3.7674,3.7898,3.7958,3.8302,3.8631,3.8901,3.8901,3.914,3.9388,3.9388,3.9388,3.9388,3.9388,3.9388,3.9388,3.9388,3.9388,3.9388,3.9388,3.9388,3.9388,3.9388,3.9388,3.9265,3.8848,3.8811,3.8538,3.782,3.7615,3.7424,3.7074,3.7035,3.7035,3.7035,3.6699,3.636,3.6175,3.5588,3.5087,3.4797,3.4797,3.4541,3.4005,3.3853,3.3158,3.1823,3.1274,3.0986,3.0986,3.0986,3.0986,3.0986,3.0986,3.0986,0.0,0.0,0.0,0.0,0.0,3.7864,0.0,0.0,0.0,3.9625,3.9661,3.9696,0.0,0.0,0.0,4.0242,0.0,0.0,0.0,4.0489,0.0,4.0489,4.0489,4.0489,4.0489,4.0489,4.0489,4.0489,4.0489,4.0455,4.0331,4.0277,4.0086,3.9768,3.9009,3.8841,3.9373,3.8775,3.8775,3.9388,3.7715,3.6863,3.6673,3.5171,3.4499,3.4675,3.5446,3.5903,3.6131,3.6268,3.6297,3.6312,3.6432,3.6492,3.6522,3.6761,3.7165,3.7689,3.8362,3.8586,3.8676,3.923,3.9388,3.9388,3.9388,3.9388,3.9388,3.9388,3.9388,3.9388,3.9388,3.9388,3.9388,3.9388,3.9388,3.9388,3.9388,3.9388,3.9388,3.9388,3.9388,3.9388,3.9388,3.9388,3.9119,3.8315,3.8315,3.8098,3.7256,3.7281,3.7396,3.7396,3.7242,3.6947,3.6452,3.6136,3.5683,3.5031,3.488,3.4673,3.4397,3.3875,3.3091,3.1993,3.1444,3.1091,3.0986,3.0986,3.0986,3.0986,3.0986,3.0986,0.0,0.0,0.0,0.0,3.7469,0.0,0.0,0.0,3.9424,3.9424,0.0,3.9481,0.0,0.0,0.0,0.0,0.0,0.0,4.0312,4.0436,4.0489,4.0489,4.0489,4.0489,4.0489,4.0489,4.0489,4.0489,4.0489,4.0489,4.0489,4.0207,3.9996,3.996,3.9517,3.9337,3.9388,3.9301,3.9301,3.9388,3.7715,3.6652,3.6159,3.5118,3.4426,3.4034,3.4916,3.5319,3.5432,3.5551,3.5609,3.5669,3.6252,3.6492,3.6626,3.7764,3.8227,3.8377,3.9065,3.9305,3.932,3.9394,3.9388,3.9388,3.9388,3.9388,3.9388,3.9388,3.9388,3.9388,3.9388,3.9388,3.9388,3.9388,3.9388,3.9388,3.9388,3.9388,3.9388,3.9388,3.9388,3.9388,3.9388,3.9388,3.9119,3.8315,3.8811,3.8958,3.8165,3.8686,3.9104,3.9104,3.8501,3.8037,3.7962,3.657,3.5709,3.5588,3.51,3.4673,3.4397,3.3875,3.3273,3.2607,3.1993,3.1496,3.0986,3.0986,3.0986,3.0986,3.0986,3.0986,0.0,0.0,0.0,0.0,0.0,0.0,3.7887,0.0,3.7956,0.0,0.0,0.0,0.0,0.0,0.0,0.0,3.9996,4.0137,0.0,0.0,4.0261,4.0489,0.0,0.0,4.0366,4.0455,4.0489,4.0489,4.0489,4.047,4.0401,4.0242,4.0066,3.9839,3.9661,3.9517,3.9388,3.9388,3.9388,3.9388,3.7408,3.6338,3.6047,3.4769,3.3908,3.3462,3.4661,3.5013,3.4758,3.5284,3.5729,3.6133,3.6776,3.7015,3.7135,3.8048,3.8646,3.9035,3.932,3.9388,3.9388,3.9388,3.9388,3.9388,3.9388,3.9388,3.9388,3.9388,3.9388,3.9388,3.9388,3.9388,3.9388,3.9388,3.9388,3.9388,3.9388,3.9388,3.9388,3.9388,3.9388,3.9388,3.9388,3.9388,3.9301,3.8958,3.9192,3.9265,3.8922,3.9192,3.9388,3.9388,3.9119,3.8701,3.824,3.7567,3.6922,3.6439,3.5709,3.5046,3.4439,3.3875,3.347,3.3221,3.228,3.168,3.1445,3.1143,3.0986,3.0986,3.0986,3.0986,3.4397,0.0,0.0,0.0,0.0,0.0,0.0,0.0,0.0,0.0,0.0,0.0,0.0,0.0,0.0,0.0,0.0,3.9559,0.0,3.9803,0.0,0.0,0.0,0.0,0.0,4.0296,4.0366,4.0366,4.0366,4.0331,4.0242,4.0172,4.0016,3.9717,3.9661,3.9553,3.9388,3.9388,3.9388,3.9373,3.7372,3.6301,3.6116,3.4775,3.3757,3.3157,3.4622,3.4913,3.4346,3.5166,3.5893,3.6552,3.7165,3.7524,3.7764,3.8422,3.899,3.9388,3.9388,3.9388,3.9388,3.9388,3.9388,3.9388,3.9388,3.9388,3.9388,3.9388,3.9388,3.9388,3.9388,3.9388,3.9388,3.9388,3.9388,3.9388,3.9388,3.9388,3.9388,3.9388,3.9388,3.9388,3.9388,3.9388,3.9388,3.9388,3.9388,3.9388,3.9388,3.9388,3.9388,3.9388,3.9388,3.9156,3.859,3.8315,3.772,3.6621,3.6002,3.5305,3.4439,3.4018,3.3744,3.3587,3.2594,3.1967,3.1797,3.1261,3.0986,3.0986,3.0986,3.0986,0.0,0.0,0.0,3.4465,0.0,0.0,0.0,0.0,3.688,0.0,0.0,0.0,0.0,0.0,0.0,0.0,0.0,0.0,0.0,0.0,3.9996,3.9996,0.0,0.0,0.0,3.9996,4.0011,0.0,4.0011,3.9996,4.0011,3.9839,3.9717,3.9681,3.9517,3.9424,3.9388,3.9388,3.9388,3.9373,3.7901,3.6845,3.6272,3.5513,3.4446,3.329,3.4817,3.5034,3.4346,3.5166,3.5893,3.6552,3.7165,3.7808,3.8437,3.9125,3.9394,3.9388,3.9388,3.9388,3.9388,3.9388,3.9388,3.9388,3.9388,3.9388,3.9388,3.9388,3.9388,3.9388,3.9388,3.9388,3.9388,3.9388,3.9388,3.9388,3.9388,3.9388,3.9388,3.9388,3.9388,3.9388,3.9388,3.9388,3.9388,3.9388,3.9388,3.9388,3.9388,3.9388,3.9388,3.9388,3.9388,3.9388,3.9337,3.8664,3.7491,3.5856,3.5696,3.5305,3.4439,3.4384,3.4123,3.36,3.2986,3.2385,3.1797,3.1261,3.0986,3.0986,3.0986,3.0986,0.0,0.0,3.4397,3.4397,0.0,0.0,0.0,0.0,0.0,0.0,0.0,0.0,0.0,0.0,0.0,0.0,0.0,0.0,0.0,3.7738,3.8182,3.8723,3.9517,0.0,0.0,0.0,0.0,0.0,4.0011,3.9925,3.9803,3.9854,3.9839,3.9681,3.9625,3.9589,3.9589,3.9445,3.9388,3.9373,3.7512,3.6511,3.6249,3.514,3.4345,3.3973,3.5034,3.5359,3.5162,3.5869,3.6522,3.7165,3.7808,3.8467,3.9095,3.9334,3.9388,3.9388,3.9388,3.9388,3.9388,3.9388,3.9388,3.9388,3.9388,3.9388,3.9388,3.9388,3.9388,3.9388,3.9388,3.9388,3.9388,3.9388,3.9388,3.9388,3.9388,3.9388,3.9388,3.9388,3.9388,3.9388,3.9388,3.9388,3.9388,3.9388,3.9388,3.9388,3.9388,3.9388,3.9388,3.9388,3.9388,3.9388,3.9388,3.9156,3.8538,3.74,3.7376,3.6961,3.6068,3.5534,3.5183,3.4996,3.3885,3.2999,3.2398,3.1797,3.1352,3.0986,3.0986,3.0986,3.4397,3.4397,0.0,3.4397,3.4397,0.0,3.4397,0.0,3.4397,0.0,0.0,0.0,0.0,0.0,0.0,0.0,0.0,0.0,0.0,3.688,3.7088,3.7668,3.8708,3.9322,0.0,0.0,3.9676,3.9373,3.9625,3.9747,0.0,3.9711,3.9747,3.9589,3.9589,3.9589,3.9589,3.9445,3.929,3.905,3.7458,3.6579,3.6329,3.5209,3.4725,3.4758,3.5279,3.5504,3.5549,3.6207,3.6851,3.7479,3.8138,3.8811,3.9388,3.9388,3.9388,3.9388,3.9388,3.9388,3.9388,3.9388,3.9388,3.9388,3.9388,3.9388,3.9433,3.9709,3.9568,3.9433,3.9709,3.9589,3.9388,3.9388,3.9388,3.9388,3.9388,3.9388,3.9388,3.9388,3.9388,3.9388,3.9388,3.9388,3.9388,3.9388,3.9388,3.9388,3.9388,3.9388,3.9388,3.9388,3.9388,3.9388,3.9388,3.9388,3.9083,3.824,3.8202,3.7834,3.6933,3.6385,3.6122,3.6122,3.5059,3.4045,3.3131,3.2802,3.2228,3.1394,3.1394,3.1542]}]]